<?xml version="1.0" encoding="UTF-8" standalone="no" ?>
<gpx xmlns="http://www.topografix.com/GPX/1/1" xmlns:xsi="http://www.w3.org/2001/XMLSchema-instance" xsi:schemaLocation="http://www.topografix.com/GPX/1/1 http://www.topografix.com/GPX/1/1/gpx.xsd" version="1.1" creator="VisuGPX - https://www.visugpx.com">
  <metadata>
    <name>callian 02 jan 2010</name>
    <desc><![CDATA[callian 02 jan 2010
----------------------
broken chain]]></desc>
  </metadata>
  <trk>
    <name><![CDATA[callian 02 jan 2010_1]]></name>
    <trkseg>
      <trkpt lat="43.62211" lon="6.77197">
        <ele>383.1</ele>
        <time>2010-01-02T12:47:28.247Z</time>
      </trkpt>
      <trkpt lat="43.6222" lon="6.7721">
        <ele>-48.6</ele>
        <time>2010-01-02T12:47:30.247Z</time>
      </trkpt>
      <trkpt lat="43.62228" lon="6.77227">
        <ele>-48.6</ele>
        <time>2010-01-02T12:47:32.247Z</time>
      </trkpt>
      <trkpt lat="43.62198" lon="6.77736">
        <ele>391.2</ele>
        <time>2010-01-02T12:47:34.247Z</time>
      </trkpt>
      <trkpt lat="43.62206" lon="6.77755">
        <ele>389.1</ele>
        <time>2010-01-02T12:47:36Z</time>
      </trkpt>
      <trkpt lat="43.62212" lon="6.77766">
        <ele>388.3</ele>
        <time>2010-01-02T12:47:37Z</time>
      </trkpt>
      <trkpt lat="43.62218" lon="6.77778">
        <ele>387.3</ele>
        <time>2010-01-02T12:47:38Z</time>
      </trkpt>
      <trkpt lat="43.62224" lon="6.7779">
        <ele>386.4</ele>
        <time>2010-01-02T12:47:39Z</time>
      </trkpt>
      <trkpt lat="43.6223" lon="6.77803">
        <ele>384.9</ele>
        <time>2010-01-02T12:47:40Z</time>
      </trkpt>
      <trkpt lat="43.62236" lon="6.77815">
        <ele>383.8</ele>
        <time>2010-01-02T12:47:41Z</time>
      </trkpt>
      <trkpt lat="43.62242" lon="6.77828">
        <ele>382.4</ele>
        <time>2010-01-02T12:47:42Z</time>
      </trkpt>
      <trkpt lat="43.62249" lon="6.7784">
        <ele>381.1</ele>
        <time>2010-01-02T12:47:43Z</time>
      </trkpt>
      <trkpt lat="43.62255" lon="6.7785">
        <ele>380.2</ele>
        <time>2010-01-02T12:47:44Z</time>
      </trkpt>
      <trkpt lat="43.62265" lon="6.77864">
        <ele>378.9</ele>
        <time>2010-01-02T12:47:46Z</time>
      </trkpt>
      <trkpt lat="43.62276" lon="6.77873">
        <ele>378.8</ele>
        <time>2010-01-02T12:47:49Z</time>
      </trkpt>
      <trkpt lat="43.62288" lon="6.77863">
        <ele>379.5</ele>
        <time>2010-01-02T12:47:52Z</time>
      </trkpt>
      <trkpt lat="43.62291" lon="6.7785">
        <ele>381</ele>
        <time>2010-01-02T12:47:54Z</time>
      </trkpt>
      <trkpt lat="43.62295" lon="6.77833">
        <ele>382.4</ele>
        <time>2010-01-02T12:47:57Z</time>
      </trkpt>
      <trkpt lat="43.623" lon="6.77815">
        <ele>383.2</ele>
        <time>2010-01-02T12:48:00Z</time>
      </trkpt>
      <trkpt lat="43.62304" lon="6.77804">
        <ele>383.5</ele>
        <time>2010-01-02T12:48:02Z</time>
      </trkpt>
      <trkpt lat="43.62308" lon="6.77792">
        <ele>384.1</ele>
        <time>2010-01-02T12:48:04Z</time>
      </trkpt>
      <trkpt lat="43.62312" lon="6.7778">
        <ele>384.3</ele>
        <time>2010-01-02T12:48:06Z</time>
      </trkpt>
      <trkpt lat="43.62317" lon="6.77766">
        <ele>383.8</ele>
        <time>2010-01-02T12:48:08Z</time>
      </trkpt>
      <trkpt lat="43.62322" lon="6.77752">
        <ele>383.4</ele>
        <time>2010-01-02T12:48:10Z</time>
      </trkpt>
      <trkpt lat="43.62329" lon="6.77738">
        <ele>383.1</ele>
        <time>2010-01-02T12:48:12Z</time>
      </trkpt>
      <trkpt lat="43.62338" lon="6.77725">
        <ele>382.9</ele>
        <time>2010-01-02T12:48:14Z</time>
      </trkpt>
      <trkpt lat="43.62347" lon="6.77714">
        <ele>382.7</ele>
        <time>2010-01-02T12:48:16Z</time>
      </trkpt>
      <trkpt lat="43.62356" lon="6.77703">
        <ele>382.6</ele>
        <time>2010-01-02T12:48:18Z</time>
      </trkpt>
      <trkpt lat="43.62364" lon="6.77691">
        <ele>382.8</ele>
        <time>2010-01-02T12:48:20Z</time>
      </trkpt>
      <trkpt lat="43.62372" lon="6.77677">
        <ele>382.7</ele>
        <time>2010-01-02T12:48:22Z</time>
      </trkpt>
      <trkpt lat="43.6238" lon="6.77663">
        <ele>382.3</ele>
        <time>2010-01-02T12:48:24Z</time>
      </trkpt>
      <trkpt lat="43.62386" lon="6.77648">
        <ele>382.6</ele>
        <time>2010-01-02T12:48:26Z</time>
      </trkpt>
      <trkpt lat="43.62392" lon="6.77632">
        <ele>382.7</ele>
        <time>2010-01-02T12:48:28Z</time>
      </trkpt>
      <trkpt lat="43.62397" lon="6.77616">
        <ele>382.5</ele>
        <time>2010-01-02T12:48:30Z</time>
      </trkpt>
      <trkpt lat="43.62401" lon="6.77599">
        <ele>382.3</ele>
        <time>2010-01-02T12:48:32Z</time>
      </trkpt>
      <trkpt lat="43.62403" lon="6.7758">
        <ele>382.2</ele>
        <time>2010-01-02T12:48:34Z</time>
      </trkpt>
      <trkpt lat="43.62402" lon="6.77561">
        <ele>382.1</ele>
        <time>2010-01-02T12:48:36Z</time>
      </trkpt>
      <trkpt lat="43.62401" lon="6.77541">
        <ele>381.8</ele>
        <time>2010-01-02T12:48:38Z</time>
      </trkpt>
      <trkpt lat="43.62403" lon="6.7751">
        <ele>382.1</ele>
        <time>2010-01-02T12:48:40Z</time>
      </trkpt>
      <trkpt lat="43.62405" lon="6.7749">
        <ele>382.7</ele>
        <time>2010-01-02T12:48:42Z</time>
      </trkpt>
      <trkpt lat="43.62407" lon="6.77472">
        <ele>383.3</ele>
        <time>2010-01-02T12:48:44Z</time>
      </trkpt>
      <trkpt lat="43.62409" lon="6.77456">
        <ele>384.1</ele>
        <time>2010-01-02T12:48:46Z</time>
      </trkpt>
      <trkpt lat="43.62411" lon="6.7744">
        <ele>384.9</ele>
        <time>2010-01-02T12:48:48Z</time>
      </trkpt>
      <trkpt lat="43.62415" lon="6.77424">
        <ele>385.4</ele>
        <time>2010-01-02T12:48:50Z</time>
      </trkpt>
      <trkpt lat="43.62419" lon="6.77409">
        <ele>385.6</ele>
        <time>2010-01-02T12:48:52Z</time>
      </trkpt>
      <trkpt lat="43.62423" lon="6.77396">
        <ele>385.9</ele>
        <time>2010-01-02T12:48:54Z</time>
      </trkpt>
      <trkpt lat="43.62428" lon="6.77384">
        <ele>386.2</ele>
        <time>2010-01-02T12:48:56Z</time>
      </trkpt>
      <trkpt lat="43.62433" lon="6.77372">
        <ele>386.5</ele>
        <time>2010-01-02T12:48:58Z</time>
      </trkpt>
      <trkpt lat="43.62438" lon="6.77361">
        <ele>386.7</ele>
        <time>2010-01-02T12:49:00Z</time>
      </trkpt>
      <trkpt lat="43.62443" lon="6.7735">
        <ele>386.6</ele>
        <time>2010-01-02T12:49:02Z</time>
      </trkpt>
      <trkpt lat="43.62448" lon="6.77338">
        <ele>386.5</ele>
        <time>2010-01-02T12:49:04Z</time>
      </trkpt>
      <trkpt lat="43.62453" lon="6.77327">
        <ele>386.3</ele>
        <time>2010-01-02T12:49:06Z</time>
      </trkpt>
      <trkpt lat="43.62458" lon="6.77316">
        <ele>386</ele>
        <time>2010-01-02T12:49:08Z</time>
      </trkpt>
      <trkpt lat="43.62464" lon="6.77303">
        <ele>385.7</ele>
        <time>2010-01-02T12:49:10Z</time>
      </trkpt>
      <trkpt lat="43.62469" lon="6.77291">
        <ele>385.4</ele>
        <time>2010-01-02T12:49:12Z</time>
      </trkpt>
      <trkpt lat="43.62474" lon="6.77278">
        <ele>385.2</ele>
        <time>2010-01-02T12:49:14Z</time>
      </trkpt>
      <trkpt lat="43.62478" lon="6.77264">
        <ele>385</ele>
        <time>2010-01-02T12:49:16Z</time>
      </trkpt>
      <trkpt lat="43.62482" lon="6.7725">
        <ele>384.8</ele>
        <time>2010-01-02T12:49:18Z</time>
      </trkpt>
      <trkpt lat="43.62486" lon="6.77236">
        <ele>384.8</ele>
        <time>2010-01-02T12:49:20Z</time>
      </trkpt>
      <trkpt lat="43.62491" lon="6.77222">
        <ele>384.3</ele>
        <time>2010-01-02T12:49:22Z</time>
      </trkpt>
      <trkpt lat="43.62496" lon="6.77208">
        <ele>383.7</ele>
        <time>2010-01-02T12:49:24Z</time>
      </trkpt>
      <trkpt lat="43.62504" lon="6.77194">
        <ele>383.1</ele>
        <time>2010-01-02T12:49:26Z</time>
      </trkpt>
      <trkpt lat="43.62513" lon="6.77181">
        <ele>382.4</ele>
        <time>2010-01-02T12:49:28Z</time>
      </trkpt>
      <trkpt lat="43.62522" lon="6.77167">
        <ele>381.6</ele>
        <time>2010-01-02T12:49:30Z</time>
      </trkpt>
      <trkpt lat="43.6253" lon="6.77151">
        <ele>381</ele>
        <time>2010-01-02T12:49:32Z</time>
      </trkpt>
      <trkpt lat="43.62536" lon="6.77133">
        <ele>380.8</ele>
        <time>2010-01-02T12:49:34Z</time>
      </trkpt>
      <trkpt lat="43.62541" lon="6.77115">
        <ele>380.6</ele>
        <time>2010-01-02T12:49:36Z</time>
      </trkpt>
      <trkpt lat="43.62544" lon="6.77097">
        <ele>380.6</ele>
        <time>2010-01-02T12:49:38Z</time>
      </trkpt>
      <trkpt lat="43.62547" lon="6.7708">
        <ele>380.6</ele>
        <time>2010-01-02T12:49:40Z</time>
      </trkpt>
      <trkpt lat="43.6255" lon="6.77063">
        <ele>380.6</ele>
        <time>2010-01-02T12:49:42Z</time>
      </trkpt>
      <trkpt lat="43.62554" lon="6.77046">
        <ele>380.6</ele>
        <time>2010-01-02T12:49:44Z</time>
      </trkpt>
      <trkpt lat="43.62558" lon="6.7703">
        <ele>380.6</ele>
        <time>2010-01-02T12:49:46Z</time>
      </trkpt>
      <trkpt lat="43.62562" lon="6.77014">
        <ele>380.8</ele>
        <time>2010-01-02T12:49:48Z</time>
      </trkpt>
      <trkpt lat="43.62567" lon="6.76999">
        <ele>381.1</ele>
        <time>2010-01-02T12:49:50Z</time>
      </trkpt>
      <trkpt lat="43.62572" lon="6.76985">
        <ele>381.7</ele>
        <time>2010-01-02T12:49:52Z</time>
      </trkpt>
      <trkpt lat="43.62577" lon="6.76973">
        <ele>382.3</ele>
        <time>2010-01-02T12:49:54Z</time>
      </trkpt>
      <trkpt lat="43.62583" lon="6.76957">
        <ele>383.6</ele>
        <time>2010-01-02T12:49:57Z</time>
      </trkpt>
      <trkpt lat="43.62589" lon="6.76943">
        <ele>384.7</ele>
        <time>2010-01-02T12:50:00Z</time>
      </trkpt>
      <trkpt lat="43.62594" lon="6.76931">
        <ele>386</ele>
        <time>2010-01-02T12:50:03Z</time>
      </trkpt>
      <trkpt lat="43.62599" lon="6.76919">
        <ele>386.9</ele>
        <time>2010-01-02T12:50:06Z</time>
      </trkpt>
      <trkpt lat="43.62604" lon="6.76907">
        <ele>387.5</ele>
        <time>2010-01-02T12:50:09Z</time>
      </trkpt>
      <trkpt lat="43.62609" lon="6.76893">
        <ele>388</ele>
        <time>2010-01-02T12:50:12Z</time>
      </trkpt>
      <trkpt lat="43.62613" lon="6.76877">
        <ele>388.5</ele>
        <time>2010-01-02T12:50:15Z</time>
      </trkpt>
      <trkpt lat="43.62616" lon="6.76865">
        <ele>388.7</ele>
        <time>2010-01-02T12:50:17Z</time>
      </trkpt>
      <trkpt lat="43.6262" lon="6.76852">
        <ele>388.8</ele>
        <time>2010-01-02T12:50:19Z</time>
      </trkpt>
      <trkpt lat="43.62624" lon="6.7684">
        <ele>388.9</ele>
        <time>2010-01-02T12:50:21Z</time>
      </trkpt>
      <trkpt lat="43.6263" lon="6.76829">
        <ele>389</ele>
        <time>2010-01-02T12:50:23Z</time>
      </trkpt>
      <trkpt lat="43.62636" lon="6.76819">
        <ele>389</ele>
        <time>2010-01-02T12:50:25Z</time>
      </trkpt>
      <trkpt lat="43.62646" lon="6.76808">
        <ele>389.1</ele>
        <time>2010-01-02T12:50:28Z</time>
      </trkpt>
      <trkpt lat="43.62658" lon="6.76803">
        <ele>389.3</ele>
        <time>2010-01-02T12:50:31Z</time>
      </trkpt>
      <trkpt lat="43.6267" lon="6.76802">
        <ele>390</ele>
        <time>2010-01-02T12:50:34Z</time>
      </trkpt>
      <trkpt lat="43.6268" lon="6.76797">
        <ele>390.5</ele>
        <time>2010-01-02T12:50:37Z</time>
      </trkpt>
      <trkpt lat="43.62688" lon="6.76787">
        <ele>391</ele>
        <time>2010-01-02T12:50:40Z</time>
      </trkpt>
      <trkpt lat="43.62696" lon="6.76776">
        <ele>391.8</ele>
        <time>2010-01-02T12:50:43Z</time>
      </trkpt>
      <trkpt lat="43.62704" lon="6.76765">
        <ele>392.5</ele>
        <time>2010-01-02T12:50:46Z</time>
      </trkpt>
      <trkpt lat="43.62712" lon="6.76756">
        <ele>393.4</ele>
        <time>2010-01-02T12:50:49Z</time>
      </trkpt>
      <trkpt lat="43.62719" lon="6.76746">
        <ele>394.2</ele>
        <time>2010-01-02T12:50:52Z</time>
      </trkpt>
      <trkpt lat="43.62725" lon="6.76735">
        <ele>394.7</ele>
        <time>2010-01-02T12:50:55Z</time>
      </trkpt>
      <trkpt lat="43.62732" lon="6.76725">
        <ele>395.1</ele>
        <time>2010-01-02T12:50:58Z</time>
      </trkpt>
      <trkpt lat="43.62738" lon="6.76713">
        <ele>395.4</ele>
        <time>2010-01-02T12:51:01Z</time>
      </trkpt>
      <trkpt lat="43.62745" lon="6.767">
        <ele>395.8</ele>
        <time>2010-01-02T12:51:04Z</time>
      </trkpt>
      <trkpt lat="43.62751" lon="6.76687">
        <ele>396</ele>
        <time>2010-01-02T12:51:07Z</time>
      </trkpt>
      <trkpt lat="43.62757" lon="6.76672">
        <ele>396.1</ele>
        <time>2010-01-02T12:51:10Z</time>
      </trkpt>
      <trkpt lat="43.62761" lon="6.76656">
        <ele>396.2</ele>
        <time>2010-01-02T12:51:13Z</time>
      </trkpt>
      <trkpt lat="43.62766" lon="6.7664">
        <ele>396.3</ele>
        <time>2010-01-02T12:51:16Z</time>
      </trkpt>
      <trkpt lat="43.6277" lon="6.76624">
        <ele>396.6</ele>
        <time>2010-01-02T12:51:19Z</time>
      </trkpt>
      <trkpt lat="43.62774" lon="6.76608">
        <ele>396.9</ele>
        <time>2010-01-02T12:51:22Z</time>
      </trkpt>
      <trkpt lat="43.62778" lon="6.76592">
        <ele>396.9</ele>
        <time>2010-01-02T12:51:25Z</time>
      </trkpt>
      <trkpt lat="43.62781" lon="6.76576">
        <ele>396.9</ele>
        <time>2010-01-02T12:51:28Z</time>
      </trkpt>
      <trkpt lat="43.62784" lon="6.7656">
        <ele>396.9</ele>
        <time>2010-01-02T12:51:31Z</time>
      </trkpt>
      <trkpt lat="43.62789" lon="6.76542">
        <ele>397</ele>
        <time>2010-01-02T12:51:34Z</time>
      </trkpt>
      <trkpt lat="43.62794" lon="6.76526">
        <ele>397.1</ele>
        <time>2010-01-02T12:51:37Z</time>
      </trkpt>
      <trkpt lat="43.62799" lon="6.76509">
        <ele>397.5</ele>
        <time>2010-01-02T12:51:40Z</time>
      </trkpt>
      <trkpt lat="43.62802" lon="6.76492">
        <ele>397.8</ele>
        <time>2010-01-02T12:51:43Z</time>
      </trkpt>
      <trkpt lat="43.62803" lon="6.7648">
        <ele>398</ele>
        <time>2010-01-02T12:51:45Z</time>
      </trkpt>
      <trkpt lat="43.62804" lon="6.76467">
        <ele>398</ele>
        <time>2010-01-02T12:51:47Z</time>
      </trkpt>
      <trkpt lat="43.62806" lon="6.76454">
        <ele>398</ele>
        <time>2010-01-02T12:51:49Z</time>
      </trkpt>
      <trkpt lat="43.62809" lon="6.76441">
        <ele>398.1</ele>
        <time>2010-01-02T12:51:51Z</time>
      </trkpt>
      <trkpt lat="43.62813" lon="6.7643">
        <ele>398.3</ele>
        <time>2010-01-02T12:51:53Z</time>
      </trkpt>
      <trkpt lat="43.62819" lon="6.76419">
        <ele>398.5</ele>
        <time>2010-01-02T12:51:55Z</time>
      </trkpt>
      <trkpt lat="43.62824" lon="6.76408">
        <ele>398.7</ele>
        <time>2010-01-02T12:51:57Z</time>
      </trkpt>
      <trkpt lat="43.62829" lon="6.76398">
        <ele>399</ele>
        <time>2010-01-02T12:51:59Z</time>
      </trkpt>
      <trkpt lat="43.62836" lon="6.76382">
        <ele>399.3</ele>
        <time>2010-01-02T12:52:02Z</time>
      </trkpt>
      <trkpt lat="43.62843" lon="6.76367">
        <ele>399.7</ele>
        <time>2010-01-02T12:52:05Z</time>
      </trkpt>
      <trkpt lat="43.62849" lon="6.76351">
        <ele>400.3</ele>
        <time>2010-01-02T12:52:08Z</time>
      </trkpt>
      <trkpt lat="43.62856" lon="6.76335">
        <ele>400.8</ele>
        <time>2010-01-02T12:52:11Z</time>
      </trkpt>
      <trkpt lat="43.6286" lon="6.76324">
        <ele>401.1</ele>
        <time>2010-01-02T12:52:13Z</time>
      </trkpt>
      <trkpt lat="43.62866" lon="6.76308">
        <ele>401.4</ele>
        <time>2010-01-02T12:52:16Z</time>
      </trkpt>
      <trkpt lat="43.62872" lon="6.76293">
        <ele>401.5</ele>
        <time>2010-01-02T12:52:19Z</time>
      </trkpt>
      <trkpt lat="43.62877" lon="6.76277">
        <ele>401.6</ele>
        <time>2010-01-02T12:52:22Z</time>
      </trkpt>
      <trkpt lat="43.62881" lon="6.76259">
        <ele>402</ele>
        <time>2010-01-02T12:52:25Z</time>
      </trkpt>
      <trkpt lat="43.62884" lon="6.76241">
        <ele>402.1</ele>
        <time>2010-01-02T12:52:28Z</time>
      </trkpt>
      <trkpt lat="43.62887" lon="6.76222">
        <ele>401.7</ele>
        <time>2010-01-02T12:52:31Z</time>
      </trkpt>
      <trkpt lat="43.6289" lon="6.76208">
        <ele>401</ele>
        <time>2010-01-02T12:52:33Z</time>
      </trkpt>
      <trkpt lat="43.62895" lon="6.76193">
        <ele>400.5</ele>
        <time>2010-01-02T12:52:35Z</time>
      </trkpt>
      <trkpt lat="43.62903" lon="6.7618">
        <ele>400.4</ele>
        <time>2010-01-02T12:52:37Z</time>
      </trkpt>
      <trkpt lat="43.62914" lon="6.76172">
        <ele>400.5</ele>
        <time>2010-01-02T12:52:39Z</time>
      </trkpt>
      <trkpt lat="43.62925" lon="6.76169">
        <ele>401.3</ele>
        <time>2010-01-02T12:52:41Z</time>
      </trkpt>
      <trkpt lat="43.62937" lon="6.76166">
        <ele>401.5</ele>
        <time>2010-01-02T12:52:43Z</time>
      </trkpt>
      <trkpt lat="43.62946" lon="6.76157">
        <ele>401.7</ele>
        <time>2010-01-02T12:52:45Z</time>
      </trkpt>
      <trkpt lat="43.62953" lon="6.76145">
        <ele>401.6</ele>
        <time>2010-01-02T12:52:47Z</time>
      </trkpt>
      <trkpt lat="43.62958" lon="6.76132">
        <ele>400.9</ele>
        <time>2010-01-02T12:52:49Z</time>
      </trkpt>
      <trkpt lat="43.62962" lon="6.76117">
        <ele>400.6</ele>
        <time>2010-01-02T12:52:51Z</time>
      </trkpt>
      <trkpt lat="43.62965" lon="6.76102">
        <ele>400.4</ele>
        <time>2010-01-02T12:52:53Z</time>
      </trkpt>
      <trkpt lat="43.62966" lon="6.76086">
        <ele>400.2</ele>
        <time>2010-01-02T12:52:55Z</time>
      </trkpt>
      <trkpt lat="43.62968" lon="6.76071">
        <ele>400</ele>
        <time>2010-01-02T12:52:57Z</time>
      </trkpt>
      <trkpt lat="43.62971" lon="6.76055">
        <ele>399.8</ele>
        <time>2010-01-02T12:52:59Z</time>
      </trkpt>
      <trkpt lat="43.62973" lon="6.7604">
        <ele>399.7</ele>
        <time>2010-01-02T12:53:01Z</time>
      </trkpt>
      <trkpt lat="43.62976" lon="6.76025">
        <ele>399.6</ele>
        <time>2010-01-02T12:53:03Z</time>
      </trkpt>
      <trkpt lat="43.62979" lon="6.7601">
        <ele>399.6</ele>
        <time>2010-01-02T12:53:05Z</time>
      </trkpt>
      <trkpt lat="43.62981" lon="6.75997">
        <ele>400.1</ele>
        <time>2010-01-02T12:53:07Z</time>
      </trkpt>
      <trkpt lat="43.62983" lon="6.75985">
        <ele>400.7</ele>
        <time>2010-01-02T12:53:09Z</time>
      </trkpt>
      <trkpt lat="43.62986" lon="6.75967">
        <ele>401</ele>
        <time>2010-01-02T12:53:12Z</time>
      </trkpt>
      <trkpt lat="43.62989" lon="6.75949">
        <ele>401</ele>
        <time>2010-01-02T12:53:15Z</time>
      </trkpt>
      <trkpt lat="43.62991" lon="6.75937">
        <ele>401</ele>
        <time>2010-01-02T12:53:17Z</time>
      </trkpt>
      <trkpt lat="43.62993" lon="6.75924">
        <ele>401.1</ele>
        <time>2010-01-02T12:53:19Z</time>
      </trkpt>
      <trkpt lat="43.62995" lon="6.75907">
        <ele>401.3</ele>
        <time>2010-01-02T12:53:22Z</time>
      </trkpt>
      <trkpt lat="43.62997" lon="6.75893">
        <ele>401.2</ele>
        <time>2010-01-02T12:53:25Z</time>
      </trkpt>
      <trkpt lat="43.62999" lon="6.75879">
        <ele>401.1</ele>
        <time>2010-01-02T12:53:29Z</time>
      </trkpt>
      <trkpt lat="43.62999" lon="6.75862">
        <ele>401.5</ele>
        <time>2010-01-02T12:53:33Z</time>
      </trkpt>
      <trkpt lat="43.63001" lon="6.75848">
        <ele>401.7</ele>
        <time>2010-01-02T12:53:36Z</time>
      </trkpt>
      <trkpt lat="43.63003" lon="6.75833">
        <ele>402.3</ele>
        <time>2010-01-02T12:53:39Z</time>
      </trkpt>
      <trkpt lat="43.63007" lon="6.75818">
        <ele>402.9</ele>
        <time>2010-01-02T12:53:42Z</time>
      </trkpt>
      <trkpt lat="43.63011" lon="6.75804">
        <ele>403.3</ele>
        <time>2010-01-02T12:53:45Z</time>
      </trkpt>
      <trkpt lat="43.63016" lon="6.75791">
        <ele>403.8</ele>
        <time>2010-01-02T12:53:48Z</time>
      </trkpt>
      <trkpt lat="43.63021" lon="6.75779">
        <ele>404.3</ele>
        <time>2010-01-02T12:53:51Z</time>
      </trkpt>
      <trkpt lat="43.63026" lon="6.75766">
        <ele>404.8</ele>
        <time>2010-01-02T12:53:54Z</time>
      </trkpt>
      <trkpt lat="43.6303" lon="6.75754">
        <ele>405.2</ele>
        <time>2010-01-02T12:53:57Z</time>
      </trkpt>
      <trkpt lat="43.63034" lon="6.75743">
        <ele>405.7</ele>
        <time>2010-01-02T12:54:00Z</time>
      </trkpt>
      <trkpt lat="43.63038" lon="6.75732">
        <ele>406.2</ele>
        <time>2010-01-02T12:54:03Z</time>
      </trkpt>
      <trkpt lat="43.63042" lon="6.75717">
        <ele>407.4</ele>
        <time>2010-01-02T12:54:07Z</time>
      </trkpt>
      <trkpt lat="43.63046" lon="6.75702">
        <ele>408.3</ele>
        <time>2010-01-02T12:54:11Z</time>
      </trkpt>
      <trkpt lat="43.6305" lon="6.75691">
        <ele>408.6</ele>
        <time>2010-01-02T12:54:14Z</time>
      </trkpt>
      <trkpt lat="43.63056" lon="6.7568">
        <ele>409.1</ele>
        <time>2010-01-02T12:54:17Z</time>
      </trkpt>
      <trkpt lat="43.63062" lon="6.75669">
        <ele>409.3</ele>
        <time>2010-01-02T12:54:20Z</time>
      </trkpt>
      <trkpt lat="43.63069" lon="6.75658">
        <ele>409.2</ele>
        <time>2010-01-02T12:54:23Z</time>
      </trkpt>
      <trkpt lat="43.63078" lon="6.75645">
        <ele>408.6</ele>
        <time>2010-01-02T12:54:26Z</time>
      </trkpt>
      <trkpt lat="43.63085" lon="6.75635">
        <ele>408.3</ele>
        <time>2010-01-02T12:54:28Z</time>
      </trkpt>
      <trkpt lat="43.63092" lon="6.75623">
        <ele>408</ele>
        <time>2010-01-02T12:54:30Z</time>
      </trkpt>
      <trkpt lat="43.631" lon="6.75613">
        <ele>407.7</ele>
        <time>2010-01-02T12:54:32Z</time>
      </trkpt>
      <trkpt lat="43.63109" lon="6.75604">
        <ele>407.7</ele>
        <time>2010-01-02T12:54:34Z</time>
      </trkpt>
      <trkpt lat="43.63118" lon="6.75597">
        <ele>407.9</ele>
        <time>2010-01-02T12:54:36Z</time>
      </trkpt>
      <trkpt lat="43.63128" lon="6.75591">
        <ele>408.3</ele>
        <time>2010-01-02T12:54:38Z</time>
      </trkpt>
      <trkpt lat="43.63138" lon="6.75586">
        <ele>408.7</ele>
        <time>2010-01-02T12:54:40Z</time>
      </trkpt>
      <trkpt lat="43.63147" lon="6.7558">
        <ele>409</ele>
        <time>2010-01-02T12:54:42Z</time>
      </trkpt>
      <trkpt lat="43.63156" lon="6.75573">
        <ele>409.3</ele>
        <time>2010-01-02T12:54:44Z</time>
      </trkpt>
      <trkpt lat="43.63163" lon="6.75564">
        <ele>409.7</ele>
        <time>2010-01-02T12:54:46Z</time>
      </trkpt>
      <trkpt lat="43.63167" lon="6.75553">
        <ele>409.9</ele>
        <time>2010-01-02T12:54:48Z</time>
      </trkpt>
      <trkpt lat="43.63169" lon="6.7554">
        <ele>409.5</ele>
        <time>2010-01-02T12:54:50Z</time>
      </trkpt>
      <trkpt lat="43.63169" lon="6.75526">
        <ele>409.4</ele>
        <time>2010-01-02T12:54:52Z</time>
      </trkpt>
      <trkpt lat="43.63169" lon="6.75512">
        <ele>409.5</ele>
        <time>2010-01-02T12:54:54Z</time>
      </trkpt>
      <trkpt lat="43.63172" lon="6.75497">
        <ele>408.9</ele>
        <time>2010-01-02T12:54:56Z</time>
      </trkpt>
      <trkpt lat="43.63179" lon="6.75482">
        <ele>408.5</ele>
        <time>2010-01-02T12:54:58Z</time>
      </trkpt>
      <trkpt lat="43.63186" lon="6.7547">
        <ele>408.5</ele>
        <time>2010-01-02T12:55:00Z</time>
      </trkpt>
      <trkpt lat="43.63197" lon="6.75457">
        <ele>408.1</ele>
        <time>2010-01-02T12:55:02Z</time>
      </trkpt>
      <trkpt lat="43.63208" lon="6.75444">
        <ele>407.7</ele>
        <time>2010-01-02T12:55:04Z</time>
      </trkpt>
      <trkpt lat="43.63217" lon="6.7543">
        <ele>407.7</ele>
        <time>2010-01-02T12:55:06Z</time>
      </trkpt>
      <trkpt lat="43.63226" lon="6.75416">
        <ele>407.9</ele>
        <time>2010-01-02T12:55:08Z</time>
      </trkpt>
      <trkpt lat="43.63233" lon="6.75401">
        <ele>407.2</ele>
        <time>2010-01-02T12:55:10Z</time>
      </trkpt>
      <trkpt lat="43.6324" lon="6.75386">
        <ele>406.5</ele>
        <time>2010-01-02T12:55:12Z</time>
      </trkpt>
      <trkpt lat="43.63247" lon="6.75371">
        <ele>405.7</ele>
        <time>2010-01-02T12:55:14Z</time>
      </trkpt>
      <trkpt lat="43.63253" lon="6.75356">
        <ele>405</ele>
        <time>2010-01-02T12:55:16Z</time>
      </trkpt>
      <trkpt lat="43.63258" lon="6.75342">
        <ele>404.9</ele>
        <time>2010-01-02T12:55:18Z</time>
      </trkpt>
      <trkpt lat="43.63263" lon="6.75328">
        <ele>404.7</ele>
        <time>2010-01-02T12:55:20Z</time>
      </trkpt>
      <trkpt lat="43.63267" lon="6.75314">
        <ele>404.7</ele>
        <time>2010-01-02T12:55:22Z</time>
      </trkpt>
      <trkpt lat="43.63272" lon="6.75301">
        <ele>404.2</ele>
        <time>2010-01-02T12:55:24Z</time>
      </trkpt>
      <trkpt lat="43.63278" lon="6.75288">
        <ele>404.4</ele>
        <time>2010-01-02T12:55:26Z</time>
      </trkpt>
      <trkpt lat="43.63286" lon="6.75275">
        <ele>404.6</ele>
        <time>2010-01-02T12:55:28Z</time>
      </trkpt>
      <trkpt lat="43.63297" lon="6.75261">
        <ele>403.9</ele>
        <time>2010-01-02T12:55:30Z</time>
      </trkpt>
      <trkpt lat="43.63307" lon="6.75246">
        <ele>402.9</ele>
        <time>2010-01-02T12:55:32Z</time>
      </trkpt>
      <trkpt lat="43.63318" lon="6.75231">
        <ele>402.1</ele>
        <time>2010-01-02T12:55:34Z</time>
      </trkpt>
      <trkpt lat="43.63329" lon="6.75216">
        <ele>401.4</ele>
        <time>2010-01-02T12:55:36Z</time>
      </trkpt>
      <trkpt lat="43.63338" lon="6.75202">
        <ele>400.8</ele>
        <time>2010-01-02T12:55:38Z</time>
      </trkpt>
      <trkpt lat="43.63348" lon="6.75188">
        <ele>400.2</ele>
        <time>2010-01-02T12:55:40Z</time>
      </trkpt>
      <trkpt lat="43.63356" lon="6.75174">
        <ele>399.7</ele>
        <time>2010-01-02T12:55:42Z</time>
      </trkpt>
      <trkpt lat="43.63362" lon="6.75159">
        <ele>399.5</ele>
        <time>2010-01-02T12:55:44Z</time>
      </trkpt>
      <trkpt lat="43.63369" lon="6.75143">
        <ele>399.3</ele>
        <time>2010-01-02T12:55:46Z</time>
      </trkpt>
      <trkpt lat="43.63374" lon="6.75125">
        <ele>398.5</ele>
        <time>2010-01-02T12:55:48Z</time>
      </trkpt>
      <trkpt lat="43.6338" lon="6.75107">
        <ele>397.9</ele>
        <time>2010-01-02T12:55:50Z</time>
      </trkpt>
      <trkpt lat="43.63386" lon="6.75089">
        <ele>397.2</ele>
        <time>2010-01-02T12:55:52Z</time>
      </trkpt>
      <trkpt lat="43.63392" lon="6.75072">
        <ele>396.3</ele>
        <time>2010-01-02T12:55:54Z</time>
      </trkpt>
      <trkpt lat="43.63399" lon="6.75053">
        <ele>395.3</ele>
        <time>2010-01-02T12:55:56Z</time>
      </trkpt>
      <trkpt lat="43.63405" lon="6.75034">
        <ele>394.3</ele>
        <time>2010-01-02T12:55:58Z</time>
      </trkpt>
      <trkpt lat="43.63411" lon="6.75015">
        <ele>393.6</ele>
        <time>2010-01-02T12:56:00Z</time>
      </trkpt>
      <trkpt lat="43.63417" lon="6.74996">
        <ele>392.8</ele>
        <time>2010-01-02T12:56:02Z</time>
      </trkpt>
      <trkpt lat="43.63423" lon="6.74978">
        <ele>392</ele>
        <time>2010-01-02T12:56:04Z</time>
      </trkpt>
      <trkpt lat="43.63428" lon="6.74961">
        <ele>391.4</ele>
        <time>2010-01-02T12:56:06Z</time>
      </trkpt>
      <trkpt lat="43.63434" lon="6.74943">
        <ele>391</ele>
        <time>2010-01-02T12:56:08Z</time>
      </trkpt>
      <trkpt lat="43.6344" lon="6.74927">
        <ele>390.3</ele>
        <time>2010-01-02T12:56:10Z</time>
      </trkpt>
      <trkpt lat="43.63445" lon="6.74914">
        <ele>390.1</ele>
        <time>2010-01-02T12:56:12Z</time>
      </trkpt>
      <trkpt lat="43.63446" lon="6.74899">
        <ele>389.6</ele>
        <time>2010-01-02T12:56:16Z</time>
      </trkpt>
      <trkpt lat="43.63436" lon="6.74892">
        <ele>389.2</ele>
        <time>2010-01-02T12:56:19Z</time>
      </trkpt>
      <trkpt lat="43.63426" lon="6.7489">
        <ele>389.6</ele>
        <time>2010-01-02T12:56:21Z</time>
      </trkpt>
      <trkpt lat="43.63416" lon="6.74889">
        <ele>390.1</ele>
        <time>2010-01-02T12:56:23Z</time>
      </trkpt>
      <trkpt lat="43.63407" lon="6.74887">
        <ele>390.9</ele>
        <time>2010-01-02T12:56:25Z</time>
      </trkpt>
      <trkpt lat="43.63397" lon="6.74886">
        <ele>391.4</ele>
        <time>2010-01-02T12:56:27Z</time>
      </trkpt>
      <trkpt lat="43.63388" lon="6.74887">
        <ele>392.4</ele>
        <time>2010-01-02T12:56:29Z</time>
      </trkpt>
      <trkpt lat="43.63374" lon="6.74887">
        <ele>393.2</ele>
        <time>2010-01-02T12:56:32Z</time>
      </trkpt>
      <trkpt lat="43.63361" lon="6.74887">
        <ele>394.1</ele>
        <time>2010-01-02T12:56:35Z</time>
      </trkpt>
      <trkpt lat="43.63347" lon="6.74887">
        <ele>394.6</ele>
        <time>2010-01-02T12:56:38Z</time>
      </trkpt>
      <trkpt lat="43.63338" lon="6.74889">
        <ele>394.7</ele>
        <time>2010-01-02T12:56:40Z</time>
      </trkpt>
      <trkpt lat="43.63329" lon="6.74893">
        <ele>394.9</ele>
        <time>2010-01-02T12:56:42Z</time>
      </trkpt>
      <trkpt lat="43.6332" lon="6.74897">
        <ele>394.8</ele>
        <time>2010-01-02T12:56:44Z</time>
      </trkpt>
      <trkpt lat="43.6331" lon="6.74901">
        <ele>394.8</ele>
        <time>2010-01-02T12:56:46Z</time>
      </trkpt>
      <trkpt lat="43.63301" lon="6.74904">
        <ele>394.6</ele>
        <time>2010-01-02T12:56:48Z</time>
      </trkpt>
      <trkpt lat="43.63292" lon="6.74907">
        <ele>394.5</ele>
        <time>2010-01-02T12:56:50Z</time>
      </trkpt>
      <trkpt lat="43.63283" lon="6.74909">
        <ele>394.5</ele>
        <time>2010-01-02T12:56:52Z</time>
      </trkpt>
      <trkpt lat="43.6327" lon="6.74911">
        <ele>394.4</ele>
        <time>2010-01-02T12:56:55Z</time>
      </trkpt>
      <trkpt lat="43.63257" lon="6.74913">
        <ele>394.5</ele>
        <time>2010-01-02T12:56:58Z</time>
      </trkpt>
      <trkpt lat="43.63245" lon="6.74914">
        <ele>395</ele>
        <time>2010-01-02T12:57:01Z</time>
      </trkpt>
      <trkpt lat="43.63233" lon="6.74915">
        <ele>395.6</ele>
        <time>2010-01-02T12:57:04Z</time>
      </trkpt>
      <trkpt lat="43.63221" lon="6.74917">
        <ele>396</ele>
        <time>2010-01-02T12:57:07Z</time>
      </trkpt>
      <trkpt lat="43.6321" lon="6.74918">
        <ele>396.5</ele>
        <time>2010-01-02T12:57:10Z</time>
      </trkpt>
      <trkpt lat="43.632" lon="6.74921">
        <ele>398.1</ele>
        <time>2010-01-02T12:57:13Z</time>
      </trkpt>
      <trkpt lat="43.63189" lon="6.74923">
        <ele>399.5</ele>
        <time>2010-01-02T12:57:16Z</time>
      </trkpt>
      <trkpt lat="43.63178" lon="6.74925">
        <ele>400.1</ele>
        <time>2010-01-02T12:57:19Z</time>
      </trkpt>
      <trkpt lat="43.63167" lon="6.74927">
        <ele>400.8</ele>
        <time>2010-01-02T12:57:22Z</time>
      </trkpt>
      <trkpt lat="43.63157" lon="6.74928">
        <ele>401</ele>
        <time>2010-01-02T12:57:25Z</time>
      </trkpt>
      <trkpt lat="43.63147" lon="6.7493">
        <ele>401.3</ele>
        <time>2010-01-02T12:57:28Z</time>
      </trkpt>
      <trkpt lat="43.63137" lon="6.74932">
        <ele>401.5</ele>
        <time>2010-01-02T12:57:31Z</time>
      </trkpt>
      <trkpt lat="43.63128" lon="6.74936">
        <ele>401.6</ele>
        <time>2010-01-02T12:57:34Z</time>
      </trkpt>
      <trkpt lat="43.63119" lon="6.7494">
        <ele>401.9</ele>
        <time>2010-01-02T12:57:37Z</time>
      </trkpt>
      <trkpt lat="43.63111" lon="6.74945">
        <ele>402.3</ele>
        <time>2010-01-02T12:57:40Z</time>
      </trkpt>
      <trkpt lat="43.63103" lon="6.74952">
        <ele>402.4</ele>
        <time>2010-01-02T12:57:43Z</time>
      </trkpt>
      <trkpt lat="43.63094" lon="6.74959">
        <ele>402.4</ele>
        <time>2010-01-02T12:57:46Z</time>
      </trkpt>
      <trkpt lat="43.63085" lon="6.74967">
        <ele>402.1</ele>
        <time>2010-01-02T12:57:49Z</time>
      </trkpt>
      <trkpt lat="43.63075" lon="6.74975">
        <ele>401.9</ele>
        <time>2010-01-02T12:57:52Z</time>
      </trkpt>
      <trkpt lat="43.63065" lon="6.74984">
        <ele>401.8</ele>
        <time>2010-01-02T12:57:55Z</time>
      </trkpt>
      <trkpt lat="43.63052" lon="6.74992">
        <ele>402.1</ele>
        <time>2010-01-02T12:57:58Z</time>
      </trkpt>
      <trkpt lat="43.63044" lon="6.74997">
        <ele>402.1</ele>
        <time>2010-01-02T12:58:00Z</time>
      </trkpt>
      <trkpt lat="43.63035" lon="6.75002">
        <ele>402.1</ele>
        <time>2010-01-02T12:58:02Z</time>
      </trkpt>
      <trkpt lat="43.63026" lon="6.75007">
        <ele>402.1</ele>
        <time>2010-01-02T12:58:04Z</time>
      </trkpt>
      <trkpt lat="43.63016" lon="6.75012">
        <ele>402.1</ele>
        <time>2010-01-02T12:58:06Z</time>
      </trkpt>
      <trkpt lat="43.63007" lon="6.75016">
        <ele>402.1</ele>
        <time>2010-01-02T12:58:08Z</time>
      </trkpt>
      <trkpt lat="43.62995" lon="6.75023">
        <ele>402.9</ele>
        <time>2010-01-02T12:58:11Z</time>
      </trkpt>
      <trkpt lat="43.62985" lon="6.75025">
        <ele>404</ele>
        <time>2010-01-02T12:58:14Z</time>
      </trkpt>
      <trkpt lat="43.62978" lon="6.75016">
        <ele>407.6</ele>
        <time>2010-01-02T12:58:18Z</time>
      </trkpt>
      <trkpt lat="43.62969" lon="6.75005">
        <ele>408</ele>
        <time>2010-01-02T12:58:22Z</time>
      </trkpt>
      <trkpt lat="43.6296" lon="6.74993">
        <ele>407.8</ele>
        <time>2010-01-02T12:58:25Z</time>
      </trkpt>
      <trkpt lat="43.62954" lon="6.74982">
        <ele>407.5</ele>
        <time>2010-01-02T12:58:27Z</time>
      </trkpt>
      <trkpt lat="43.62949" lon="6.74968">
        <ele>406.8</ele>
        <time>2010-01-02T12:58:29Z</time>
      </trkpt>
      <trkpt lat="43.62945" lon="6.74954">
        <ele>406.4</ele>
        <time>2010-01-02T12:58:31Z</time>
      </trkpt>
      <trkpt lat="43.62944" lon="6.74938">
        <ele>405.8</ele>
        <time>2010-01-02T12:58:33Z</time>
      </trkpt>
      <trkpt lat="43.62945" lon="6.74923">
        <ele>405.3</ele>
        <time>2010-01-02T12:58:35Z</time>
      </trkpt>
      <trkpt lat="43.62946" lon="6.74907">
        <ele>404.9</ele>
        <time>2010-01-02T12:58:37Z</time>
      </trkpt>
      <trkpt lat="43.62948" lon="6.74892">
        <ele>404.7</ele>
        <time>2010-01-02T12:58:39Z</time>
      </trkpt>
      <trkpt lat="43.6295" lon="6.74876">
        <ele>404.7</ele>
        <time>2010-01-02T12:58:41Z</time>
      </trkpt>
      <trkpt lat="43.62953" lon="6.74861">
        <ele>404.2</ele>
        <time>2010-01-02T12:58:43Z</time>
      </trkpt>
      <trkpt lat="43.62957" lon="6.74848">
        <ele>404.6</ele>
        <time>2010-01-02T12:58:45Z</time>
      </trkpt>
      <trkpt lat="43.62959" lon="6.74836">
        <ele>404.9</ele>
        <time>2010-01-02T12:58:47Z</time>
      </trkpt>
      <trkpt lat="43.62955" lon="6.74824">
        <ele>404.9</ele>
        <time>2010-01-02T12:58:49Z</time>
      </trkpt>
      <trkpt lat="43.62948" lon="6.74813">
        <ele>404.5</ele>
        <time>2010-01-02T12:58:51Z</time>
      </trkpt>
      <trkpt lat="43.62939" lon="6.74803">
        <ele>404.2</ele>
        <time>2010-01-02T12:58:53Z</time>
      </trkpt>
      <trkpt lat="43.62928" lon="6.74791">
        <ele>403.9</ele>
        <time>2010-01-02T12:58:55Z</time>
      </trkpt>
      <trkpt lat="43.62917" lon="6.74781">
        <ele>403.4</ele>
        <time>2010-01-02T12:58:57Z</time>
      </trkpt>
      <trkpt lat="43.62903" lon="6.74771">
        <ele>402.6</ele>
        <time>2010-01-02T12:58:59Z</time>
      </trkpt>
      <trkpt lat="43.62889" lon="6.74762">
        <ele>401.7</ele>
        <time>2010-01-02T12:59:01Z</time>
      </trkpt>
      <trkpt lat="43.62874" lon="6.7475">
        <ele>400.6</ele>
        <time>2010-01-02T12:59:03Z</time>
      </trkpt>
      <trkpt lat="43.62861" lon="6.74736">
        <ele>400.1</ele>
        <time>2010-01-02T12:59:05Z</time>
      </trkpt>
      <trkpt lat="43.62848" lon="6.74722">
        <ele>399.9</ele>
        <time>2010-01-02T12:59:07Z</time>
      </trkpt>
      <trkpt lat="43.62837" lon="6.74708">
        <ele>399.9</ele>
        <time>2010-01-02T12:59:09Z</time>
      </trkpt>
      <trkpt lat="43.62827" lon="6.74695">
        <ele>400.5</ele>
        <time>2010-01-02T12:59:11Z</time>
      </trkpt>
      <trkpt lat="43.62822" lon="6.74682">
        <ele>401.2</ele>
        <time>2010-01-02T12:59:13Z</time>
      </trkpt>
      <trkpt lat="43.62826" lon="6.74665">
        <ele>401.3</ele>
        <time>2010-01-02T12:59:16Z</time>
      </trkpt>
      <trkpt lat="43.62833" lon="6.74655">
        <ele>401.7</ele>
        <time>2010-01-02T12:59:18Z</time>
      </trkpt>
      <trkpt lat="43.62839" lon="6.74645">
        <ele>401.8</ele>
        <time>2010-01-02T12:59:20Z</time>
      </trkpt>
      <trkpt lat="43.62846" lon="6.74635">
        <ele>401.9</ele>
        <time>2010-01-02T12:59:22Z</time>
      </trkpt>
      <trkpt lat="43.62852" lon="6.7462">
        <ele>402.2</ele>
        <time>2010-01-02T12:59:25Z</time>
      </trkpt>
      <trkpt lat="43.62849" lon="6.74607">
        <ele>402.6</ele>
        <time>2010-01-02T12:59:28Z</time>
      </trkpt>
      <trkpt lat="43.6284" lon="6.74599">
        <ele>403.5</ele>
        <time>2010-01-02T12:59:32Z</time>
      </trkpt>
      <trkpt lat="43.6283" lon="6.74594">
        <ele>406.6</ele>
        <time>2010-01-02T12:59:52Z</time>
      </trkpt>
      <trkpt lat="43.62834" lon="6.74583">
        <ele>398.2</ele>
        <time>2010-01-02T13:13:29Z</time>
      </trkpt>
      <trkpt lat="43.62968" lon="6.74827">
        <ele>408</ele>
        <time>2010-01-02T13:16:20Z</time>
      </trkpt>
      <trkpt lat="43.62977" lon="6.74817">
        <ele>407.7</ele>
        <time>2010-01-02T13:16:23Z</time>
      </trkpt>
      <trkpt lat="43.62987" lon="6.74806">
        <ele>407.4</ele>
        <time>2010-01-02T13:16:26Z</time>
      </trkpt>
      <trkpt lat="43.62993" lon="6.74798">
        <ele>406.9</ele>
        <time>2010-01-02T13:16:28Z</time>
      </trkpt>
      <trkpt lat="43.63002" lon="6.74784">
        <ele>407</ele>
        <time>2010-01-02T13:16:31Z</time>
      </trkpt>
      <trkpt lat="43.63009" lon="6.74774">
        <ele>406.9</ele>
        <time>2010-01-02T13:16:33Z</time>
      </trkpt>
      <trkpt lat="43.63016" lon="6.74764">
        <ele>406.5</ele>
        <time>2010-01-02T13:16:35Z</time>
      </trkpt>
      <trkpt lat="43.63025" lon="6.74752">
        <ele>405.8</ele>
        <time>2010-01-02T13:16:37Z</time>
      </trkpt>
      <trkpt lat="43.63035" lon="6.7474">
        <ele>405.2</ele>
        <time>2010-01-02T13:16:39Z</time>
      </trkpt>
      <trkpt lat="43.63044" lon="6.74728">
        <ele>404.7</ele>
        <time>2010-01-02T13:16:41Z</time>
      </trkpt>
      <trkpt lat="43.63054" lon="6.74715">
        <ele>404.6</ele>
        <time>2010-01-02T13:16:43Z</time>
      </trkpt>
      <trkpt lat="43.63063" lon="6.74702">
        <ele>404.8</ele>
        <time>2010-01-02T13:16:45Z</time>
      </trkpt>
      <trkpt lat="43.63071" lon="6.74689">
        <ele>405</ele>
        <time>2010-01-02T13:16:47Z</time>
      </trkpt>
      <trkpt lat="43.63079" lon="6.74678">
        <ele>405.8</ele>
        <time>2010-01-02T13:16:49Z</time>
      </trkpt>
      <trkpt lat="43.63085" lon="6.74668">
        <ele>406.7</ele>
        <time>2010-01-02T13:16:51Z</time>
      </trkpt>
      <trkpt lat="43.63092" lon="6.74656">
        <ele>407.4</ele>
        <time>2010-01-02T13:16:54Z</time>
      </trkpt>
      <trkpt lat="43.63099" lon="6.74644">
        <ele>408.2</ele>
        <time>2010-01-02T13:16:57Z</time>
      </trkpt>
      <trkpt lat="43.63106" lon="6.74633">
        <ele>409.4</ele>
        <time>2010-01-02T13:17:00Z</time>
      </trkpt>
      <trkpt lat="43.63114" lon="6.74626">
        <ele>410.9</ele>
        <time>2010-01-02T13:17:03Z</time>
      </trkpt>
      <trkpt lat="43.63125" lon="6.74622">
        <ele>411.6</ele>
        <time>2010-01-02T13:17:06Z</time>
      </trkpt>
      <trkpt lat="43.63138" lon="6.74619">
        <ele>412.4</ele>
        <time>2010-01-02T13:17:09Z</time>
      </trkpt>
      <trkpt lat="43.63147" lon="6.74616">
        <ele>412.2</ele>
        <time>2010-01-02T13:17:11Z</time>
      </trkpt>
      <trkpt lat="43.63156" lon="6.74614">
        <ele>413</ele>
        <time>2010-01-02T13:17:13Z</time>
      </trkpt>
      <trkpt lat="43.63165" lon="6.74613">
        <ele>413.3</ele>
        <time>2010-01-02T13:17:15Z</time>
      </trkpt>
      <trkpt lat="43.63175" lon="6.74611">
        <ele>412.9</ele>
        <time>2010-01-02T13:17:17Z</time>
      </trkpt>
      <trkpt lat="43.63185" lon="6.74608">
        <ele>412.7</ele>
        <time>2010-01-02T13:17:19Z</time>
      </trkpt>
      <trkpt lat="43.63195" lon="6.74605">
        <ele>413.4</ele>
        <time>2010-01-02T13:17:21Z</time>
      </trkpt>
      <trkpt lat="43.63204" lon="6.74602">
        <ele>413.7</ele>
        <time>2010-01-02T13:17:23Z</time>
      </trkpt>
      <trkpt lat="43.63213" lon="6.74598">
        <ele>413.3</ele>
        <time>2010-01-02T13:17:25Z</time>
      </trkpt>
      <trkpt lat="43.63222" lon="6.74589">
        <ele>411.6</ele>
        <time>2010-01-02T13:17:27Z</time>
      </trkpt>
      <trkpt lat="43.6323" lon="6.7458">
        <ele>409.6</ele>
        <time>2010-01-02T13:17:29Z</time>
      </trkpt>
      <trkpt lat="43.63237" lon="6.74571">
        <ele>408</ele>
        <time>2010-01-02T13:17:32Z</time>
      </trkpt>
      <trkpt lat="43.63246" lon="6.74563">
        <ele>403</ele>
        <time>2010-01-02T13:18:10Z</time>
      </trkpt>
      <trkpt lat="43.63255" lon="6.74551">
        <ele>402.8</ele>
        <time>2010-01-02T13:18:14Z</time>
      </trkpt>
      <trkpt lat="43.63267" lon="6.74547">
        <ele>401.7</ele>
        <time>2010-01-02T13:18:17Z</time>
      </trkpt>
      <trkpt lat="43.63276" lon="6.74547">
        <ele>401</ele>
        <time>2010-01-02T13:18:19Z</time>
      </trkpt>
      <trkpt lat="43.63286" lon="6.74547">
        <ele>400.3</ele>
        <time>2010-01-02T13:18:21Z</time>
      </trkpt>
      <trkpt lat="43.63296" lon="6.74546">
        <ele>399.6</ele>
        <time>2010-01-02T13:18:23Z</time>
      </trkpt>
      <trkpt lat="43.63307" lon="6.74546">
        <ele>399</ele>
        <time>2010-01-02T13:18:25Z</time>
      </trkpt>
      <trkpt lat="43.63318" lon="6.74546">
        <ele>398.5</ele>
        <time>2010-01-02T13:18:27Z</time>
      </trkpt>
      <trkpt lat="43.63329" lon="6.74545">
        <ele>397.9</ele>
        <time>2010-01-02T13:18:29Z</time>
      </trkpt>
      <trkpt lat="43.63339" lon="6.74544">
        <ele>397.2</ele>
        <time>2010-01-02T13:18:31Z</time>
      </trkpt>
      <trkpt lat="43.63349" lon="6.74543">
        <ele>396.7</ele>
        <time>2010-01-02T13:18:33Z</time>
      </trkpt>
      <trkpt lat="43.63358" lon="6.74543">
        <ele>396.2</ele>
        <time>2010-01-02T13:18:35Z</time>
      </trkpt>
      <trkpt lat="43.63367" lon="6.74544">
        <ele>395.7</ele>
        <time>2010-01-02T13:18:37Z</time>
      </trkpt>
      <trkpt lat="43.63377" lon="6.74544">
        <ele>395.3</ele>
        <time>2010-01-02T13:18:39Z</time>
      </trkpt>
      <trkpt lat="43.63387" lon="6.74543">
        <ele>394.9</ele>
        <time>2010-01-02T13:18:42Z</time>
      </trkpt>
      <trkpt lat="43.63395" lon="6.74532">
        <ele>395.2</ele>
        <time>2010-01-02T13:18:47Z</time>
      </trkpt>
      <trkpt lat="43.63404" lon="6.74535">
        <ele>394.3</ele>
        <time>2010-01-02T13:18:51Z</time>
      </trkpt>
      <trkpt lat="43.63412" lon="6.74541">
        <ele>394</ele>
        <time>2010-01-02T13:18:54Z</time>
      </trkpt>
      <trkpt lat="43.6342" lon="6.74547">
        <ele>393.7</ele>
        <time>2010-01-02T13:18:57Z</time>
      </trkpt>
      <trkpt lat="43.63429" lon="6.74555">
        <ele>393.4</ele>
        <time>2010-01-02T13:19:01Z</time>
      </trkpt>
      <trkpt lat="43.63439" lon="6.74564">
        <ele>393.2</ele>
        <time>2010-01-02T13:19:05Z</time>
      </trkpt>
      <trkpt lat="43.63447" lon="6.74573">
        <ele>392.9</ele>
        <time>2010-01-02T13:19:08Z</time>
      </trkpt>
      <trkpt lat="43.63455" lon="6.74582">
        <ele>392.8</ele>
        <time>2010-01-02T13:19:11Z</time>
      </trkpt>
      <trkpt lat="43.63458" lon="6.74594">
        <ele>392.9</ele>
        <time>2010-01-02T13:19:15Z</time>
      </trkpt>
      <trkpt lat="43.63462" lon="6.74607">
        <ele>390.1</ele>
        <time>2010-01-02T13:19:51Z</time>
      </trkpt>
      <trkpt lat="43.63463" lon="6.7462">
        <ele>391.5</ele>
        <time>2010-01-02T13:19:56Z</time>
      </trkpt>
      <trkpt lat="43.63463" lon="6.74633">
        <ele>392.6</ele>
        <time>2010-01-02T13:20:01Z</time>
      </trkpt>
      <trkpt lat="43.63461" lon="6.74648">
        <ele>394.7</ele>
        <time>2010-01-02T13:20:06Z</time>
      </trkpt>
      <trkpt lat="43.63458" lon="6.74661">
        <ele>395.2</ele>
        <time>2010-01-02T13:20:10Z</time>
      </trkpt>
      <trkpt lat="43.63466" lon="6.74667">
        <ele>392.9</ele>
        <time>2010-01-02T13:20:19Z</time>
      </trkpt>
      <trkpt lat="43.63482" lon="6.74674">
        <ele>396</ele>
        <time>2010-01-02T13:20:44Z</time>
      </trkpt>
      <trkpt lat="43.63489" lon="6.74685">
        <ele>396</ele>
        <time>2010-01-02T13:20:50Z</time>
      </trkpt>
      <trkpt lat="43.63495" lon="6.74699">
        <ele>396.7</ele>
        <time>2010-01-02T13:20:54Z</time>
      </trkpt>
      <trkpt lat="43.635" lon="6.74712">
        <ele>396.8</ele>
        <time>2010-01-02T13:20:57Z</time>
      </trkpt>
      <trkpt lat="43.63505" lon="6.74723">
        <ele>396.6</ele>
        <time>2010-01-02T13:20:59Z</time>
      </trkpt>
      <trkpt lat="43.63512" lon="6.74736">
        <ele>395.1</ele>
        <time>2010-01-02T13:21:02Z</time>
      </trkpt>
      <trkpt lat="43.6352" lon="6.74747">
        <ele>394.6</ele>
        <time>2010-01-02T13:21:05Z</time>
      </trkpt>
      <trkpt lat="43.63528" lon="6.74757">
        <ele>393.3</ele>
        <time>2010-01-02T13:21:08Z</time>
      </trkpt>
      <trkpt lat="43.63537" lon="6.74771">
        <ele>391.5</ele>
        <time>2010-01-02T13:21:11Z</time>
      </trkpt>
      <trkpt lat="43.63544" lon="6.74779">
        <ele>391.1</ele>
        <time>2010-01-02T13:21:13Z</time>
      </trkpt>
      <trkpt lat="43.63554" lon="6.74786">
        <ele>391</ele>
        <time>2010-01-02T13:21:16Z</time>
      </trkpt>
      <trkpt lat="43.63564" lon="6.74789">
        <ele>389.7</ele>
        <time>2010-01-02T13:21:19Z</time>
      </trkpt>
      <trkpt lat="43.63576" lon="6.74793">
        <ele>389.7</ele>
        <time>2010-01-02T13:21:23Z</time>
      </trkpt>
      <trkpt lat="43.63586" lon="6.74796">
        <ele>390.8</ele>
        <time>2010-01-02T13:21:27Z</time>
      </trkpt>
      <trkpt lat="43.63597" lon="6.74799">
        <ele>390.6</ele>
        <time>2010-01-02T13:21:33Z</time>
      </trkpt>
      <trkpt lat="43.63605" lon="6.74805">
        <ele>391.6</ele>
        <time>2010-01-02T13:21:39Z</time>
      </trkpt>
      <trkpt lat="43.63615" lon="6.74805">
        <ele>392.5</ele>
        <time>2010-01-02T13:21:44Z</time>
      </trkpt>
      <trkpt lat="43.63625" lon="6.74803">
        <ele>394.1</ele>
        <time>2010-01-02T13:21:48Z</time>
      </trkpt>
      <trkpt lat="43.63636" lon="6.74801">
        <ele>396.6</ele>
        <time>2010-01-02T13:21:53Z</time>
      </trkpt>
      <trkpt lat="43.63646" lon="6.74798">
        <ele>397.2</ele>
        <time>2010-01-02T13:21:57Z</time>
      </trkpt>
      <trkpt lat="43.63658" lon="6.74795">
        <ele>396.4</ele>
        <time>2010-01-02T13:22:01Z</time>
      </trkpt>
      <trkpt lat="43.63668" lon="6.74793">
        <ele>396.5</ele>
        <time>2010-01-02T13:22:05Z</time>
      </trkpt>
      <trkpt lat="43.63679" lon="6.74791">
        <ele>396.6</ele>
        <time>2010-01-02T13:22:09Z</time>
      </trkpt>
      <trkpt lat="43.63691" lon="6.7479">
        <ele>395.4</ele>
        <time>2010-01-02T13:22:13Z</time>
      </trkpt>
      <trkpt lat="43.63702" lon="6.74791">
        <ele>394.6</ele>
        <time>2010-01-02T13:22:17Z</time>
      </trkpt>
      <trkpt lat="43.63712" lon="6.74792">
        <ele>394.5</ele>
        <time>2010-01-02T13:22:23Z</time>
      </trkpt>
      <trkpt lat="43.63721" lon="6.74792">
        <ele>392.6</ele>
        <time>2010-01-02T13:22:39Z</time>
      </trkpt>
      <trkpt lat="43.63732" lon="6.74791">
        <ele>392.9</ele>
        <time>2010-01-02T13:22:43Z</time>
      </trkpt>
      <trkpt lat="43.63742" lon="6.74789">
        <ele>393.4</ele>
        <time>2010-01-02T13:22:47Z</time>
      </trkpt>
      <trkpt lat="43.63752" lon="6.74786">
        <ele>394.6</ele>
        <time>2010-01-02T13:22:51Z</time>
      </trkpt>
      <trkpt lat="43.63763" lon="6.74785">
        <ele>395.7</ele>
        <time>2010-01-02T13:22:55Z</time>
      </trkpt>
      <trkpt lat="43.63775" lon="6.74783">
        <ele>396.3</ele>
        <time>2010-01-02T13:22:59Z</time>
      </trkpt>
      <trkpt lat="43.63786" lon="6.74779">
        <ele>397.1</ele>
        <time>2010-01-02T13:23:03Z</time>
      </trkpt>
      <trkpt lat="43.63798" lon="6.74776">
        <ele>397.8</ele>
        <time>2010-01-02T13:23:07Z</time>
      </trkpt>
      <trkpt lat="43.63807" lon="6.74773">
        <ele>397.8</ele>
        <time>2010-01-02T13:23:10Z</time>
      </trkpt>
      <trkpt lat="43.63815" lon="6.7477">
        <ele>398.3</ele>
        <time>2010-01-02T13:23:13Z</time>
      </trkpt>
      <trkpt lat="43.63824" lon="6.74765">
        <ele>399.1</ele>
        <time>2010-01-02T13:23:16Z</time>
      </trkpt>
      <trkpt lat="43.63833" lon="6.7476">
        <ele>400.3</ele>
        <time>2010-01-02T13:23:19Z</time>
      </trkpt>
      <trkpt lat="43.63846" lon="6.74757">
        <ele>400.3</ele>
        <time>2010-01-02T13:23:22Z</time>
      </trkpt>
      <trkpt lat="43.63856" lon="6.74755">
        <ele>401</ele>
        <time>2010-01-02T13:23:24Z</time>
      </trkpt>
      <trkpt lat="43.63866" lon="6.74752">
        <ele>401.3</ele>
        <time>2010-01-02T13:23:26Z</time>
      </trkpt>
      <trkpt lat="43.63877" lon="6.74749">
        <ele>401.5</ele>
        <time>2010-01-02T13:23:28Z</time>
      </trkpt>
      <trkpt lat="43.63888" lon="6.74745">
        <ele>401.4</ele>
        <time>2010-01-02T13:23:30Z</time>
      </trkpt>
      <trkpt lat="43.63901" lon="6.74742">
        <ele>400.9</ele>
        <time>2010-01-02T13:23:32Z</time>
      </trkpt>
      <trkpt lat="43.63916" lon="6.74737">
        <ele>399.6</ele>
        <time>2010-01-02T13:23:34Z</time>
      </trkpt>
      <trkpt lat="43.6393" lon="6.74733">
        <ele>398.9</ele>
        <time>2010-01-02T13:23:36Z</time>
      </trkpt>
      <trkpt lat="43.63945" lon="6.74728">
        <ele>397.9</ele>
        <time>2010-01-02T13:23:38Z</time>
      </trkpt>
      <trkpt lat="43.63961" lon="6.74723">
        <ele>396.6</ele>
        <time>2010-01-02T13:23:40Z</time>
      </trkpt>
      <trkpt lat="43.63976" lon="6.74718">
        <ele>395.1</ele>
        <time>2010-01-02T13:23:42Z</time>
      </trkpt>
      <trkpt lat="43.63986" lon="6.74715">
        <ele>394.6</ele>
        <time>2010-01-02T13:23:43Z</time>
      </trkpt>
      <trkpt lat="43.63996" lon="6.74715">
        <ele>393.8</ele>
        <time>2010-01-02T13:23:44Z</time>
      </trkpt>
      <trkpt lat="43.64012" lon="6.7471">
        <ele>393</ele>
        <time>2010-01-02T13:23:46Z</time>
      </trkpt>
      <trkpt lat="43.64028" lon="6.74705">
        <ele>392.3</ele>
        <time>2010-01-02T13:23:48Z</time>
      </trkpt>
      <trkpt lat="43.64042" lon="6.74698">
        <ele>392</ele>
        <time>2010-01-02T13:23:50Z</time>
      </trkpt>
      <trkpt lat="43.64054" lon="6.74689">
        <ele>391.9</ele>
        <time>2010-01-02T13:23:52Z</time>
      </trkpt>
      <trkpt lat="43.64063" lon="6.74681">
        <ele>392.4</ele>
        <time>2010-01-02T13:23:54Z</time>
      </trkpt>
      <trkpt lat="43.64073" lon="6.74671">
        <ele>393.5</ele>
        <time>2010-01-02T13:23:57Z</time>
      </trkpt>
      <trkpt lat="43.64081" lon="6.74663">
        <ele>394.7</ele>
        <time>2010-01-02T13:24:00Z</time>
      </trkpt>
      <trkpt lat="43.64089" lon="6.74655">
        <ele>395.4</ele>
        <time>2010-01-02T13:24:03Z</time>
      </trkpt>
      <trkpt lat="43.64096" lon="6.74648">
        <ele>395.7</ele>
        <time>2010-01-02T13:24:06Z</time>
      </trkpt>
      <trkpt lat="43.64105" lon="6.74639">
        <ele>397.1</ele>
        <time>2010-01-02T13:24:10Z</time>
      </trkpt>
      <trkpt lat="43.64115" lon="6.7463">
        <ele>398.4</ele>
        <time>2010-01-02T13:24:14Z</time>
      </trkpt>
      <trkpt lat="43.64126" lon="6.74622">
        <ele>399.7</ele>
        <time>2010-01-02T13:24:18Z</time>
      </trkpt>
      <trkpt lat="43.64136" lon="6.74616">
        <ele>400.7</ele>
        <time>2010-01-02T13:24:22Z</time>
      </trkpt>
      <trkpt lat="43.64147" lon="6.74611">
        <ele>401.9</ele>
        <time>2010-01-02T13:24:26Z</time>
      </trkpt>
      <trkpt lat="43.64157" lon="6.74606">
        <ele>402.9</ele>
        <time>2010-01-02T13:24:30Z</time>
      </trkpt>
      <trkpt lat="43.64166" lon="6.74601">
        <ele>403.3</ele>
        <time>2010-01-02T13:24:34Z</time>
      </trkpt>
      <trkpt lat="43.64175" lon="6.74597">
        <ele>403.5</ele>
        <time>2010-01-02T13:24:38Z</time>
      </trkpt>
      <trkpt lat="43.64182" lon="6.74589">
        <ele>403.8</ele>
        <time>2010-01-02T13:24:45Z</time>
      </trkpt>
      <trkpt lat="43.6419" lon="6.74597">
        <ele>400.8</ele>
        <time>2010-01-02T13:25:53Z</time>
      </trkpt>
      <trkpt lat="43.64191" lon="6.74584">
        <ele>393.7</ele>
        <time>2010-01-02T13:28:17Z</time>
      </trkpt>
      <trkpt lat="43.64197" lon="6.74574">
        <ele>393.9</ele>
        <time>2010-01-02T13:28:21Z</time>
      </trkpt>
      <trkpt lat="43.64206" lon="6.74565">
        <ele>395.3</ele>
        <time>2010-01-02T13:28:25Z</time>
      </trkpt>
      <trkpt lat="43.64213" lon="6.74554">
        <ele>395.7</ele>
        <time>2010-01-02T13:28:29Z</time>
      </trkpt>
      <trkpt lat="43.6422" lon="6.74546">
        <ele>396.9</ele>
        <time>2010-01-02T13:28:32Z</time>
      </trkpt>
      <trkpt lat="43.64229" lon="6.74537">
        <ele>396.8</ele>
        <time>2010-01-02T13:28:35Z</time>
      </trkpt>
      <trkpt lat="43.64238" lon="6.7453">
        <ele>397.3</ele>
        <time>2010-01-02T13:28:38Z</time>
      </trkpt>
      <trkpt lat="43.64246" lon="6.74523">
        <ele>397.4</ele>
        <time>2010-01-02T13:28:41Z</time>
      </trkpt>
      <trkpt lat="43.64256" lon="6.74528">
        <ele>397.7</ele>
        <time>2010-01-02T13:28:44Z</time>
      </trkpt>
      <trkpt lat="43.64263" lon="6.74543">
        <ele>397.8</ele>
        <time>2010-01-02T13:28:47Z</time>
      </trkpt>
      <trkpt lat="43.64268" lon="6.74554">
        <ele>397.8</ele>
        <time>2010-01-02T13:28:49Z</time>
      </trkpt>
      <trkpt lat="43.64273" lon="6.74566">
        <ele>397.9</ele>
        <time>2010-01-02T13:28:51Z</time>
      </trkpt>
      <trkpt lat="43.64278" lon="6.74577">
        <ele>398.2</ele>
        <time>2010-01-02T13:28:53Z</time>
      </trkpt>
      <trkpt lat="43.64285" lon="6.74592">
        <ele>399.4</ele>
        <time>2010-01-02T13:28:56Z</time>
      </trkpt>
      <trkpt lat="43.64291" lon="6.74607">
        <ele>400.2</ele>
        <time>2010-01-02T13:28:59Z</time>
      </trkpt>
      <trkpt lat="43.64295" lon="6.74618">
        <ele>401</ele>
        <time>2010-01-02T13:29:01Z</time>
      </trkpt>
      <trkpt lat="43.643" lon="6.7463">
        <ele>401.7</ele>
        <time>2010-01-02T13:29:03Z</time>
      </trkpt>
      <trkpt lat="43.64306" lon="6.7464">
        <ele>402.8</ele>
        <time>2010-01-02T13:29:05Z</time>
      </trkpt>
      <trkpt lat="43.64311" lon="6.74651">
        <ele>403.7</ele>
        <time>2010-01-02T13:29:07Z</time>
      </trkpt>
      <trkpt lat="43.64316" lon="6.74662">
        <ele>404.8</ele>
        <time>2010-01-02T13:29:09Z</time>
      </trkpt>
      <trkpt lat="43.64324" lon="6.74678">
        <ele>406.2</ele>
        <time>2010-01-02T13:29:12Z</time>
      </trkpt>
      <trkpt lat="43.6433" lon="6.74693">
        <ele>406.2</ele>
        <time>2010-01-02T13:29:14Z</time>
      </trkpt>
      <trkpt lat="43.64338" lon="6.74708">
        <ele>405.2</ele>
        <time>2010-01-02T13:29:16Z</time>
      </trkpt>
      <trkpt lat="43.64344" lon="6.74721">
        <ele>404.8</ele>
        <time>2010-01-02T13:29:18Z</time>
      </trkpt>
      <trkpt lat="43.64351" lon="6.74732">
        <ele>404.6</ele>
        <time>2010-01-02T13:29:20Z</time>
      </trkpt>
      <trkpt lat="43.64357" lon="6.74743">
        <ele>404.4</ele>
        <time>2010-01-02T13:29:22Z</time>
      </trkpt>
      <trkpt lat="43.64363" lon="6.74754">
        <ele>404.5</ele>
        <time>2010-01-02T13:29:24Z</time>
      </trkpt>
      <trkpt lat="43.64369" lon="6.74764">
        <ele>404.7</ele>
        <time>2010-01-02T13:29:26Z</time>
      </trkpt>
      <trkpt lat="43.64375" lon="6.74775">
        <ele>404.8</ele>
        <time>2010-01-02T13:29:28Z</time>
      </trkpt>
      <trkpt lat="43.6438" lon="6.74785">
        <ele>404.7</ele>
        <time>2010-01-02T13:29:30Z</time>
      </trkpt>
      <trkpt lat="43.64386" lon="6.74796">
        <ele>405</ele>
        <time>2010-01-02T13:29:32Z</time>
      </trkpt>
      <trkpt lat="43.64392" lon="6.74806">
        <ele>405</ele>
        <time>2010-01-02T13:29:34Z</time>
      </trkpt>
      <trkpt lat="43.64398" lon="6.74816">
        <ele>404.8</ele>
        <time>2010-01-02T13:29:36Z</time>
      </trkpt>
      <trkpt lat="43.64408" lon="6.74828">
        <ele>404.6</ele>
        <time>2010-01-02T13:29:39Z</time>
      </trkpt>
      <trkpt lat="43.64414" lon="6.74843">
        <ele>404.3</ele>
        <time>2010-01-02T13:29:42Z</time>
      </trkpt>
      <trkpt lat="43.64418" lon="6.74855">
        <ele>403.9</ele>
        <time>2010-01-02T13:29:44Z</time>
      </trkpt>
      <trkpt lat="43.64417" lon="6.74868">
        <ele>403</ele>
        <time>2010-01-02T13:29:46Z</time>
      </trkpt>
      <trkpt lat="43.6441" lon="6.74878">
        <ele>402</ele>
        <time>2010-01-02T13:29:48Z</time>
      </trkpt>
      <trkpt lat="43.644" lon="6.74885">
        <ele>401.4</ele>
        <time>2010-01-02T13:29:50Z</time>
      </trkpt>
      <trkpt lat="43.64389" lon="6.74889">
        <ele>401</ele>
        <time>2010-01-02T13:29:52Z</time>
      </trkpt>
      <trkpt lat="43.64379" lon="6.74895">
        <ele>400.9</ele>
        <time>2010-01-02T13:29:54Z</time>
      </trkpt>
      <trkpt lat="43.64375" lon="6.74907">
        <ele>400.2</ele>
        <time>2010-01-02T13:29:56Z</time>
      </trkpt>
      <trkpt lat="43.64372" lon="6.74921">
        <ele>400.1</ele>
        <time>2010-01-02T13:29:58Z</time>
      </trkpt>
      <trkpt lat="43.64369" lon="6.74936">
        <ele>399.7</ele>
        <time>2010-01-02T13:30:00Z</time>
      </trkpt>
      <trkpt lat="43.64366" lon="6.74951">
        <ele>399.3</ele>
        <time>2010-01-02T13:30:02Z</time>
      </trkpt>
      <trkpt lat="43.64363" lon="6.74966">
        <ele>399.2</ele>
        <time>2010-01-02T13:30:04Z</time>
      </trkpt>
      <trkpt lat="43.6436" lon="6.74979">
        <ele>399.2</ele>
        <time>2010-01-02T13:30:06Z</time>
      </trkpt>
      <trkpt lat="43.64356" lon="6.7499">
        <ele>399.4</ele>
        <time>2010-01-02T13:30:08Z</time>
      </trkpt>
      <trkpt lat="43.64349" lon="6.74999">
        <ele>399.4</ele>
        <time>2010-01-02T13:30:10Z</time>
      </trkpt>
      <trkpt lat="43.64341" lon="6.75007">
        <ele>399.7</ele>
        <time>2010-01-02T13:30:12Z</time>
      </trkpt>
      <trkpt lat="43.64332" lon="6.75014">
        <ele>400.1</ele>
        <time>2010-01-02T13:30:14Z</time>
      </trkpt>
      <trkpt lat="43.64324" lon="6.7502">
        <ele>401.1</ele>
        <time>2010-01-02T13:30:16Z</time>
      </trkpt>
      <trkpt lat="43.64315" lon="6.75026">
        <ele>401.9</ele>
        <time>2010-01-02T13:30:18Z</time>
      </trkpt>
      <trkpt lat="43.64304" lon="6.75033">
        <ele>403.6</ele>
        <time>2010-01-02T13:30:21Z</time>
      </trkpt>
      <trkpt lat="43.64294" lon="6.75037">
        <ele>404.5</ele>
        <time>2010-01-02T13:30:24Z</time>
      </trkpt>
      <trkpt lat="43.64283" lon="6.75041">
        <ele>406.7</ele>
        <time>2010-01-02T13:30:27Z</time>
      </trkpt>
      <trkpt lat="43.64272" lon="6.75048">
        <ele>405.4</ele>
        <time>2010-01-02T13:30:30Z</time>
      </trkpt>
      <trkpt lat="43.64265" lon="6.7506">
        <ele>401.6</ele>
        <time>2010-01-02T13:30:33Z</time>
      </trkpt>
      <trkpt lat="43.6426" lon="6.75072">
        <ele>400.5</ele>
        <time>2010-01-02T13:30:35Z</time>
      </trkpt>
      <trkpt lat="43.64257" lon="6.75086">
        <ele>398.9</ele>
        <time>2010-01-02T13:30:37Z</time>
      </trkpt>
      <trkpt lat="43.64254" lon="6.75103">
        <ele>397.5</ele>
        <time>2010-01-02T13:30:40Z</time>
      </trkpt>
      <trkpt lat="43.64249" lon="6.75118">
        <ele>397.2</ele>
        <time>2010-01-02T13:30:43Z</time>
      </trkpt>
      <trkpt lat="43.64246" lon="6.75132">
        <ele>397</ele>
        <time>2010-01-02T13:30:46Z</time>
      </trkpt>
      <trkpt lat="43.64243" lon="6.75144">
        <ele>396.9</ele>
        <time>2010-01-02T13:30:49Z</time>
      </trkpt>
      <trkpt lat="43.64238" lon="6.75158">
        <ele>397.3</ele>
        <time>2010-01-02T13:30:52Z</time>
      </trkpt>
      <trkpt lat="43.64232" lon="6.75168">
        <ele>397.7</ele>
        <time>2010-01-02T13:30:55Z</time>
      </trkpt>
      <trkpt lat="43.64228" lon="6.75182">
        <ele>398.7</ele>
        <time>2010-01-02T13:30:59Z</time>
      </trkpt>
      <trkpt lat="43.64223" lon="6.75196">
        <ele>399.3</ele>
        <time>2010-01-02T13:31:03Z</time>
      </trkpt>
      <trkpt lat="43.64216" lon="6.75205">
        <ele>399.7</ele>
        <time>2010-01-02T13:31:08Z</time>
      </trkpt>
      <trkpt lat="43.64207" lon="6.75208">
        <ele>401</ele>
        <time>2010-01-02T13:31:13Z</time>
      </trkpt>
      <trkpt lat="43.64198" lon="6.75217">
        <ele>401.4</ele>
        <time>2010-01-02T13:31:18Z</time>
      </trkpt>
      <trkpt lat="43.64199" lon="6.75231">
        <ele>401.9</ele>
        <time>2010-01-02T13:31:24Z</time>
      </trkpt>
      <trkpt lat="43.64204" lon="6.75245">
        <ele>403.8</ele>
        <time>2010-01-02T13:31:29Z</time>
      </trkpt>
      <trkpt lat="43.64208" lon="6.75257">
        <ele>404.6</ele>
        <time>2010-01-02T13:31:33Z</time>
      </trkpt>
      <trkpt lat="43.64212" lon="6.75269">
        <ele>405.2</ele>
        <time>2010-01-02T13:31:37Z</time>
      </trkpt>
      <trkpt lat="43.64216" lon="6.75283">
        <ele>406</ele>
        <time>2010-01-02T13:31:41Z</time>
      </trkpt>
      <trkpt lat="43.6422" lon="6.75296">
        <ele>405.6</ele>
        <time>2010-01-02T13:31:44Z</time>
      </trkpt>
      <trkpt lat="43.64225" lon="6.75311">
        <ele>404.5</ele>
        <time>2010-01-02T13:31:47Z</time>
      </trkpt>
      <trkpt lat="43.6423" lon="6.75322">
        <ele>403.9</ele>
        <time>2010-01-02T13:31:49Z</time>
      </trkpt>
      <trkpt lat="43.64235" lon="6.75335">
        <ele>403.4</ele>
        <time>2010-01-02T13:31:51Z</time>
      </trkpt>
      <trkpt lat="43.64241" lon="6.75349">
        <ele>402.9</ele>
        <time>2010-01-02T13:31:53Z</time>
      </trkpt>
      <trkpt lat="43.64247" lon="6.75364">
        <ele>402.6</ele>
        <time>2010-01-02T13:31:55Z</time>
      </trkpt>
      <trkpt lat="43.64252" lon="6.75377">
        <ele>402.3</ele>
        <time>2010-01-02T13:31:57Z</time>
      </trkpt>
      <trkpt lat="43.64258" lon="6.7539">
        <ele>401.8</ele>
        <time>2010-01-02T13:31:59Z</time>
      </trkpt>
      <trkpt lat="43.64264" lon="6.75403">
        <ele>401.3</ele>
        <time>2010-01-02T13:32:01Z</time>
      </trkpt>
      <trkpt lat="43.6427" lon="6.75415">
        <ele>401</ele>
        <time>2010-01-02T13:32:03Z</time>
      </trkpt>
      <trkpt lat="43.64277" lon="6.75424">
        <ele>400.2</ele>
        <time>2010-01-02T13:32:05Z</time>
      </trkpt>
      <trkpt lat="43.64286" lon="6.75428">
        <ele>399.7</ele>
        <time>2010-01-02T13:32:07Z</time>
      </trkpt>
      <trkpt lat="43.64296" lon="6.75429">
        <ele>399.6</ele>
        <time>2010-01-02T13:32:09Z</time>
      </trkpt>
      <trkpt lat="43.64309" lon="6.75429">
        <ele>399.5</ele>
        <time>2010-01-02T13:32:12Z</time>
      </trkpt>
      <trkpt lat="43.64322" lon="6.75433">
        <ele>399.8</ele>
        <time>2010-01-02T13:32:15Z</time>
      </trkpt>
      <trkpt lat="43.6433" lon="6.75438">
        <ele>400.2</ele>
        <time>2010-01-02T13:32:17Z</time>
      </trkpt>
      <trkpt lat="43.64338" lon="6.75446">
        <ele>400.5</ele>
        <time>2010-01-02T13:32:19Z</time>
      </trkpt>
      <trkpt lat="43.64348" lon="6.75458">
        <ele>401.4</ele>
        <time>2010-01-02T13:32:22Z</time>
      </trkpt>
      <trkpt lat="43.64356" lon="6.75467">
        <ele>401.8</ele>
        <time>2010-01-02T13:32:25Z</time>
      </trkpt>
      <trkpt lat="43.64364" lon="6.75478">
        <ele>402.3</ele>
        <time>2010-01-02T13:32:28Z</time>
      </trkpt>
      <trkpt lat="43.64371" lon="6.75491">
        <ele>402.1</ele>
        <time>2010-01-02T13:32:31Z</time>
      </trkpt>
      <trkpt lat="43.64378" lon="6.75502">
        <ele>402.9</ele>
        <time>2010-01-02T13:32:34Z</time>
      </trkpt>
      <trkpt lat="43.64383" lon="6.75513">
        <ele>403.8</ele>
        <time>2010-01-02T13:32:37Z</time>
      </trkpt>
      <trkpt lat="43.64387" lon="6.75527">
        <ele>405.4</ele>
        <time>2010-01-02T13:32:41Z</time>
      </trkpt>
      <trkpt lat="43.6439" lon="6.75541">
        <ele>405.8</ele>
        <time>2010-01-02T13:32:45Z</time>
      </trkpt>
      <trkpt lat="43.64392" lon="6.75554">
        <ele>405.6</ele>
        <time>2010-01-02T13:32:49Z</time>
      </trkpt>
      <trkpt lat="43.64397" lon="6.75571">
        <ele>405.7</ele>
        <time>2010-01-02T13:32:53Z</time>
      </trkpt>
      <trkpt lat="43.64402" lon="6.75587">
        <ele>404.5</ele>
        <time>2010-01-02T13:32:56Z</time>
      </trkpt>
      <trkpt lat="43.64407" lon="6.756">
        <ele>403.9</ele>
        <time>2010-01-02T13:32:58Z</time>
      </trkpt>
      <trkpt lat="43.64411" lon="6.75612">
        <ele>403.4</ele>
        <time>2010-01-02T13:33:00Z</time>
      </trkpt>
      <trkpt lat="43.64415" lon="6.75624">
        <ele>403.3</ele>
        <time>2010-01-02T13:33:02Z</time>
      </trkpt>
      <trkpt lat="43.64419" lon="6.75636">
        <ele>403.2</ele>
        <time>2010-01-02T13:33:04Z</time>
      </trkpt>
      <trkpt lat="43.64425" lon="6.75647">
        <ele>403.7</ele>
        <time>2010-01-02T13:33:06Z</time>
      </trkpt>
      <trkpt lat="43.64432" lon="6.75661">
        <ele>404.3</ele>
        <time>2010-01-02T13:33:09Z</time>
      </trkpt>
      <trkpt lat="43.64436" lon="6.75675">
        <ele>404.5</ele>
        <time>2010-01-02T13:33:12Z</time>
      </trkpt>
      <trkpt lat="43.64439" lon="6.7569">
        <ele>403.9</ele>
        <time>2010-01-02T13:33:15Z</time>
      </trkpt>
      <trkpt lat="43.64437" lon="6.75707">
        <ele>403.4</ele>
        <time>2010-01-02T13:33:18Z</time>
      </trkpt>
      <trkpt lat="43.64437" lon="6.7572">
        <ele>402.7</ele>
        <time>2010-01-02T13:33:20Z</time>
      </trkpt>
      <trkpt lat="43.64435" lon="6.75733">
        <ele>402.3</ele>
        <time>2010-01-02T13:33:22Z</time>
      </trkpt>
      <trkpt lat="43.64433" lon="6.75747">
        <ele>402</ele>
        <time>2010-01-02T13:33:24Z</time>
      </trkpt>
      <trkpt lat="43.6443" lon="6.75761">
        <ele>401</ele>
        <time>2010-01-02T13:33:26Z</time>
      </trkpt>
      <trkpt lat="43.64428" lon="6.75774">
        <ele>400.2</ele>
        <time>2010-01-02T13:33:28Z</time>
      </trkpt>
      <trkpt lat="43.64424" lon="6.75787">
        <ele>400</ele>
        <time>2010-01-02T13:33:31Z</time>
      </trkpt>
      <trkpt lat="43.64414" lon="6.75793">
        <ele>399.8</ele>
        <time>2010-01-02T13:33:34Z</time>
      </trkpt>
      <trkpt lat="43.64409" lon="6.75804">
        <ele>401.3</ele>
        <time>2010-01-02T13:33:40Z</time>
      </trkpt>
      <trkpt lat="43.64408" lon="6.75821">
        <ele>402.8</ele>
        <time>2010-01-02T13:33:56Z</time>
      </trkpt>
      <trkpt lat="43.64407" lon="6.75836">
        <ele>402.9</ele>
        <time>2010-01-02T13:34:02Z</time>
      </trkpt>
      <trkpt lat="43.64409" lon="6.75851">
        <ele>403</ele>
        <time>2010-01-02T13:34:07Z</time>
      </trkpt>
      <trkpt lat="43.64413" lon="6.75864">
        <ele>403.2</ele>
        <time>2010-01-02T13:34:11Z</time>
      </trkpt>
      <trkpt lat="43.64419" lon="6.75877">
        <ele>403.2</ele>
        <time>2010-01-02T13:34:15Z</time>
      </trkpt>
      <trkpt lat="43.64425" lon="6.7589">
        <ele>404.3</ele>
        <time>2010-01-02T13:34:19Z</time>
      </trkpt>
      <trkpt lat="43.64433" lon="6.75895">
        <ele>405.7</ele>
        <time>2010-01-02T13:34:23Z</time>
      </trkpt>
      <trkpt lat="43.64443" lon="6.75896">
        <ele>406.2</ele>
        <time>2010-01-02T13:34:27Z</time>
      </trkpt>
      <trkpt lat="43.64453" lon="6.75897">
        <ele>406</ele>
        <time>2010-01-02T13:34:31Z</time>
      </trkpt>
      <trkpt lat="43.64463" lon="6.75899">
        <ele>405.7</ele>
        <time>2010-01-02T13:34:35Z</time>
      </trkpt>
      <trkpt lat="43.64473" lon="6.75898">
        <ele>405.4</ele>
        <time>2010-01-02T13:34:39Z</time>
      </trkpt>
      <trkpt lat="43.64483" lon="6.75901">
        <ele>405.4</ele>
        <time>2010-01-02T13:34:43Z</time>
      </trkpt>
      <trkpt lat="43.64491" lon="6.75905">
        <ele>405.8</ele>
        <time>2010-01-02T13:34:47Z</time>
      </trkpt>
      <trkpt lat="43.64495" lon="6.75918">
        <ele>406.2</ele>
        <time>2010-01-02T13:34:52Z</time>
      </trkpt>
      <trkpt lat="43.64499" lon="6.75931">
        <ele>406</ele>
        <time>2010-01-02T13:34:58Z</time>
      </trkpt>
      <trkpt lat="43.6451" lon="6.75931">
        <ele>407.1</ele>
        <time>2010-01-02T13:35:18Z</time>
      </trkpt>
      <trkpt lat="43.64516" lon="6.75942">
        <ele>406.9</ele>
        <time>2010-01-02T13:35:27Z</time>
      </trkpt>
      <trkpt lat="43.64524" lon="6.7595">
        <ele>406.7</ele>
        <time>2010-01-02T13:35:35Z</time>
      </trkpt>
      <trkpt lat="43.64531" lon="6.75958">
        <ele>407.7</ele>
        <time>2010-01-02T13:35:45Z</time>
      </trkpt>
      <trkpt lat="43.6453" lon="6.75972">
        <ele>407.8</ele>
        <time>2010-01-02T13:35:51Z</time>
      </trkpt>
      <trkpt lat="43.64523" lon="6.75985">
        <ele>407.1</ele>
        <time>2010-01-02T13:35:56Z</time>
      </trkpt>
      <trkpt lat="43.64521" lon="6.75997">
        <ele>407</ele>
        <time>2010-01-02T13:36:01Z</time>
      </trkpt>
      <trkpt lat="43.6453" lon="6.76002">
        <ele>407.7</ele>
        <time>2010-01-02T13:36:06Z</time>
      </trkpt>
      <trkpt lat="43.6454" lon="6.76004">
        <ele>408.1</ele>
        <time>2010-01-02T13:36:11Z</time>
      </trkpt>
      <trkpt lat="43.64549" lon="6.76008">
        <ele>408.3</ele>
        <time>2010-01-02T13:36:15Z</time>
      </trkpt>
      <trkpt lat="43.64557" lon="6.76014">
        <ele>408.7</ele>
        <time>2010-01-02T13:36:19Z</time>
      </trkpt>
      <trkpt lat="43.64566" lon="6.76018">
        <ele>409.3</ele>
        <time>2010-01-02T13:36:24Z</time>
      </trkpt>
      <trkpt lat="43.64576" lon="6.76021">
        <ele>409.7</ele>
        <time>2010-01-02T13:36:29Z</time>
      </trkpt>
      <trkpt lat="43.64586" lon="6.76023">
        <ele>410.3</ele>
        <time>2010-01-02T13:36:34Z</time>
      </trkpt>
      <trkpt lat="43.64595" lon="6.76031">
        <ele>410.9</ele>
        <time>2010-01-02T13:36:39Z</time>
      </trkpt>
      <trkpt lat="43.646" lon="6.76042">
        <ele>411.8</ele>
        <time>2010-01-02T13:36:44Z</time>
      </trkpt>
      <trkpt lat="43.64609" lon="6.76047">
        <ele>413.2</ele>
        <time>2010-01-02T13:36:49Z</time>
      </trkpt>
      <trkpt lat="43.64619" lon="6.76052">
        <ele>416.8</ele>
        <time>2010-01-02T13:37:15Z</time>
      </trkpt>
      <trkpt lat="43.64627" lon="6.76057">
        <ele>417.8</ele>
        <time>2010-01-02T13:37:20Z</time>
      </trkpt>
      <trkpt lat="43.64635" lon="6.76062">
        <ele>418</ele>
        <time>2010-01-02T13:37:26Z</time>
      </trkpt>
      <trkpt lat="43.64645" lon="6.76069">
        <ele>417.3</ele>
        <time>2010-01-02T13:37:41Z</time>
      </trkpt>
      <trkpt lat="43.64653" lon="6.76078">
        <ele>419.5</ele>
        <time>2010-01-02T13:37:46Z</time>
      </trkpt>
      <trkpt lat="43.64661" lon="6.76086">
        <ele>421</ele>
        <time>2010-01-02T13:37:51Z</time>
      </trkpt>
      <trkpt lat="43.64667" lon="6.76097">
        <ele>423.1</ele>
        <time>2010-01-02T13:37:56Z</time>
      </trkpt>
      <trkpt lat="43.64672" lon="6.76109">
        <ele>424.7</ele>
        <time>2010-01-02T13:38:00Z</time>
      </trkpt>
      <trkpt lat="43.64673" lon="6.76122">
        <ele>426.6</ele>
        <time>2010-01-02T13:38:04Z</time>
      </trkpt>
      <trkpt lat="43.64672" lon="6.76137">
        <ele>427.8</ele>
        <time>2010-01-02T13:38:08Z</time>
      </trkpt>
      <trkpt lat="43.64671" lon="6.76153">
        <ele>428.5</ele>
        <time>2010-01-02T13:38:12Z</time>
      </trkpt>
      <trkpt lat="43.64673" lon="6.76169">
        <ele>429.5</ele>
        <time>2010-01-02T13:38:16Z</time>
      </trkpt>
      <trkpt lat="43.64675" lon="6.76183">
        <ele>430.6</ele>
        <time>2010-01-02T13:38:20Z</time>
      </trkpt>
      <trkpt lat="43.6468" lon="6.76198">
        <ele>431.7</ele>
        <time>2010-01-02T13:38:24Z</time>
      </trkpt>
      <trkpt lat="43.64686" lon="6.7621">
        <ele>432.4</ele>
        <time>2010-01-02T13:38:28Z</time>
      </trkpt>
      <trkpt lat="43.64693" lon="6.76218">
        <ele>433.2</ele>
        <time>2010-01-02T13:38:32Z</time>
      </trkpt>
      <trkpt lat="43.64701" lon="6.76226">
        <ele>433</ele>
        <time>2010-01-02T13:38:36Z</time>
      </trkpt>
      <trkpt lat="43.64709" lon="6.76233">
        <ele>434</ele>
        <time>2010-01-02T13:38:41Z</time>
      </trkpt>
      <trkpt lat="43.64717" lon="6.7624">
        <ele>434.9</ele>
        <time>2010-01-02T13:38:46Z</time>
      </trkpt>
      <trkpt lat="43.64725" lon="6.76249">
        <ele>436.3</ele>
        <time>2010-01-02T13:38:52Z</time>
      </trkpt>
      <trkpt lat="43.6473" lon="6.7626">
        <ele>437</ele>
        <time>2010-01-02T13:38:58Z</time>
      </trkpt>
      <trkpt lat="43.6473" lon="6.76275">
        <ele>437.5</ele>
        <time>2010-01-02T13:39:04Z</time>
      </trkpt>
      <trkpt lat="43.6473" lon="6.76287">
        <ele>437</ele>
        <time>2010-01-02T13:39:09Z</time>
      </trkpt>
      <trkpt lat="43.6473" lon="6.763">
        <ele>436.3</ele>
        <time>2010-01-02T13:39:14Z</time>
      </trkpt>
      <trkpt lat="43.64731" lon="6.76314">
        <ele>437.4</ele>
        <time>2010-01-02T13:39:19Z</time>
      </trkpt>
      <trkpt lat="43.64729" lon="6.76328">
        <ele>442.3</ele>
        <time>2010-01-02T13:39:26Z</time>
      </trkpt>
      <trkpt lat="43.64728" lon="6.76343">
        <ele>443</ele>
        <time>2010-01-02T13:39:31Z</time>
      </trkpt>
      <trkpt lat="43.64724" lon="6.76356">
        <ele>444.5</ele>
        <time>2010-01-02T13:39:36Z</time>
      </trkpt>
      <trkpt lat="43.6472" lon="6.7637">
        <ele>444.6</ele>
        <time>2010-01-02T13:39:41Z</time>
      </trkpt>
      <trkpt lat="43.64715" lon="6.76382">
        <ele>443.6</ele>
        <time>2010-01-02T13:39:46Z</time>
      </trkpt>
      <trkpt lat="43.6471" lon="6.76393">
        <ele>443.2</ele>
        <time>2010-01-02T13:39:50Z</time>
      </trkpt>
      <trkpt lat="43.64706" lon="6.76405">
        <ele>442.1</ele>
        <time>2010-01-02T13:39:54Z</time>
      </trkpt>
      <trkpt lat="43.64702" lon="6.76419">
        <ele>442</ele>
        <time>2010-01-02T13:39:59Z</time>
      </trkpt>
      <trkpt lat="43.64703" lon="6.76435">
        <ele>441.9</ele>
        <time>2010-01-02T13:40:04Z</time>
      </trkpt>
      <trkpt lat="43.64702" lon="6.76449">
        <ele>442.2</ele>
        <time>2010-01-02T13:40:09Z</time>
      </trkpt>
      <trkpt lat="43.64703" lon="6.76463">
        <ele>442.6</ele>
        <time>2010-01-02T13:40:14Z</time>
      </trkpt>
      <trkpt lat="43.64702" lon="6.76477">
        <ele>442.9</ele>
        <time>2010-01-02T13:40:19Z</time>
      </trkpt>
      <trkpt lat="43.647" lon="6.76489">
        <ele>442.4</ele>
        <time>2010-01-02T13:40:23Z</time>
      </trkpt>
      <trkpt lat="43.64697" lon="6.76503">
        <ele>442.8</ele>
        <time>2010-01-02T13:40:28Z</time>
      </trkpt>
      <trkpt lat="43.64691" lon="6.76516">
        <ele>444.1</ele>
        <time>2010-01-02T13:40:33Z</time>
      </trkpt>
      <trkpt lat="43.64688" lon="6.76528">
        <ele>444.7</ele>
        <time>2010-01-02T13:40:37Z</time>
      </trkpt>
      <trkpt lat="43.64685" lon="6.76542">
        <ele>445</ele>
        <time>2010-01-02T13:40:41Z</time>
      </trkpt>
      <trkpt lat="43.64682" lon="6.76556">
        <ele>447.2</ele>
        <time>2010-01-02T13:40:46Z</time>
      </trkpt>
      <trkpt lat="43.6468" lon="6.76569">
        <ele>448.1</ele>
        <time>2010-01-02T13:40:50Z</time>
      </trkpt>
      <trkpt lat="43.64679" lon="6.76584">
        <ele>448.6</ele>
        <time>2010-01-02T13:40:54Z</time>
      </trkpt>
      <trkpt lat="43.64677" lon="6.76596">
        <ele>449.8</ele>
        <time>2010-01-02T13:40:58Z</time>
      </trkpt>
      <trkpt lat="43.64675" lon="6.76612">
        <ele>451.1</ele>
        <time>2010-01-02T13:41:02Z</time>
      </trkpt>
      <trkpt lat="43.64672" lon="6.76627">
        <ele>452.9</ele>
        <time>2010-01-02T13:41:06Z</time>
      </trkpt>
      <trkpt lat="43.64671" lon="6.76643">
        <ele>454</ele>
        <time>2010-01-02T13:41:10Z</time>
      </trkpt>
      <trkpt lat="43.64674" lon="6.76658">
        <ele>454.3</ele>
        <time>2010-01-02T13:41:13Z</time>
      </trkpt>
      <trkpt lat="43.64682" lon="6.7667">
        <ele>454</ele>
        <time>2010-01-02T13:41:16Z</time>
      </trkpt>
      <trkpt lat="43.64691" lon="6.7668">
        <ele>453.7</ele>
        <time>2010-01-02T13:41:19Z</time>
      </trkpt>
      <trkpt lat="43.64701" lon="6.76688">
        <ele>453.2</ele>
        <time>2010-01-02T13:41:22Z</time>
      </trkpt>
      <trkpt lat="43.64713" lon="6.76697">
        <ele>453.2</ele>
        <time>2010-01-02T13:41:25Z</time>
      </trkpt>
      <trkpt lat="43.64721" lon="6.76705">
        <ele>452.5</ele>
        <time>2010-01-02T13:41:27Z</time>
      </trkpt>
      <trkpt lat="43.64732" lon="6.76713">
        <ele>452.3</ele>
        <time>2010-01-02T13:41:30Z</time>
      </trkpt>
      <trkpt lat="43.64741" lon="6.76719">
        <ele>453.1</ele>
        <time>2010-01-02T13:41:33Z</time>
      </trkpt>
      <trkpt lat="43.64751" lon="6.76722">
        <ele>455</ele>
        <time>2010-01-02T13:41:37Z</time>
      </trkpt>
      <trkpt lat="43.64761" lon="6.76726">
        <ele>455.2</ele>
        <time>2010-01-02T13:41:41Z</time>
      </trkpt>
      <trkpt lat="43.64767" lon="6.76736">
        <ele>457.7</ele>
        <time>2010-01-02T13:41:46Z</time>
      </trkpt>
      <trkpt lat="43.64769" lon="6.7675">
        <ele>459.4</ele>
        <time>2010-01-02T13:41:51Z</time>
      </trkpt>
      <trkpt lat="43.64769" lon="6.76763">
        <ele>463.3</ele>
        <time>2010-01-02T13:41:57Z</time>
      </trkpt>
      <trkpt lat="43.64771" lon="6.76777">
        <ele>465.2</ele>
        <time>2010-01-02T13:42:03Z</time>
      </trkpt>
      <trkpt lat="43.64776" lon="6.7679">
        <ele>467.2</ele>
        <time>2010-01-02T13:42:09Z</time>
      </trkpt>
      <trkpt lat="43.64781" lon="6.76802">
        <ele>468.4</ele>
        <time>2010-01-02T13:42:15Z</time>
      </trkpt>
      <trkpt lat="43.64785" lon="6.76814">
        <ele>469.6</ele>
        <time>2010-01-02T13:42:20Z</time>
      </trkpt>
      <trkpt lat="43.64787" lon="6.76827">
        <ele>470.4</ele>
        <time>2010-01-02T13:42:25Z</time>
      </trkpt>
      <trkpt lat="43.64791" lon="6.7684">
        <ele>469.7</ele>
        <time>2010-01-02T13:42:29Z</time>
      </trkpt>
      <trkpt lat="43.64795" lon="6.76852">
        <ele>470.3</ele>
        <time>2010-01-02T13:42:34Z</time>
      </trkpt>
      <trkpt lat="43.64801" lon="6.76862">
        <ele>472.3</ele>
        <time>2010-01-02T13:42:39Z</time>
      </trkpt>
      <trkpt lat="43.64807" lon="6.76873">
        <ele>474.2</ele>
        <time>2010-01-02T13:42:44Z</time>
      </trkpt>
      <trkpt lat="43.64813" lon="6.76884">
        <ele>473.5</ele>
        <time>2010-01-02T13:42:49Z</time>
      </trkpt>
      <trkpt lat="43.64822" lon="6.76892">
        <ele>472.6</ele>
        <time>2010-01-02T13:42:54Z</time>
      </trkpt>
      <trkpt lat="43.64831" lon="6.7689">
        <ele>473</ele>
        <time>2010-01-02T13:43:00Z</time>
      </trkpt>
      <trkpt lat="43.6484" lon="6.76884">
        <ele>474.1</ele>
        <time>2010-01-02T13:43:06Z</time>
      </trkpt>
      <trkpt lat="43.64848" lon="6.76877">
        <ele>476.1</ele>
        <time>2010-01-02T13:43:12Z</time>
      </trkpt>
      <trkpt lat="43.64858" lon="6.76874">
        <ele>476.1</ele>
        <time>2010-01-02T13:43:18Z</time>
      </trkpt>
      <trkpt lat="43.64868" lon="6.76871">
        <ele>476.3</ele>
        <time>2010-01-02T13:43:24Z</time>
      </trkpt>
      <trkpt lat="43.64877" lon="6.76865">
        <ele>478.8</ele>
        <time>2010-01-02T13:43:31Z</time>
      </trkpt>
      <trkpt lat="43.64886" lon="6.76859">
        <ele>480.6</ele>
        <time>2010-01-02T13:43:37Z</time>
      </trkpt>
      <trkpt lat="43.64894" lon="6.76853">
        <ele>482.9</ele>
        <time>2010-01-02T13:43:43Z</time>
      </trkpt>
      <trkpt lat="43.64903" lon="6.76846">
        <ele>484.1</ele>
        <time>2010-01-02T13:43:49Z</time>
      </trkpt>
      <trkpt lat="43.64911" lon="6.76837">
        <ele>485.9</ele>
        <time>2010-01-02T13:43:55Z</time>
      </trkpt>
      <trkpt lat="43.6492" lon="6.76832">
        <ele>485.3</ele>
        <time>2010-01-02T13:44:00Z</time>
      </trkpt>
      <trkpt lat="43.6493" lon="6.76825">
        <ele>486</ele>
        <time>2010-01-02T13:44:06Z</time>
      </trkpt>
      <trkpt lat="43.64938" lon="6.76818">
        <ele>486.9</ele>
        <time>2010-01-02T13:44:12Z</time>
      </trkpt>
      <trkpt lat="43.64947" lon="6.76811">
        <ele>487.4</ele>
        <time>2010-01-02T13:44:18Z</time>
      </trkpt>
      <trkpt lat="43.64956" lon="6.76803">
        <ele>488.5</ele>
        <time>2010-01-02T13:44:24Z</time>
      </trkpt>
      <trkpt lat="43.64966" lon="6.76797">
        <ele>490.3</ele>
        <time>2010-01-02T13:44:30Z</time>
      </trkpt>
      <trkpt lat="43.64975" lon="6.76792">
        <ele>491.6</ele>
        <time>2010-01-02T13:44:36Z</time>
      </trkpt>
      <trkpt lat="43.64984" lon="6.76788">
        <ele>492.6</ele>
        <time>2010-01-02T13:44:41Z</time>
      </trkpt>
      <trkpt lat="43.64993" lon="6.76784">
        <ele>493.9</ele>
        <time>2010-01-02T13:44:47Z</time>
      </trkpt>
      <trkpt lat="43.65001" lon="6.76779">
        <ele>494.7</ele>
        <time>2010-01-02T13:44:53Z</time>
      </trkpt>
      <trkpt lat="43.6501" lon="6.76773">
        <ele>496.3</ele>
        <time>2010-01-02T13:44:59Z</time>
      </trkpt>
      <trkpt lat="43.65018" lon="6.76766">
        <ele>497</ele>
        <time>2010-01-02T13:45:05Z</time>
      </trkpt>
      <trkpt lat="43.65027" lon="6.76759">
        <ele>497.4</ele>
        <time>2010-01-02T13:45:12Z</time>
      </trkpt>
      <trkpt lat="43.65027" lon="6.76744">
        <ele>496.7</ele>
        <time>2010-01-02T13:45:19Z</time>
      </trkpt>
      <trkpt lat="43.65025" lon="6.7673">
        <ele>497.1</ele>
        <time>2010-01-02T13:45:26Z</time>
      </trkpt>
      <trkpt lat="43.65024" lon="6.76716">
        <ele>499</ele>
        <time>2010-01-02T13:45:33Z</time>
      </trkpt>
      <trkpt lat="43.65021" lon="6.76703">
        <ele>500.4</ele>
        <time>2010-01-02T13:45:39Z</time>
      </trkpt>
      <trkpt lat="43.65015" lon="6.76693">
        <ele>501.9</ele>
        <time>2010-01-02T13:45:45Z</time>
      </trkpt>
      <trkpt lat="43.65007" lon="6.76687">
        <ele>504.1</ele>
        <time>2010-01-02T13:45:50Z</time>
      </trkpt>
      <trkpt lat="43.64998" lon="6.76681">
        <ele>505.6</ele>
        <time>2010-01-02T13:45:55Z</time>
      </trkpt>
      <trkpt lat="43.64989" lon="6.76675">
        <ele>506.6</ele>
        <time>2010-01-02T13:45:59Z</time>
      </trkpt>
      <trkpt lat="43.64979" lon="6.76666">
        <ele>506.9</ele>
        <time>2010-01-02T13:46:03Z</time>
      </trkpt>
      <trkpt lat="43.64972" lon="6.76655">
        <ele>506.9</ele>
        <time>2010-01-02T13:46:08Z</time>
      </trkpt>
      <trkpt lat="43.64965" lon="6.76643">
        <ele>506.5</ele>
        <time>2010-01-02T13:46:12Z</time>
      </trkpt>
      <trkpt lat="43.6496" lon="6.7663">
        <ele>505.5</ele>
        <time>2010-01-02T13:46:15Z</time>
      </trkpt>
      <trkpt lat="43.64957" lon="6.76613">
        <ele>503.5</ele>
        <time>2010-01-02T13:46:18Z</time>
      </trkpt>
      <trkpt lat="43.64956" lon="6.76598">
        <ele>503.3</ele>
        <time>2010-01-02T13:46:21Z</time>
      </trkpt>
      <trkpt lat="43.64962" lon="6.76584">
        <ele>501.7</ele>
        <time>2010-01-02T13:46:25Z</time>
      </trkpt>
      <trkpt lat="43.64973" lon="6.76582">
        <ele>501.7</ele>
        <time>2010-01-02T13:46:30Z</time>
      </trkpt>
      <trkpt lat="43.64982" lon="6.76583">
        <ele>502.2</ele>
        <time>2010-01-02T13:46:35Z</time>
      </trkpt>
      <trkpt lat="43.64992" lon="6.76585">
        <ele>502.5</ele>
        <time>2010-01-02T13:46:40Z</time>
      </trkpt>
      <trkpt lat="43.65002" lon="6.76583">
        <ele>503.8</ele>
        <time>2010-01-02T13:46:46Z</time>
      </trkpt>
      <trkpt lat="43.65011" lon="6.76576">
        <ele>505</ele>
        <time>2010-01-02T13:46:51Z</time>
      </trkpt>
      <trkpt lat="43.6502" lon="6.76569">
        <ele>506.3</ele>
        <time>2010-01-02T13:46:56Z</time>
      </trkpt>
      <trkpt lat="43.6503" lon="6.76562">
        <ele>506.7</ele>
        <time>2010-01-02T13:47:01Z</time>
      </trkpt>
      <trkpt lat="43.65038" lon="6.76556">
        <ele>507.1</ele>
        <time>2010-01-02T13:47:05Z</time>
      </trkpt>
      <trkpt lat="43.65047" lon="6.76551">
        <ele>507.8</ele>
        <time>2010-01-02T13:47:09Z</time>
      </trkpt>
      <trkpt lat="43.65055" lon="6.76545">
        <ele>509</ele>
        <time>2010-01-02T13:47:13Z</time>
      </trkpt>
      <trkpt lat="43.65064" lon="6.7654">
        <ele>510.1</ele>
        <time>2010-01-02T13:47:17Z</time>
      </trkpt>
      <trkpt lat="43.65073" lon="6.76542">
        <ele>511</ele>
        <time>2010-01-02T13:47:21Z</time>
      </trkpt>
      <trkpt lat="43.65084" lon="6.76543">
        <ele>511.5</ele>
        <time>2010-01-02T13:47:26Z</time>
      </trkpt>
      <trkpt lat="43.65093" lon="6.76538">
        <ele>512.3</ele>
        <time>2010-01-02T13:47:30Z</time>
      </trkpt>
      <trkpt lat="43.65103" lon="6.76532">
        <ele>513.6</ele>
        <time>2010-01-02T13:47:35Z</time>
      </trkpt>
      <trkpt lat="43.65113" lon="6.76527">
        <ele>514.7</ele>
        <time>2010-01-02T13:47:40Z</time>
      </trkpt>
      <trkpt lat="43.65123" lon="6.76521">
        <ele>515.8</ele>
        <time>2010-01-02T13:47:45Z</time>
      </trkpt>
      <trkpt lat="43.65131" lon="6.76516">
        <ele>516.4</ele>
        <time>2010-01-02T13:47:49Z</time>
      </trkpt>
      <trkpt lat="43.65141" lon="6.7651">
        <ele>517.8</ele>
        <time>2010-01-02T13:47:54Z</time>
      </trkpt>
      <trkpt lat="43.65149" lon="6.76505">
        <ele>518.6</ele>
        <time>2010-01-02T13:47:59Z</time>
      </trkpt>
      <trkpt lat="43.65158" lon="6.76496">
        <ele>519.3</ele>
        <time>2010-01-02T13:48:04Z</time>
      </trkpt>
      <trkpt lat="43.65165" lon="6.76485">
        <ele>520</ele>
        <time>2010-01-02T13:48:09Z</time>
      </trkpt>
      <trkpt lat="43.65169" lon="6.76474">
        <ele>521.6</ele>
        <time>2010-01-02T13:48:14Z</time>
      </trkpt>
      <trkpt lat="43.65174" lon="6.76461">
        <ele>523</ele>
        <time>2010-01-02T13:48:20Z</time>
      </trkpt>
      <trkpt lat="43.65178" lon="6.76449">
        <ele>524.6</ele>
        <time>2010-01-02T13:48:26Z</time>
      </trkpt>
      <trkpt lat="43.65182" lon="6.76436">
        <ele>527.4</ele>
        <time>2010-01-02T13:48:32Z</time>
      </trkpt>
      <trkpt lat="43.65187" lon="6.76423">
        <ele>529.3</ele>
        <time>2010-01-02T13:48:38Z</time>
      </trkpt>
      <trkpt lat="43.65192" lon="6.7641">
        <ele>530.6</ele>
        <time>2010-01-02T13:48:44Z</time>
      </trkpt>
      <trkpt lat="43.65199" lon="6.76399">
        <ele>531.2</ele>
        <time>2010-01-02T13:48:49Z</time>
      </trkpt>
      <trkpt lat="43.65207" lon="6.7639">
        <ele>531.6</ele>
        <time>2010-01-02T13:48:54Z</time>
      </trkpt>
      <trkpt lat="43.65214" lon="6.76381">
        <ele>531</ele>
        <time>2010-01-02T13:49:04Z</time>
      </trkpt>
      <trkpt lat="43.65224" lon="6.76382">
        <ele>520</ele>
        <time>2010-01-02T13:51:24Z</time>
      </trkpt>
      <trkpt lat="43.6523" lon="6.76398">
        <ele>518.7</ele>
        <time>2010-01-02T13:51:28Z</time>
      </trkpt>
      <trkpt lat="43.65232" lon="6.76414">
        <ele>517.2</ele>
        <time>2010-01-02T13:51:30Z</time>
      </trkpt>
      <trkpt lat="43.65236" lon="6.76428">
        <ele>515.2</ele>
        <time>2010-01-02T13:51:32Z</time>
      </trkpt>
      <trkpt lat="43.65239" lon="6.7644">
        <ele>513</ele>
        <time>2010-01-02T13:51:34Z</time>
      </trkpt>
      <trkpt lat="43.65246" lon="6.76449">
        <ele>510.8</ele>
        <time>2010-01-02T13:51:36Z</time>
      </trkpt>
      <trkpt lat="43.65256" lon="6.76455">
        <ele>509</ele>
        <time>2010-01-02T13:51:38Z</time>
      </trkpt>
      <trkpt lat="43.65269" lon="6.76456">
        <ele>507.8</ele>
        <time>2010-01-02T13:51:40Z</time>
      </trkpt>
      <trkpt lat="43.65281" lon="6.76453">
        <ele>506.8</ele>
        <time>2010-01-02T13:51:42Z</time>
      </trkpt>
      <trkpt lat="43.65293" lon="6.76449">
        <ele>506.3</ele>
        <time>2010-01-02T13:51:44Z</time>
      </trkpt>
      <trkpt lat="43.65304" lon="6.76442">
        <ele>506.2</ele>
        <time>2010-01-02T13:51:46Z</time>
      </trkpt>
      <trkpt lat="43.65316" lon="6.76437">
        <ele>506.1</ele>
        <time>2010-01-02T13:51:48Z</time>
      </trkpt>
      <trkpt lat="43.65325" lon="6.7643">
        <ele>506</ele>
        <time>2010-01-02T13:51:50Z</time>
      </trkpt>
      <trkpt lat="43.65333" lon="6.76424">
        <ele>506.1</ele>
        <time>2010-01-02T13:51:52Z</time>
      </trkpt>
      <trkpt lat="43.65344" lon="6.76421">
        <ele>505.9</ele>
        <time>2010-01-02T13:51:54Z</time>
      </trkpt>
      <trkpt lat="43.65354" lon="6.7642">
        <ele>506</ele>
        <time>2010-01-02T13:51:56Z</time>
      </trkpt>
      <trkpt lat="43.65366" lon="6.76419">
        <ele>505.5</ele>
        <time>2010-01-02T13:51:58Z</time>
      </trkpt>
      <trkpt lat="43.65379" lon="6.76418">
        <ele>504.8</ele>
        <time>2010-01-02T13:52:00Z</time>
      </trkpt>
      <trkpt lat="43.65393" lon="6.76415">
        <ele>503.9</ele>
        <time>2010-01-02T13:52:02Z</time>
      </trkpt>
      <trkpt lat="43.65408" lon="6.76408">
        <ele>503.1</ele>
        <time>2010-01-02T13:52:04Z</time>
      </trkpt>
      <trkpt lat="43.65423" lon="6.764">
        <ele>502.6</ele>
        <time>2010-01-02T13:52:06Z</time>
      </trkpt>
      <trkpt lat="43.65437" lon="6.7639">
        <ele>502.2</ele>
        <time>2010-01-02T13:52:08Z</time>
      </trkpt>
      <trkpt lat="43.65449" lon="6.7638">
        <ele>501.3</ele>
        <time>2010-01-02T13:52:10Z</time>
      </trkpt>
      <trkpt lat="43.65462" lon="6.7637">
        <ele>500.3</ele>
        <time>2010-01-02T13:52:12Z</time>
      </trkpt>
      <trkpt lat="43.65475" lon="6.76358">
        <ele>499</ele>
        <time>2010-01-02T13:52:14Z</time>
      </trkpt>
      <trkpt lat="43.65486" lon="6.76345">
        <ele>497.9</ele>
        <time>2010-01-02T13:52:16Z</time>
      </trkpt>
      <trkpt lat="43.65496" lon="6.76331">
        <ele>497</ele>
        <time>2010-01-02T13:52:18Z</time>
      </trkpt>
      <trkpt lat="43.65506" lon="6.76315">
        <ele>496.4</ele>
        <time>2010-01-02T13:52:20Z</time>
      </trkpt>
      <trkpt lat="43.65516" lon="6.76299">
        <ele>496.1</ele>
        <time>2010-01-02T13:52:22Z</time>
      </trkpt>
      <trkpt lat="43.65526" lon="6.76284">
        <ele>494.7</ele>
        <time>2010-01-02T13:52:24Z</time>
      </trkpt>
      <trkpt lat="43.65536" lon="6.7627">
        <ele>494.2</ele>
        <time>2010-01-02T13:52:26Z</time>
      </trkpt>
      <trkpt lat="43.65544" lon="6.76257">
        <ele>493.6</ele>
        <time>2010-01-02T13:52:28Z</time>
      </trkpt>
      <trkpt lat="43.65553" lon="6.76246">
        <ele>492.7</ele>
        <time>2010-01-02T13:52:30Z</time>
      </trkpt>
      <trkpt lat="43.65562" lon="6.76235">
        <ele>490.7</ele>
        <time>2010-01-02T13:52:32Z</time>
      </trkpt>
      <trkpt lat="43.65571" lon="6.76225">
        <ele>489</ele>
        <time>2010-01-02T13:52:34Z</time>
      </trkpt>
      <trkpt lat="43.65582" lon="6.76214">
        <ele>487.3</ele>
        <time>2010-01-02T13:52:36Z</time>
      </trkpt>
      <trkpt lat="43.65593" lon="6.76202">
        <ele>485.9</ele>
        <time>2010-01-02T13:52:38Z</time>
      </trkpt>
      <trkpt lat="43.65604" lon="6.7619">
        <ele>484.5</ele>
        <time>2010-01-02T13:52:40Z</time>
      </trkpt>
      <trkpt lat="43.65613" lon="6.76177">
        <ele>482.7</ele>
        <time>2010-01-02T13:52:42Z</time>
      </trkpt>
      <trkpt lat="43.65621" lon="6.76162">
        <ele>481.2</ele>
        <time>2010-01-02T13:52:44Z</time>
      </trkpt>
      <trkpt lat="43.65629" lon="6.76145">
        <ele>479.9</ele>
        <time>2010-01-02T13:52:46Z</time>
      </trkpt>
      <trkpt lat="43.65635" lon="6.76128">
        <ele>478.8</ele>
        <time>2010-01-02T13:52:48Z</time>
      </trkpt>
      <trkpt lat="43.65638" lon="6.76113">
        <ele>478.1</ele>
        <time>2010-01-02T13:52:50Z</time>
      </trkpt>
      <trkpt lat="43.65642" lon="6.76099">
        <ele>477.3</ele>
        <time>2010-01-02T13:52:52Z</time>
      </trkpt>
      <trkpt lat="43.65645" lon="6.76087">
        <ele>476.8</ele>
        <time>2010-01-02T13:52:54Z</time>
      </trkpt>
      <trkpt lat="43.65648" lon="6.7607">
        <ele>476.3</ele>
        <time>2010-01-02T13:52:57Z</time>
      </trkpt>
      <trkpt lat="43.65649" lon="6.76056">
        <ele>475.2</ele>
        <time>2010-01-02T13:53:00Z</time>
      </trkpt>
      <trkpt lat="43.65652" lon="6.76037">
        <ele>473.9</ele>
        <time>2010-01-02T13:53:03Z</time>
      </trkpt>
      <trkpt lat="43.65656" lon="6.76024">
        <ele>473.5</ele>
        <time>2010-01-02T13:53:05Z</time>
      </trkpt>
      <trkpt lat="43.65659" lon="6.7601">
        <ele>472.6</ele>
        <time>2010-01-02T13:53:07Z</time>
      </trkpt>
      <trkpt lat="43.65662" lon="6.75997">
        <ele>471.7</ele>
        <time>2010-01-02T13:53:09Z</time>
      </trkpt>
      <trkpt lat="43.65667" lon="6.75983">
        <ele>470.9</ele>
        <time>2010-01-02T13:53:11Z</time>
      </trkpt>
      <trkpt lat="43.65674" lon="6.75969">
        <ele>469.8</ele>
        <time>2010-01-02T13:53:13Z</time>
      </trkpt>
      <trkpt lat="43.65681" lon="6.75955">
        <ele>468.9</ele>
        <time>2010-01-02T13:53:15Z</time>
      </trkpt>
      <trkpt lat="43.65686" lon="6.7594">
        <ele>467.9</ele>
        <time>2010-01-02T13:53:17Z</time>
      </trkpt>
      <trkpt lat="43.65691" lon="6.75927">
        <ele>468.1</ele>
        <time>2010-01-02T13:53:19Z</time>
      </trkpt>
      <trkpt lat="43.65698" lon="6.75915">
        <ele>468.2</ele>
        <time>2010-01-02T13:53:22Z</time>
      </trkpt>
      <trkpt lat="43.65704" lon="6.75904">
        <ele>468.3</ele>
        <time>2010-01-02T13:53:42Z</time>
      </trkpt>
      <trkpt lat="43.65708" lon="6.75891">
        <ele>468.7</ele>
        <time>2010-01-02T13:53:49Z</time>
      </trkpt>
      <trkpt lat="43.65714" lon="6.75878">
        <ele>468.6</ele>
        <time>2010-01-02T13:53:53Z</time>
      </trkpt>
      <trkpt lat="43.65719" lon="6.75866">
        <ele>468.2</ele>
        <time>2010-01-02T13:53:56Z</time>
      </trkpt>
      <trkpt lat="43.65726" lon="6.75851">
        <ele>467.8</ele>
        <time>2010-01-02T13:53:59Z</time>
      </trkpt>
      <trkpt lat="43.6573" lon="6.75839">
        <ele>467.7</ele>
        <time>2010-01-02T13:54:01Z</time>
      </trkpt>
      <trkpt lat="43.65733" lon="6.75823">
        <ele>468.2</ele>
        <time>2010-01-02T13:54:04Z</time>
      </trkpt>
      <trkpt lat="43.65734" lon="6.75806">
        <ele>468.4</ele>
        <time>2010-01-02T13:54:07Z</time>
      </trkpt>
      <trkpt lat="43.65735" lon="6.7579">
        <ele>468.6</ele>
        <time>2010-01-02T13:54:10Z</time>
      </trkpt>
      <trkpt lat="43.65733" lon="6.75773">
        <ele>468.7</ele>
        <time>2010-01-02T13:54:13Z</time>
      </trkpt>
      <trkpt lat="43.65731" lon="6.75756">
        <ele>469.2</ele>
        <time>2010-01-02T13:54:16Z</time>
      </trkpt>
      <trkpt lat="43.65728" lon="6.75742">
        <ele>470.1</ele>
        <time>2010-01-02T13:54:19Z</time>
      </trkpt>
      <trkpt lat="43.65726" lon="6.75727">
        <ele>471.3</ele>
        <time>2010-01-02T13:54:22Z</time>
      </trkpt>
      <trkpt lat="43.65724" lon="6.75715">
        <ele>471.9</ele>
        <time>2010-01-02T13:54:25Z</time>
      </trkpt>
      <trkpt lat="43.65723" lon="6.75702">
        <ele>472.5</ele>
        <time>2010-01-02T13:54:29Z</time>
      </trkpt>
      <trkpt lat="43.65723" lon="6.75688">
        <ele>473.6</ele>
        <time>2010-01-02T13:54:34Z</time>
      </trkpt>
      <trkpt lat="43.65723" lon="6.75675">
        <ele>474</ele>
        <time>2010-01-02T13:54:45Z</time>
      </trkpt>
      <trkpt lat="43.65722" lon="6.75662">
        <ele>474.9</ele>
        <time>2010-01-02T13:54:50Z</time>
      </trkpt>
      <trkpt lat="43.65723" lon="6.75648">
        <ele>475.1</ele>
        <time>2010-01-02T13:54:55Z</time>
      </trkpt>
      <trkpt lat="43.65723" lon="6.75635">
        <ele>475.8</ele>
        <time>2010-01-02T13:54:59Z</time>
      </trkpt>
      <trkpt lat="43.65724" lon="6.75619">
        <ele>476.2</ele>
        <time>2010-01-02T13:55:03Z</time>
      </trkpt>
      <trkpt lat="43.65723" lon="6.75604">
        <ele>476.5</ele>
        <time>2010-01-02T13:55:07Z</time>
      </trkpt>
      <trkpt lat="43.65722" lon="6.75589">
        <ele>476.5</ele>
        <time>2010-01-02T13:55:11Z</time>
      </trkpt>
      <trkpt lat="43.65718" lon="6.75575">
        <ele>477.5</ele>
        <time>2010-01-02T13:55:15Z</time>
      </trkpt>
      <trkpt lat="43.65716" lon="6.75562">
        <ele>478.3</ele>
        <time>2010-01-02T13:55:19Z</time>
      </trkpt>
      <trkpt lat="43.65716" lon="6.75548">
        <ele>478.8</ele>
        <time>2010-01-02T13:55:23Z</time>
      </trkpt>
      <trkpt lat="43.65715" lon="6.75532">
        <ele>478.5</ele>
        <time>2010-01-02T13:55:27Z</time>
      </trkpt>
      <trkpt lat="43.65714" lon="6.75516">
        <ele>477.7</ele>
        <time>2010-01-02T13:55:31Z</time>
      </trkpt>
      <trkpt lat="43.65713" lon="6.755">
        <ele>477.4</ele>
        <time>2010-01-02T13:55:35Z</time>
      </trkpt>
      <trkpt lat="43.65712" lon="6.75487">
        <ele>478.8</ele>
        <time>2010-01-02T13:55:39Z</time>
      </trkpt>
      <trkpt lat="43.65712" lon="6.75471">
        <ele>479.8</ele>
        <time>2010-01-02T13:55:44Z</time>
      </trkpt>
      <trkpt lat="43.65713" lon="6.75457">
        <ele>480.4</ele>
        <time>2010-01-02T13:55:48Z</time>
      </trkpt>
      <trkpt lat="43.65713" lon="6.75442">
        <ele>480.7</ele>
        <time>2010-01-02T13:55:52Z</time>
      </trkpt>
      <trkpt lat="43.65714" lon="6.75426">
        <ele>480.7</ele>
        <time>2010-01-02T13:55:56Z</time>
      </trkpt>
      <trkpt lat="43.65714" lon="6.75409">
        <ele>481.7</ele>
        <time>2010-01-02T13:56:00Z</time>
      </trkpt>
      <trkpt lat="43.65714" lon="6.75393">
        <ele>481.9</ele>
        <time>2010-01-02T13:56:04Z</time>
      </trkpt>
      <trkpt lat="43.65715" lon="6.75379">
        <ele>482.1</ele>
        <time>2010-01-02T13:56:07Z</time>
      </trkpt>
      <trkpt lat="43.65715" lon="6.75365">
        <ele>482.3</ele>
        <time>2010-01-02T13:56:10Z</time>
      </trkpt>
      <trkpt lat="43.65716" lon="6.75351">
        <ele>483</ele>
        <time>2010-01-02T13:56:13Z</time>
      </trkpt>
      <trkpt lat="43.65715" lon="6.75335">
        <ele>483.8</ele>
        <time>2010-01-02T13:56:17Z</time>
      </trkpt>
      <trkpt lat="43.65711" lon="6.75322">
        <ele>484</ele>
        <time>2010-01-02T13:56:20Z</time>
      </trkpt>
      <trkpt lat="43.65706" lon="6.75309">
        <ele>483.9</ele>
        <time>2010-01-02T13:56:23Z</time>
      </trkpt>
      <trkpt lat="43.657" lon="6.75293">
        <ele>483.2</ele>
        <time>2010-01-02T13:56:26Z</time>
      </trkpt>
      <trkpt lat="43.65698" lon="6.7528">
        <ele>481.3</ele>
        <time>2010-01-02T13:56:28Z</time>
      </trkpt>
      <trkpt lat="43.65696" lon="6.75267">
        <ele>481.4</ele>
        <time>2010-01-02T13:56:30Z</time>
      </trkpt>
      <trkpt lat="43.65699" lon="6.75253">
        <ele>479.9</ele>
        <time>2010-01-02T13:56:32Z</time>
      </trkpt>
      <trkpt lat="43.65705" lon="6.75242">
        <ele>479.2</ele>
        <time>2010-01-02T13:56:34Z</time>
      </trkpt>
      <trkpt lat="43.65712" lon="6.75231">
        <ele>478.2</ele>
        <time>2010-01-02T13:56:36Z</time>
      </trkpt>
      <trkpt lat="43.6572" lon="6.75219">
        <ele>477.4</ele>
        <time>2010-01-02T13:56:38Z</time>
      </trkpt>
      <trkpt lat="43.65727" lon="6.75205">
        <ele>476.6</ele>
        <time>2010-01-02T13:56:40Z</time>
      </trkpt>
      <trkpt lat="43.65733" lon="6.75189">
        <ele>475.9</ele>
        <time>2010-01-02T13:56:42Z</time>
      </trkpt>
      <trkpt lat="43.65738" lon="6.75172">
        <ele>474.8</ele>
        <time>2010-01-02T13:56:44Z</time>
      </trkpt>
      <trkpt lat="43.65739" lon="6.75155">
        <ele>474</ele>
        <time>2010-01-02T13:56:46Z</time>
      </trkpt>
      <trkpt lat="43.65737" lon="6.75138">
        <ele>473.5</ele>
        <time>2010-01-02T13:56:48Z</time>
      </trkpt>
      <trkpt lat="43.65736" lon="6.7512">
        <ele>473.1</ele>
        <time>2010-01-02T13:56:50Z</time>
      </trkpt>
      <trkpt lat="43.65737" lon="6.75103">
        <ele>473</ele>
        <time>2010-01-02T13:56:52Z</time>
      </trkpt>
      <trkpt lat="43.65738" lon="6.75087">
        <ele>472.9</ele>
        <time>2010-01-02T13:56:54Z</time>
      </trkpt>
      <trkpt lat="43.65739" lon="6.75071">
        <ele>472.7</ele>
        <time>2010-01-02T13:56:56Z</time>
      </trkpt>
      <trkpt lat="43.6574" lon="6.75056">
        <ele>472.6</ele>
        <time>2010-01-02T13:56:58Z</time>
      </trkpt>
      <trkpt lat="43.65744" lon="6.75041">
        <ele>472.7</ele>
        <time>2010-01-02T13:57:00Z</time>
      </trkpt>
      <trkpt lat="43.6575" lon="6.75029">
        <ele>473.5</ele>
        <time>2010-01-02T13:57:02Z</time>
      </trkpt>
      <trkpt lat="43.65756" lon="6.75017">
        <ele>473.6</ele>
        <time>2010-01-02T13:57:04Z</time>
      </trkpt>
      <trkpt lat="43.65762" lon="6.75006">
        <ele>473.5</ele>
        <time>2010-01-02T13:57:06Z</time>
      </trkpt>
      <trkpt lat="43.65769" lon="6.74993">
        <ele>472.5</ele>
        <time>2010-01-02T13:57:09Z</time>
      </trkpt>
      <trkpt lat="43.65777" lon="6.74982">
        <ele>472</ele>
        <time>2010-01-02T13:57:12Z</time>
      </trkpt>
      <trkpt lat="43.65784" lon="6.74973">
        <ele>471.3</ele>
        <time>2010-01-02T13:57:14Z</time>
      </trkpt>
      <trkpt lat="43.65792" lon="6.74964">
        <ele>470.9</ele>
        <time>2010-01-02T13:57:16Z</time>
      </trkpt>
      <trkpt lat="43.658" lon="6.74955">
        <ele>470.4</ele>
        <time>2010-01-02T13:57:18Z</time>
      </trkpt>
      <trkpt lat="43.65807" lon="6.74944">
        <ele>470</ele>
        <time>2010-01-02T13:57:20Z</time>
      </trkpt>
      <trkpt lat="43.65814" lon="6.74931">
        <ele>469.7</ele>
        <time>2010-01-02T13:57:22Z</time>
      </trkpt>
      <trkpt lat="43.6582" lon="6.74918">
        <ele>469.6</ele>
        <time>2010-01-02T13:57:24Z</time>
      </trkpt>
      <trkpt lat="43.65825" lon="6.74903">
        <ele>469.8</ele>
        <time>2010-01-02T13:57:26Z</time>
      </trkpt>
      <trkpt lat="43.65827" lon="6.74891">
        <ele>470.3</ele>
        <time>2010-01-02T13:57:28Z</time>
      </trkpt>
      <trkpt lat="43.6583" lon="6.74876">
        <ele>470.8</ele>
        <time>2010-01-02T13:57:31Z</time>
      </trkpt>
      <trkpt lat="43.65833" lon="6.74863">
        <ele>471.2</ele>
        <time>2010-01-02T13:57:34Z</time>
      </trkpt>
      <trkpt lat="43.65837" lon="6.74848">
        <ele>471.5</ele>
        <time>2010-01-02T13:57:37Z</time>
      </trkpt>
      <trkpt lat="43.6584" lon="6.74833">
        <ele>471.5</ele>
        <time>2010-01-02T13:57:40Z</time>
      </trkpt>
      <trkpt lat="43.65843" lon="6.74817">
        <ele>471.2</ele>
        <time>2010-01-02T13:57:43Z</time>
      </trkpt>
      <trkpt lat="43.65845" lon="6.74802">
        <ele>471.2</ele>
        <time>2010-01-02T13:57:46Z</time>
      </trkpt>
      <trkpt lat="43.65845" lon="6.74789">
        <ele>471.3</ele>
        <time>2010-01-02T13:57:49Z</time>
      </trkpt>
      <trkpt lat="43.65844" lon="6.74776">
        <ele>471.6</ele>
        <time>2010-01-02T13:57:52Z</time>
      </trkpt>
      <trkpt lat="43.65844" lon="6.74759">
        <ele>472.2</ele>
        <time>2010-01-02T13:57:56Z</time>
      </trkpt>
      <trkpt lat="43.65842" lon="6.74747">
        <ele>472.8</ele>
        <time>2010-01-02T13:57:59Z</time>
      </trkpt>
      <trkpt lat="43.65841" lon="6.74734">
        <ele>472.8</ele>
        <time>2010-01-02T13:58:02Z</time>
      </trkpt>
      <trkpt lat="43.65838" lon="6.7472">
        <ele>473</ele>
        <time>2010-01-02T13:58:05Z</time>
      </trkpt>
      <trkpt lat="43.65835" lon="6.74706">
        <ele>473.5</ele>
        <time>2010-01-02T13:58:08Z</time>
      </trkpt>
      <trkpt lat="43.65833" lon="6.74693">
        <ele>474.1</ele>
        <time>2010-01-02T13:58:12Z</time>
      </trkpt>
      <trkpt lat="43.65833" lon="6.7468">
        <ele>474.6</ele>
        <time>2010-01-02T13:58:16Z</time>
      </trkpt>
      <trkpt lat="43.65836" lon="6.74666">
        <ele>475</ele>
        <time>2010-01-02T13:58:20Z</time>
      </trkpt>
      <trkpt lat="43.6584" lon="6.74652">
        <ele>476.1</ele>
        <time>2010-01-02T13:58:24Z</time>
      </trkpt>
      <trkpt lat="43.65843" lon="6.74637">
        <ele>477.8</ele>
        <time>2010-01-02T13:58:28Z</time>
      </trkpt>
      <trkpt lat="43.65846" lon="6.74622">
        <ele>478.6</ele>
        <time>2010-01-02T13:58:32Z</time>
      </trkpt>
      <trkpt lat="43.65849" lon="6.74606">
        <ele>478.3</ele>
        <time>2010-01-02T13:58:36Z</time>
      </trkpt>
      <trkpt lat="43.65851" lon="6.74594">
        <ele>478.7</ele>
        <time>2010-01-02T13:58:39Z</time>
      </trkpt>
      <trkpt lat="43.65854" lon="6.74581">
        <ele>478.9</ele>
        <time>2010-01-02T13:58:42Z</time>
      </trkpt>
      <trkpt lat="43.65856" lon="6.74565">
        <ele>480</ele>
        <time>2010-01-02T13:58:46Z</time>
      </trkpt>
      <trkpt lat="43.65858" lon="6.74553">
        <ele>479.7</ele>
        <time>2010-01-02T13:58:49Z</time>
      </trkpt>
      <trkpt lat="43.6586" lon="6.7454">
        <ele>479.8</ele>
        <time>2010-01-02T13:58:52Z</time>
      </trkpt>
      <trkpt lat="43.65861" lon="6.74526">
        <ele>480</ele>
        <time>2010-01-02T13:58:55Z</time>
      </trkpt>
      <trkpt lat="43.65863" lon="6.74512">
        <ele>480.2</ele>
        <time>2010-01-02T13:58:58Z</time>
      </trkpt>
      <trkpt lat="43.65864" lon="6.74496">
        <ele>480.2</ele>
        <time>2010-01-02T13:59:01Z</time>
      </trkpt>
      <trkpt lat="43.65868" lon="6.74482">
        <ele>480.3</ele>
        <time>2010-01-02T13:59:04Z</time>
      </trkpt>
      <trkpt lat="43.65873" lon="6.74471">
        <ele>480.5</ele>
        <time>2010-01-02T13:59:07Z</time>
      </trkpt>
      <trkpt lat="43.65877" lon="6.7446">
        <ele>480.5</ele>
        <time>2010-01-02T13:59:10Z</time>
      </trkpt>
      <trkpt lat="43.65881" lon="6.74448">
        <ele>480.7</ele>
        <time>2010-01-02T13:59:13Z</time>
      </trkpt>
      <trkpt lat="43.65885" lon="6.74436">
        <ele>480.9</ele>
        <time>2010-01-02T13:59:16Z</time>
      </trkpt>
      <trkpt lat="43.65889" lon="6.74425">
        <ele>481.1</ele>
        <time>2010-01-02T13:59:19Z</time>
      </trkpt>
      <trkpt lat="43.65894" lon="6.74413">
        <ele>481.1</ele>
        <time>2010-01-02T13:59:22Z</time>
      </trkpt>
      <trkpt lat="43.659" lon="6.74402">
        <ele>481.1</ele>
        <time>2010-01-02T13:59:25Z</time>
      </trkpt>
      <trkpt lat="43.65905" lon="6.74391">
        <ele>481.8</ele>
        <time>2010-01-02T13:59:28Z</time>
      </trkpt>
      <trkpt lat="43.6591" lon="6.74379">
        <ele>482.8</ele>
        <time>2010-01-02T13:59:31Z</time>
      </trkpt>
      <trkpt lat="43.65913" lon="6.74366">
        <ele>483.3</ele>
        <time>2010-01-02T13:59:34Z</time>
      </trkpt>
      <trkpt lat="43.65916" lon="6.74355">
        <ele>484.7</ele>
        <time>2010-01-02T13:59:37Z</time>
      </trkpt>
      <trkpt lat="43.65918" lon="6.74342">
        <ele>485.6</ele>
        <time>2010-01-02T13:59:40Z</time>
      </trkpt>
      <trkpt lat="43.6592" lon="6.74328">
        <ele>485.8</ele>
        <time>2010-01-02T13:59:43Z</time>
      </trkpt>
      <trkpt lat="43.65921" lon="6.74315">
        <ele>486.9</ele>
        <time>2010-01-02T13:59:46Z</time>
      </trkpt>
      <trkpt lat="43.6592" lon="6.74303">
        <ele>488.4</ele>
        <time>2010-01-02T13:59:49Z</time>
      </trkpt>
      <trkpt lat="43.65919" lon="6.74288">
        <ele>490.8</ele>
        <time>2010-01-02T13:59:53Z</time>
      </trkpt>
      <trkpt lat="43.65918" lon="6.74274">
        <ele>490.1</ele>
        <time>2010-01-02T13:59:56Z</time>
      </trkpt>
      <trkpt lat="43.65916" lon="6.7426">
        <ele>489.1</ele>
        <time>2010-01-02T13:59:59Z</time>
      </trkpt>
      <trkpt lat="43.65915" lon="6.74247">
        <ele>488.2</ele>
        <time>2010-01-02T14:00:02Z</time>
      </trkpt>
      <trkpt lat="43.65913" lon="6.74234">
        <ele>488.7</ele>
        <time>2010-01-02T14:00:05Z</time>
      </trkpt>
      <trkpt lat="43.65913" lon="6.74217">
        <ele>488.6</ele>
        <time>2010-01-02T14:00:09Z</time>
      </trkpt>
      <trkpt lat="43.65911" lon="6.74202">
        <ele>488.9</ele>
        <time>2010-01-02T14:00:13Z</time>
      </trkpt>
      <trkpt lat="43.65909" lon="6.7419">
        <ele>488.6</ele>
        <time>2010-01-02T14:00:16Z</time>
      </trkpt>
      <trkpt lat="43.65906" lon="6.74177">
        <ele>489</ele>
        <time>2010-01-02T14:00:19Z</time>
      </trkpt>
      <trkpt lat="43.65901" lon="6.74164">
        <ele>488.2</ele>
        <time>2010-01-02T14:00:22Z</time>
      </trkpt>
      <trkpt lat="43.65894" lon="6.74155">
        <ele>487.5</ele>
        <time>2010-01-02T14:00:25Z</time>
      </trkpt>
      <trkpt lat="43.65886" lon="6.74146">
        <ele>487.1</ele>
        <time>2010-01-02T14:00:28Z</time>
      </trkpt>
      <trkpt lat="43.65879" lon="6.74136">
        <ele>486.5</ele>
        <time>2010-01-02T14:00:31Z</time>
      </trkpt>
      <trkpt lat="43.65873" lon="6.74126">
        <ele>486.4</ele>
        <time>2010-01-02T14:00:34Z</time>
      </trkpt>
      <trkpt lat="43.65867" lon="6.74115">
        <ele>486.4</ele>
        <time>2010-01-02T14:00:37Z</time>
      </trkpt>
      <trkpt lat="43.6586" lon="6.74106">
        <ele>486.8</ele>
        <time>2010-01-02T14:00:40Z</time>
      </trkpt>
      <trkpt lat="43.65852" lon="6.74097">
        <ele>486.5</ele>
        <time>2010-01-02T14:00:43Z</time>
      </trkpt>
      <trkpt lat="43.65845" lon="6.74087">
        <ele>486.9</ele>
        <time>2010-01-02T14:00:46Z</time>
      </trkpt>
      <trkpt lat="43.65838" lon="6.74077">
        <ele>487.3</ele>
        <time>2010-01-02T14:00:49Z</time>
      </trkpt>
      <trkpt lat="43.65831" lon="6.74067">
        <ele>487.7</ele>
        <time>2010-01-02T14:00:52Z</time>
      </trkpt>
      <trkpt lat="43.65824" lon="6.74058">
        <ele>488.2</ele>
        <time>2010-01-02T14:00:55Z</time>
      </trkpt>
      <trkpt lat="43.65816" lon="6.7405">
        <ele>488.5</ele>
        <time>2010-01-02T14:00:58Z</time>
      </trkpt>
      <trkpt lat="43.65807" lon="6.74038">
        <ele>489.9</ele>
        <time>2010-01-02T14:01:02Z</time>
      </trkpt>
      <trkpt lat="43.658" lon="6.74028">
        <ele>490</ele>
        <time>2010-01-02T14:01:05Z</time>
      </trkpt>
      <trkpt lat="43.65794" lon="6.74017">
        <ele>489.6</ele>
        <time>2010-01-02T14:01:08Z</time>
      </trkpt>
      <trkpt lat="43.65789" lon="6.74005">
        <ele>488</ele>
        <time>2010-01-02T14:01:11Z</time>
      </trkpt>
      <trkpt lat="43.65782" lon="6.73994">
        <ele>487.3</ele>
        <time>2010-01-02T14:01:14Z</time>
      </trkpt>
      <trkpt lat="43.65776" lon="6.73984">
        <ele>487.5</ele>
        <time>2010-01-02T14:01:17Z</time>
      </trkpt>
      <trkpt lat="43.65768" lon="6.73973">
        <ele>488.2</ele>
        <time>2010-01-02T14:01:21Z</time>
      </trkpt>
      <trkpt lat="43.65761" lon="6.73965">
        <ele>488.2</ele>
        <time>2010-01-02T14:01:24Z</time>
      </trkpt>
      <trkpt lat="43.65753" lon="6.73954">
        <ele>488.7</ele>
        <time>2010-01-02T14:01:28Z</time>
      </trkpt>
      <trkpt lat="43.65745" lon="6.73941">
        <ele>489.2</ele>
        <time>2010-01-02T14:01:32Z</time>
      </trkpt>
      <trkpt lat="43.6574" lon="6.73926">
        <ele>489.7</ele>
        <time>2010-01-02T14:01:36Z</time>
      </trkpt>
      <trkpt lat="43.65738" lon="6.73914">
        <ele>490.2</ele>
        <time>2010-01-02T14:01:39Z</time>
      </trkpt>
      <trkpt lat="43.65735" lon="6.73902">
        <ele>490.3</ele>
        <time>2010-01-02T14:01:42Z</time>
      </trkpt>
      <trkpt lat="43.65729" lon="6.73889">
        <ele>490.5</ele>
        <time>2010-01-02T14:01:46Z</time>
      </trkpt>
      <trkpt lat="43.65719" lon="6.73881">
        <ele>490.4</ele>
        <time>2010-01-02T14:01:50Z</time>
      </trkpt>
      <trkpt lat="43.65707" lon="6.73875">
        <ele>490</ele>
        <time>2010-01-02T14:01:54Z</time>
      </trkpt>
      <trkpt lat="43.65698" lon="6.73869">
        <ele>489.6</ele>
        <time>2010-01-02T14:01:57Z</time>
      </trkpt>
      <trkpt lat="43.65688" lon="6.7386">
        <ele>489.1</ele>
        <time>2010-01-02T14:02:00Z</time>
      </trkpt>
      <trkpt lat="43.65679" lon="6.7385">
        <ele>488.6</ele>
        <time>2010-01-02T14:02:03Z</time>
      </trkpt>
      <trkpt lat="43.6567" lon="6.73839">
        <ele>488.4</ele>
        <time>2010-01-02T14:02:06Z</time>
      </trkpt>
      <trkpt lat="43.65661" lon="6.73828">
        <ele>488.2</ele>
        <time>2010-01-02T14:02:09Z</time>
      </trkpt>
      <trkpt lat="43.65652" lon="6.73816">
        <ele>488.2</ele>
        <time>2010-01-02T14:02:12Z</time>
      </trkpt>
      <trkpt lat="43.65645" lon="6.73804">
        <ele>487.7</ele>
        <time>2010-01-02T14:02:15Z</time>
      </trkpt>
      <trkpt lat="43.65638" lon="6.73791">
        <ele>487.4</ele>
        <time>2010-01-02T14:02:18Z</time>
      </trkpt>
      <trkpt lat="43.65633" lon="6.73779">
        <ele>487.9</ele>
        <time>2010-01-02T14:02:21Z</time>
      </trkpt>
      <trkpt lat="43.65627" lon="6.7377">
        <ele>488.6</ele>
        <time>2010-01-02T14:02:24Z</time>
      </trkpt>
      <trkpt lat="43.6562" lon="6.73761">
        <ele>489.3</ele>
        <time>2010-01-02T14:02:27Z</time>
      </trkpt>
      <trkpt lat="43.6561" lon="6.73753">
        <ele>489.6</ele>
        <time>2010-01-02T14:02:30Z</time>
      </trkpt>
      <trkpt lat="43.65601" lon="6.73744">
        <ele>489.1</ele>
        <time>2010-01-02T14:02:33Z</time>
      </trkpt>
      <trkpt lat="43.65593" lon="6.73735">
        <ele>490.2</ele>
        <time>2010-01-02T14:02:36Z</time>
      </trkpt>
      <trkpt lat="43.65585" lon="6.73728">
        <ele>492.1</ele>
        <time>2010-01-02T14:02:39Z</time>
      </trkpt>
      <trkpt lat="43.65575" lon="6.73722">
        <ele>493</ele>
        <time>2010-01-02T14:02:42Z</time>
      </trkpt>
      <trkpt lat="43.65565" lon="6.73717">
        <ele>492.8</ele>
        <time>2010-01-02T14:02:45Z</time>
      </trkpt>
      <trkpt lat="43.65555" lon="6.73716">
        <ele>492.9</ele>
        <time>2010-01-02T14:02:48Z</time>
      </trkpt>
      <trkpt lat="43.65543" lon="6.73715">
        <ele>492.9</ele>
        <time>2010-01-02T14:02:52Z</time>
      </trkpt>
      <trkpt lat="43.65534" lon="6.73717">
        <ele>492.9</ele>
        <time>2010-01-02T14:02:55Z</time>
      </trkpt>
      <trkpt lat="43.65523" lon="6.7372">
        <ele>493.5</ele>
        <time>2010-01-02T14:02:59Z</time>
      </trkpt>
      <trkpt lat="43.65512" lon="6.73721">
        <ele>494.6</ele>
        <time>2010-01-02T14:03:03Z</time>
      </trkpt>
      <trkpt lat="43.65503" lon="6.73719">
        <ele>495.5</ele>
        <time>2010-01-02T14:03:07Z</time>
      </trkpt>
      <trkpt lat="43.65495" lon="6.73712">
        <ele>497.2</ele>
        <time>2010-01-02T14:03:11Z</time>
      </trkpt>
      <trkpt lat="43.65487" lon="6.73702">
        <ele>498.6</ele>
        <time>2010-01-02T14:03:15Z</time>
      </trkpt>
      <trkpt lat="43.65479" lon="6.7369">
        <ele>499.5</ele>
        <time>2010-01-02T14:03:19Z</time>
      </trkpt>
      <trkpt lat="43.65472" lon="6.73681">
        <ele>499.6</ele>
        <time>2010-01-02T14:03:22Z</time>
      </trkpt>
      <trkpt lat="43.65466" lon="6.73671">
        <ele>500.7</ele>
        <time>2010-01-02T14:03:25Z</time>
      </trkpt>
      <trkpt lat="43.6546" lon="6.73661">
        <ele>501</ele>
        <time>2010-01-02T14:03:28Z</time>
      </trkpt>
      <trkpt lat="43.65454" lon="6.73652">
        <ele>501.1</ele>
        <time>2010-01-02T14:03:31Z</time>
      </trkpt>
      <trkpt lat="43.65446" lon="6.73639">
        <ele>502.5</ele>
        <time>2010-01-02T14:03:35Z</time>
      </trkpt>
      <trkpt lat="43.6544" lon="6.73629">
        <ele>503.3</ele>
        <time>2010-01-02T14:03:38Z</time>
      </trkpt>
      <trkpt lat="43.65433" lon="6.7362">
        <ele>503.6</ele>
        <time>2010-01-02T14:03:41Z</time>
      </trkpt>
      <trkpt lat="43.65427" lon="6.7361">
        <ele>503.6</ele>
        <time>2010-01-02T14:03:44Z</time>
      </trkpt>
      <trkpt lat="43.6542" lon="6.73598">
        <ele>501.8</ele>
        <time>2010-01-02T14:03:47Z</time>
      </trkpt>
      <trkpt lat="43.65415" lon="6.73588">
        <ele>502.2</ele>
        <time>2010-01-02T14:03:50Z</time>
      </trkpt>
      <trkpt lat="43.65405" lon="6.73582">
        <ele>502.6</ele>
        <time>2010-01-02T14:03:54Z</time>
      </trkpt>
      <trkpt lat="43.65393" lon="6.73586">
        <ele>501.9</ele>
        <time>2010-01-02T14:03:58Z</time>
      </trkpt>
      <trkpt lat="43.65384" lon="6.73579">
        <ele>502.2</ele>
        <time>2010-01-02T14:04:02Z</time>
      </trkpt>
      <trkpt lat="43.6538" lon="6.73568">
        <ele>500</ele>
        <time>2010-01-02T14:04:06Z</time>
      </trkpt>
      <trkpt lat="43.65376" lon="6.73557">
        <ele>500.8</ele>
        <time>2010-01-02T14:04:10Z</time>
      </trkpt>
      <trkpt lat="43.65373" lon="6.73542">
        <ele>500.5</ele>
        <time>2010-01-02T14:04:13Z</time>
      </trkpt>
      <trkpt lat="43.65371" lon="6.73523">
        <ele>499.4</ele>
        <time>2010-01-02T14:04:16Z</time>
      </trkpt>
      <trkpt lat="43.65367" lon="6.73509">
        <ele>498.6</ele>
        <time>2010-01-02T14:04:18Z</time>
      </trkpt>
      <trkpt lat="43.65365" lon="6.73495">
        <ele>497.2</ele>
        <time>2010-01-02T14:04:20Z</time>
      </trkpt>
      <trkpt lat="43.65364" lon="6.73483">
        <ele>501.2</ele>
        <time>2010-01-02T14:04:23Z</time>
      </trkpt>
      <trkpt lat="43.65368" lon="6.73467">
        <ele>499.5</ele>
        <time>2010-01-02T14:04:27Z</time>
      </trkpt>
      <trkpt lat="43.65375" lon="6.73458">
        <ele>501.1</ele>
        <time>2010-01-02T14:04:31Z</time>
      </trkpt>
      <trkpt lat="43.65383" lon="6.73446">
        <ele>501.2</ele>
        <time>2010-01-02T14:04:36Z</time>
      </trkpt>
      <trkpt lat="43.65389" lon="6.73434">
        <ele>503.2</ele>
        <time>2010-01-02T14:04:41Z</time>
      </trkpt>
      <trkpt lat="43.65396" lon="6.73424">
        <ele>503.8</ele>
        <time>2010-01-02T14:04:45Z</time>
      </trkpt>
      <trkpt lat="43.65402" lon="6.73414">
        <ele>504.2</ele>
        <time>2010-01-02T14:04:49Z</time>
      </trkpt>
      <trkpt lat="43.65409" lon="6.73403">
        <ele>509</ele>
        <time>2010-01-02T14:04:56Z</time>
      </trkpt>
      <trkpt lat="43.65418" lon="6.73396">
        <ele>508.7</ele>
        <time>2010-01-02T14:05:02Z</time>
      </trkpt>
      <trkpt lat="43.65427" lon="6.73391">
        <ele>509.4</ele>
        <time>2010-01-02T14:05:08Z</time>
      </trkpt>
      <trkpt lat="43.65435" lon="6.73386">
        <ele>510.1</ele>
        <time>2010-01-02T14:05:14Z</time>
      </trkpt>
      <trkpt lat="43.65446" lon="6.73384">
        <ele>510</ele>
        <time>2010-01-02T14:05:21Z</time>
      </trkpt>
      <trkpt lat="43.65452" lon="6.73374">
        <ele>513</ele>
        <time>2010-01-02T14:05:28Z</time>
      </trkpt>
      <trkpt lat="43.6546" lon="6.73366">
        <ele>513.2</ele>
        <time>2010-01-02T14:05:33Z</time>
      </trkpt>
      <trkpt lat="43.65467" lon="6.73356">
        <ele>513.4</ele>
        <time>2010-01-02T14:05:38Z</time>
      </trkpt>
      <trkpt lat="43.65475" lon="6.73348">
        <ele>513.9</ele>
        <time>2010-01-02T14:05:44Z</time>
      </trkpt>
      <trkpt lat="43.65484" lon="6.73339">
        <ele>513.2</ele>
        <time>2010-01-02T14:05:55Z</time>
      </trkpt>
      <trkpt lat="43.65494" lon="6.73341">
        <ele>510.7</ele>
        <time>2010-01-02T14:06:01Z</time>
      </trkpt>
      <trkpt lat="43.65503" lon="6.73345">
        <ele>508.9</ele>
        <time>2010-01-02T14:06:07Z</time>
      </trkpt>
      <trkpt lat="43.65513" lon="6.73349">
        <ele>507</ele>
        <time>2010-01-02T14:06:12Z</time>
      </trkpt>
      <trkpt lat="43.65524" lon="6.73349">
        <ele>505.8</ele>
        <time>2010-01-02T14:06:17Z</time>
      </trkpt>
      <trkpt lat="43.65535" lon="6.73348">
        <ele>506.6</ele>
        <time>2010-01-02T14:06:22Z</time>
      </trkpt>
      <trkpt lat="43.65544" lon="6.73347">
        <ele>506.8</ele>
        <time>2010-01-02T14:06:27Z</time>
      </trkpt>
      <trkpt lat="43.65554" lon="6.73341">
        <ele>508.6</ele>
        <time>2010-01-02T14:06:35Z</time>
      </trkpt>
      <trkpt lat="43.65565" lon="6.73337">
        <ele>509.4</ele>
        <time>2010-01-02T14:06:40Z</time>
      </trkpt>
      <trkpt lat="43.65574" lon="6.73332">
        <ele>509.4</ele>
        <time>2010-01-02T14:06:43Z</time>
      </trkpt>
      <trkpt lat="43.65583" lon="6.73327">
        <ele>509.5</ele>
        <time>2010-01-02T14:06:46Z</time>
      </trkpt>
      <trkpt lat="43.65593" lon="6.73322">
        <ele>509.6</ele>
        <time>2010-01-02T14:06:49Z</time>
      </trkpt>
      <trkpt lat="43.65603" lon="6.73314">
        <ele>510.5</ele>
        <time>2010-01-02T14:06:53Z</time>
      </trkpt>
      <trkpt lat="43.65611" lon="6.73306">
        <ele>510.2</ele>
        <time>2010-01-02T14:06:57Z</time>
      </trkpt>
      <trkpt lat="43.65621" lon="6.73303">
        <ele>510.6</ele>
        <time>2010-01-02T14:07:02Z</time>
      </trkpt>
      <trkpt lat="43.6563" lon="6.73298">
        <ele>512.2</ele>
        <time>2010-01-02T14:07:07Z</time>
      </trkpt>
      <trkpt lat="43.65639" lon="6.73293">
        <ele>511.7</ele>
        <time>2010-01-02T14:07:11Z</time>
      </trkpt>
      <trkpt lat="43.65649" lon="6.73289">
        <ele>511.6</ele>
        <time>2010-01-02T14:07:15Z</time>
      </trkpt>
      <trkpt lat="43.65659" lon="6.73283">
        <ele>511.4</ele>
        <time>2010-01-02T14:07:20Z</time>
      </trkpt>
      <trkpt lat="43.65668" lon="6.73275">
        <ele>512.9</ele>
        <time>2010-01-02T14:07:24Z</time>
      </trkpt>
      <trkpt lat="43.65679" lon="6.7327">
        <ele>512.5</ele>
        <time>2010-01-02T14:07:28Z</time>
      </trkpt>
      <trkpt lat="43.65689" lon="6.73266">
        <ele>511.9</ele>
        <time>2010-01-02T14:07:32Z</time>
      </trkpt>
      <trkpt lat="43.65698" lon="6.73262">
        <ele>512.4</ele>
        <time>2010-01-02T14:07:36Z</time>
      </trkpt>
      <trkpt lat="43.6571" lon="6.73259">
        <ele>512.1</ele>
        <time>2010-01-02T14:07:40Z</time>
      </trkpt>
      <trkpt lat="43.65719" lon="6.73257">
        <ele>511.5</ele>
        <time>2010-01-02T14:07:43Z</time>
      </trkpt>
      <trkpt lat="43.65729" lon="6.73253">
        <ele>511.8</ele>
        <time>2010-01-02T14:07:47Z</time>
      </trkpt>
      <trkpt lat="43.6574" lon="6.73249">
        <ele>512.6</ele>
        <time>2010-01-02T14:07:51Z</time>
      </trkpt>
      <trkpt lat="43.6575" lon="6.73248">
        <ele>512.3</ele>
        <time>2010-01-02T14:07:54Z</time>
      </trkpt>
      <trkpt lat="43.65761" lon="6.73248">
        <ele>511.2</ele>
        <time>2010-01-02T14:07:58Z</time>
      </trkpt>
      <trkpt lat="43.65772" lon="6.73249">
        <ele>512</ele>
        <time>2010-01-02T14:08:02Z</time>
      </trkpt>
      <trkpt lat="43.65783" lon="6.73247">
        <ele>513.6</ele>
        <time>2010-01-02T14:08:06Z</time>
      </trkpt>
      <trkpt lat="43.65794" lon="6.7325">
        <ele>512.4</ele>
        <time>2010-01-02T14:08:09Z</time>
      </trkpt>
      <trkpt lat="43.65803" lon="6.73255">
        <ele>513</ele>
        <time>2010-01-02T14:08:12Z</time>
      </trkpt>
      <trkpt lat="43.65812" lon="6.73255">
        <ele>512.7</ele>
        <time>2010-01-02T14:08:15Z</time>
      </trkpt>
      <trkpt lat="43.65821" lon="6.73252">
        <ele>511</ele>
        <time>2010-01-02T14:08:20Z</time>
      </trkpt>
      <trkpt lat="43.6583" lon="6.7325">
        <ele>513.1</ele>
        <time>2010-01-02T14:08:27Z</time>
      </trkpt>
      <trkpt lat="43.6584" lon="6.73249">
        <ele>511.9</ele>
        <time>2010-01-02T14:08:34Z</time>
      </trkpt>
      <trkpt lat="43.65849" lon="6.73243">
        <ele>513.7</ele>
        <time>2010-01-02T14:08:41Z</time>
      </trkpt>
      <trkpt lat="43.65858" lon="6.73239">
        <ele>516</ele>
        <time>2010-01-02T14:08:49Z</time>
      </trkpt>
      <trkpt lat="43.65868" lon="6.73239">
        <ele>515.5</ele>
        <time>2010-01-02T14:08:56Z</time>
      </trkpt>
      <trkpt lat="43.65881" lon="6.7323">
        <ele>519.8</ele>
        <time>2010-01-02T14:09:10Z</time>
      </trkpt>
      <trkpt lat="43.65889" lon="6.73223">
        <ele>523.3</ele>
        <time>2010-01-02T14:09:18Z</time>
      </trkpt>
      <trkpt lat="43.65899" lon="6.7322">
        <ele>524.4</ele>
        <time>2010-01-02T14:09:26Z</time>
      </trkpt>
      <trkpt lat="43.65906" lon="6.73213">
        <ele>525.3</ele>
        <time>2010-01-02T14:09:33Z</time>
      </trkpt>
      <trkpt lat="43.65913" lon="6.73204">
        <ele>527.1</ele>
        <time>2010-01-02T14:09:40Z</time>
      </trkpt>
      <trkpt lat="43.6592" lon="6.73194">
        <ele>528.3</ele>
        <time>2010-01-02T14:09:46Z</time>
      </trkpt>
      <trkpt lat="43.65928" lon="6.73188">
        <ele>529.1</ele>
        <time>2010-01-02T14:09:51Z</time>
      </trkpt>
      <trkpt lat="43.65937" lon="6.73181">
        <ele>528.5</ele>
        <time>2010-01-02T14:09:57Z</time>
      </trkpt>
      <trkpt lat="43.65944" lon="6.73173">
        <ele>527.5</ele>
        <time>2010-01-02T14:10:04Z</time>
      </trkpt>
      <trkpt lat="43.65942" lon="6.73159">
        <ele>531</ele>
        <time>2010-01-02T14:10:13Z</time>
      </trkpt>
      <trkpt lat="43.65947" lon="6.73148">
        <ele>531.9</ele>
        <time>2010-01-02T14:10:18Z</time>
      </trkpt>
      <trkpt lat="43.65954" lon="6.73139">
        <ele>525.6</ele>
        <time>2010-01-02T14:10:29Z</time>
      </trkpt>
      <trkpt lat="43.65956" lon="6.73127">
        <ele>526.8</ele>
        <time>2010-01-02T14:10:38Z</time>
      </trkpt>
      <trkpt lat="43.6595" lon="6.73116">
        <ele>527.6</ele>
        <time>2010-01-02T14:10:43Z</time>
      </trkpt>
      <trkpt lat="43.65945" lon="6.73106">
        <ele>530.5</ele>
        <time>2010-01-02T14:10:49Z</time>
      </trkpt>
      <trkpt lat="43.6594" lon="6.73094">
        <ele>536</ele>
        <time>2010-01-02T14:11:07Z</time>
      </trkpt>
      <trkpt lat="43.65963" lon="6.73116">
        <ele>525.4</ele>
        <time>2010-01-02T14:11:30Z</time>
      </trkpt>
      <trkpt lat="43.65971" lon="6.7311">
        <ele>525</ele>
        <time>2010-01-02T14:11:34Z</time>
      </trkpt>
      <trkpt lat="43.65982" lon="6.73107">
        <ele>526.5</ele>
        <time>2010-01-02T14:11:38Z</time>
      </trkpt>
      <trkpt lat="43.65991" lon="6.73105">
        <ele>527.2</ele>
        <time>2010-01-02T14:11:42Z</time>
      </trkpt>
      <trkpt lat="43.66004" lon="6.73105">
        <ele>524.7</ele>
        <time>2010-01-02T14:11:46Z</time>
      </trkpt>
      <trkpt lat="43.66013" lon="6.73106">
        <ele>523</ele>
        <time>2010-01-02T14:11:49Z</time>
      </trkpt>
      <trkpt lat="43.66022" lon="6.73099">
        <ele>522.2</ele>
        <time>2010-01-02T14:11:53Z</time>
      </trkpt>
      <trkpt lat="43.66031" lon="6.73091">
        <ele>521.6</ele>
        <time>2010-01-02T14:11:59Z</time>
      </trkpt>
      <trkpt lat="43.6604" lon="6.73091">
        <ele>521.6</ele>
        <time>2010-01-02T14:12:04Z</time>
      </trkpt>
      <trkpt lat="43.66051" lon="6.73084">
        <ele>521.7</ele>
        <time>2010-01-02T14:12:08Z</time>
      </trkpt>
      <trkpt lat="43.66057" lon="6.73073">
        <ele>523</ele>
        <time>2010-01-02T14:12:12Z</time>
      </trkpt>
      <trkpt lat="43.66059" lon="6.73059">
        <ele>525.8</ele>
        <time>2010-01-02T14:12:16Z</time>
      </trkpt>
      <trkpt lat="43.66062" lon="6.73045">
        <ele>525.2</ele>
        <time>2010-01-02T14:12:19Z</time>
      </trkpt>
      <trkpt lat="43.66063" lon="6.73033">
        <ele>528.3</ele>
        <time>2010-01-02T14:12:24Z</time>
      </trkpt>
      <trkpt lat="43.66063" lon="6.73018">
        <ele>525.3</ele>
        <time>2010-01-02T14:12:31Z</time>
      </trkpt>
      <trkpt lat="43.66064" lon="6.73003">
        <ele>519.7</ele>
        <time>2010-01-02T14:12:36Z</time>
      </trkpt>
      <trkpt lat="43.66073" lon="6.7297">
        <ele>526.4</ele>
        <time>2010-01-02T14:14:46Z</time>
      </trkpt>
      <trkpt lat="43.66083" lon="6.72973">
        <ele>521.8</ele>
        <time>2010-01-02T14:14:51Z</time>
      </trkpt>
      <trkpt lat="43.66093" lon="6.72978">
        <ele>519.8</ele>
        <time>2010-01-02T14:14:56Z</time>
      </trkpt>
      <trkpt lat="43.66102" lon="6.72982">
        <ele>520</ele>
        <time>2010-01-02T14:15:17Z</time>
      </trkpt>
      <trkpt lat="43.66112" lon="6.72987">
        <ele>525.3</ele>
        <time>2010-01-02T14:15:43Z</time>
      </trkpt>
      <trkpt lat="43.66121" lon="6.72988">
        <ele>528.6</ele>
        <time>2010-01-02T14:15:49Z</time>
      </trkpt>
      <trkpt lat="43.6613" lon="6.7299">
        <ele>532.6</ele>
        <time>2010-01-02T14:17:15Z</time>
      </trkpt>
      <trkpt lat="43.66142" lon="6.72994">
        <ele>528.1</ele>
        <time>2010-01-02T14:17:18Z</time>
      </trkpt>
      <trkpt lat="43.66154" lon="6.72995">
        <ele>522.2</ele>
        <time>2010-01-02T14:17:21Z</time>
      </trkpt>
      <trkpt lat="43.66167" lon="6.72994">
        <ele>517.1</ele>
        <time>2010-01-02T14:17:24Z</time>
      </trkpt>
      <trkpt lat="43.66176" lon="6.72991">
        <ele>514.8</ele>
        <time>2010-01-02T14:17:27Z</time>
      </trkpt>
      <trkpt lat="43.66185" lon="6.72984">
        <ele>514.8</ele>
        <time>2010-01-02T14:17:31Z</time>
      </trkpt>
      <trkpt lat="43.66191" lon="6.72972">
        <ele>515.8</ele>
        <time>2010-01-02T14:17:35Z</time>
      </trkpt>
      <trkpt lat="43.66196" lon="6.7296">
        <ele>516.3</ele>
        <time>2010-01-02T14:17:39Z</time>
      </trkpt>
      <trkpt lat="43.662" lon="6.72947">
        <ele>516.7</ele>
        <time>2010-01-02T14:17:43Z</time>
      </trkpt>
      <trkpt lat="43.66205" lon="6.72933">
        <ele>516.9</ele>
        <time>2010-01-02T14:17:47Z</time>
      </trkpt>
      <trkpt lat="43.66211" lon="6.72919">
        <ele>515.6</ele>
        <time>2010-01-02T14:17:52Z</time>
      </trkpt>
      <trkpt lat="43.66216" lon="6.72908">
        <ele>516.4</ele>
        <time>2010-01-02T14:17:55Z</time>
      </trkpt>
      <trkpt lat="43.66221" lon="6.72897">
        <ele>517.8</ele>
        <time>2010-01-02T14:17:58Z</time>
      </trkpt>
      <trkpt lat="43.66227" lon="6.72884">
        <ele>518.1</ele>
        <time>2010-01-02T14:18:01Z</time>
      </trkpt>
      <trkpt lat="43.66233" lon="6.72873">
        <ele>519.7</ele>
        <time>2010-01-02T14:18:04Z</time>
      </trkpt>
      <trkpt lat="43.6624" lon="6.72863">
        <ele>521.1</ele>
        <time>2010-01-02T14:18:07Z</time>
      </trkpt>
      <trkpt lat="43.66247" lon="6.72851">
        <ele>520.4</ele>
        <time>2010-01-02T14:18:10Z</time>
      </trkpt>
      <trkpt lat="43.66253" lon="6.7284">
        <ele>520.5</ele>
        <time>2010-01-02T14:18:13Z</time>
      </trkpt>
      <trkpt lat="43.66261" lon="6.72828">
        <ele>521.9</ele>
        <time>2010-01-02T14:18:17Z</time>
      </trkpt>
      <trkpt lat="43.66268" lon="6.72819">
        <ele>523.1</ele>
        <time>2010-01-02T14:18:20Z</time>
      </trkpt>
      <trkpt lat="43.66275" lon="6.72809">
        <ele>525.2</ele>
        <time>2010-01-02T14:18:23Z</time>
      </trkpt>
      <trkpt lat="43.66281" lon="6.72798">
        <ele>526.5</ele>
        <time>2010-01-02T14:18:26Z</time>
      </trkpt>
      <trkpt lat="43.66287" lon="6.72787">
        <ele>527.9</ele>
        <time>2010-01-02T14:18:29Z</time>
      </trkpt>
      <trkpt lat="43.66291" lon="6.72776">
        <ele>528.9</ele>
        <time>2010-01-02T14:18:32Z</time>
      </trkpt>
      <trkpt lat="43.66298" lon="6.72763">
        <ele>527.5</ele>
        <time>2010-01-02T14:18:36Z</time>
      </trkpt>
      <trkpt lat="43.66306" lon="6.72751">
        <ele>528.2</ele>
        <time>2010-01-02T14:18:40Z</time>
      </trkpt>
      <trkpt lat="43.66313" lon="6.72739">
        <ele>527.4</ele>
        <time>2010-01-02T14:18:44Z</time>
      </trkpt>
      <trkpt lat="43.66321" lon="6.72731">
        <ele>525.4</ele>
        <time>2010-01-02T14:18:47Z</time>
      </trkpt>
      <trkpt lat="43.6633" lon="6.72727">
        <ele>526.1</ele>
        <time>2010-01-02T14:18:51Z</time>
      </trkpt>
      <trkpt lat="43.66341" lon="6.72728">
        <ele>523.8</ele>
        <time>2010-01-02T14:18:55Z</time>
      </trkpt>
      <trkpt lat="43.66351" lon="6.72731">
        <ele>521.4</ele>
        <time>2010-01-02T14:18:59Z</time>
      </trkpt>
      <trkpt lat="43.66359" lon="6.72739">
        <ele>519.4</ele>
        <time>2010-01-02T14:19:02Z</time>
      </trkpt>
      <trkpt lat="43.66367" lon="6.72751">
        <ele>517.1</ele>
        <time>2010-01-02T14:19:06Z</time>
      </trkpt>
      <trkpt lat="43.66374" lon="6.72762">
        <ele>517</ele>
        <time>2010-01-02T14:19:10Z</time>
      </trkpt>
      <trkpt lat="43.66381" lon="6.72773">
        <ele>516.4</ele>
        <time>2010-01-02T14:19:14Z</time>
      </trkpt>
      <trkpt lat="43.66388" lon="6.72782">
        <ele>515.4</ele>
        <time>2010-01-02T14:19:17Z</time>
      </trkpt>
      <trkpt lat="43.66396" lon="6.7279">
        <ele>514.7</ele>
        <time>2010-01-02T14:19:20Z</time>
      </trkpt>
      <trkpt lat="43.66403" lon="6.72799">
        <ele>514.8</ele>
        <time>2010-01-02T14:19:23Z</time>
      </trkpt>
      <trkpt lat="43.66405" lon="6.72815">
        <ele>514.9</ele>
        <time>2010-01-02T14:19:27Z</time>
      </trkpt>
      <trkpt lat="43.66406" lon="6.72829">
        <ele>516</ele>
        <time>2010-01-02T14:19:30Z</time>
      </trkpt>
      <trkpt lat="43.66404" lon="6.72842">
        <ele>518</ele>
        <time>2010-01-02T14:19:33Z</time>
      </trkpt>
      <trkpt lat="43.66404" lon="6.72858">
        <ele>519.2</ele>
        <time>2010-01-02T14:19:36Z</time>
      </trkpt>
      <trkpt lat="43.66407" lon="6.72872">
        <ele>520.6</ele>
        <time>2010-01-02T14:19:39Z</time>
      </trkpt>
      <trkpt lat="43.6641" lon="6.72886">
        <ele>522.2</ele>
        <time>2010-01-02T14:19:43Z</time>
      </trkpt>
      <trkpt lat="43.66409" lon="6.72899">
        <ele>522.1</ele>
        <time>2010-01-02T14:19:47Z</time>
      </trkpt>
      <trkpt lat="43.66409" lon="6.72914">
        <ele>520.9</ele>
        <time>2010-01-02T14:19:51Z</time>
      </trkpt>
      <trkpt lat="43.6641" lon="6.72926">
        <ele>520.8</ele>
        <time>2010-01-02T14:19:55Z</time>
      </trkpt>
      <trkpt lat="43.66414" lon="6.72951">
        <ele>517.3</ele>
        <time>2010-01-02T14:20:16Z</time>
      </trkpt>
      <trkpt lat="43.66418" lon="6.72963">
        <ele>518.1</ele>
        <time>2010-01-02T14:20:21Z</time>
      </trkpt>
      <trkpt lat="43.66419" lon="6.72976">
        <ele>518.6</ele>
        <time>2010-01-02T14:20:25Z</time>
      </trkpt>
      <trkpt lat="43.66423" lon="6.72989">
        <ele>519.7</ele>
        <time>2010-01-02T14:20:29Z</time>
      </trkpt>
      <trkpt lat="43.66426" lon="6.73001">
        <ele>519.2</ele>
        <time>2010-01-02T14:20:32Z</time>
      </trkpt>
      <trkpt lat="43.66429" lon="6.73016">
        <ele>520.8</ele>
        <time>2010-01-02T14:20:36Z</time>
      </trkpt>
      <trkpt lat="43.66433" lon="6.73029">
        <ele>520.7</ele>
        <time>2010-01-02T14:20:39Z</time>
      </trkpt>
      <trkpt lat="43.66439" lon="6.7304">
        <ele>522.5</ele>
        <time>2010-01-02T14:20:43Z</time>
      </trkpt>
      <trkpt lat="43.66446" lon="6.73052">
        <ele>523.7</ele>
        <time>2010-01-02T14:20:47Z</time>
      </trkpt>
      <trkpt lat="43.66454" lon="6.73061">
        <ele>524.8</ele>
        <time>2010-01-02T14:20:51Z</time>
      </trkpt>
      <trkpt lat="43.66465" lon="6.73065">
        <ele>524.5</ele>
        <time>2010-01-02T14:20:55Z</time>
      </trkpt>
      <trkpt lat="43.66476" lon="6.73069">
        <ele>525.6</ele>
        <time>2010-01-02T14:20:59Z</time>
      </trkpt>
      <trkpt lat="43.66486" lon="6.73072">
        <ele>524</ele>
        <time>2010-01-02T14:21:02Z</time>
      </trkpt>
      <trkpt lat="43.66495" lon="6.73073">
        <ele>521.8</ele>
        <time>2010-01-02T14:21:05Z</time>
      </trkpt>
      <trkpt lat="43.66504" lon="6.73076">
        <ele>520.2</ele>
        <time>2010-01-02T14:21:09Z</time>
      </trkpt>
      <trkpt lat="43.66514" lon="6.73075">
        <ele>521.9</ele>
        <time>2010-01-02T14:21:21Z</time>
      </trkpt>
      <trkpt lat="43.66524" lon="6.73074">
        <ele>523.5</ele>
        <time>2010-01-02T14:21:28Z</time>
      </trkpt>
      <trkpt lat="43.66533" lon="6.73076">
        <ele>523.3</ele>
        <time>2010-01-02T14:21:38Z</time>
      </trkpt>
      <trkpt lat="43.66538" lon="6.73062">
        <ele>522.5</ele>
        <time>2010-01-02T14:22:23Z</time>
      </trkpt>
      <trkpt lat="43.66548" lon="6.73061">
        <ele>524.8</ele>
        <time>2010-01-02T14:22:32Z</time>
      </trkpt>
      <trkpt lat="43.66558" lon="6.73064">
        <ele>523.9</ele>
        <time>2010-01-02T14:22:37Z</time>
      </trkpt>
      <trkpt lat="43.66568" lon="6.73067">
        <ele>521.2</ele>
        <time>2010-01-02T14:22:41Z</time>
      </trkpt>
      <trkpt lat="43.66578" lon="6.7307">
        <ele>519.7</ele>
        <time>2010-01-02T14:22:45Z</time>
      </trkpt>
      <trkpt lat="43.66589" lon="6.73072">
        <ele>517.2</ele>
        <time>2010-01-02T14:22:49Z</time>
      </trkpt>
      <trkpt lat="43.66596" lon="6.73063">
        <ele>516.3</ele>
        <time>2010-01-02T14:22:53Z</time>
      </trkpt>
      <trkpt lat="43.66602" lon="6.73053">
        <ele>516.7</ele>
        <time>2010-01-02T14:22:58Z</time>
      </trkpt>
      <trkpt lat="43.66609" lon="6.73041">
        <ele>517.1</ele>
        <time>2010-01-02T14:23:03Z</time>
      </trkpt>
      <trkpt lat="43.66613" lon="6.7303">
        <ele>516.2</ele>
        <time>2010-01-02T14:23:07Z</time>
      </trkpt>
      <trkpt lat="43.66617" lon="6.73016">
        <ele>518.1</ele>
        <time>2010-01-02T14:23:12Z</time>
      </trkpt>
      <trkpt lat="43.66624" lon="6.73005">
        <ele>519.3</ele>
        <time>2010-01-02T14:23:16Z</time>
      </trkpt>
      <trkpt lat="43.66632" lon="6.72997">
        <ele>520.2</ele>
        <time>2010-01-02T14:23:20Z</time>
      </trkpt>
      <trkpt lat="43.6664" lon="6.72987">
        <ele>525.7</ele>
        <time>2010-01-02T14:23:47Z</time>
      </trkpt>
      <trkpt lat="43.66647" lon="6.72975">
        <ele>524.8</ele>
        <time>2010-01-02T14:23:50Z</time>
      </trkpt>
      <trkpt lat="43.6665" lon="6.72963">
        <ele>521.5</ele>
        <time>2010-01-02T14:24:01Z</time>
      </trkpt>
      <trkpt lat="43.66654" lon="6.72948">
        <ele>517.8</ele>
        <time>2010-01-02T14:24:09Z</time>
      </trkpt>
      <trkpt lat="43.66659" lon="6.72937">
        <ele>515.3</ele>
        <time>2010-01-02T14:24:15Z</time>
      </trkpt>
      <trkpt lat="43.66676" lon="6.7292">
        <ele>520.9</ele>
        <time>2010-01-02T14:24:25Z</time>
      </trkpt>
      <trkpt lat="43.66682" lon="6.72909">
        <ele>518.1</ele>
        <time>2010-01-02T14:24:29Z</time>
      </trkpt>
      <trkpt lat="43.66688" lon="6.72898">
        <ele>518.5</ele>
        <time>2010-01-02T14:24:35Z</time>
      </trkpt>
      <trkpt lat="43.66697" lon="6.7289">
        <ele>521.3</ele>
        <time>2010-01-02T14:24:41Z</time>
      </trkpt>
      <trkpt lat="43.66706" lon="6.72891">
        <ele>524.9</ele>
        <time>2010-01-02T14:24:46Z</time>
      </trkpt>
      <trkpt lat="43.66714" lon="6.72883">
        <ele>524.1</ele>
        <time>2010-01-02T14:24:50Z</time>
      </trkpt>
      <trkpt lat="43.66725" lon="6.7288">
        <ele>524.5</ele>
        <time>2010-01-02T14:24:55Z</time>
      </trkpt>
      <trkpt lat="43.66736" lon="6.72883">
        <ele>525.2</ele>
        <time>2010-01-02T14:25:01Z</time>
      </trkpt>
      <trkpt lat="43.66745" lon="6.72886">
        <ele>523.8</ele>
        <time>2010-01-02T14:25:04Z</time>
      </trkpt>
      <trkpt lat="43.66755" lon="6.72884">
        <ele>522.1</ele>
        <time>2010-01-02T14:25:36Z</time>
      </trkpt>
      <trkpt lat="43.66761" lon="6.72894">
        <ele>526.6</ele>
        <time>2010-01-02T14:26:06Z</time>
      </trkpt>
      <trkpt lat="43.66771" lon="6.72889">
        <ele>522.4</ele>
        <time>2010-01-02T14:26:12Z</time>
      </trkpt>
      <trkpt lat="43.66777" lon="6.72879">
        <ele>520.5</ele>
        <time>2010-01-02T14:26:17Z</time>
      </trkpt>
      <trkpt lat="43.66785" lon="6.72871">
        <ele>521.1</ele>
        <time>2010-01-02T14:26:22Z</time>
      </trkpt>
      <trkpt lat="43.66792" lon="6.72864">
        <ele>521.4</ele>
        <time>2010-01-02T14:26:27Z</time>
      </trkpt>
      <trkpt lat="43.66795" lon="6.72849">
        <ele>520.7</ele>
        <time>2010-01-02T14:26:32Z</time>
      </trkpt>
      <trkpt lat="43.66794" lon="6.72833">
        <ele>519.9</ele>
        <time>2010-01-02T14:26:37Z</time>
      </trkpt>
      <trkpt lat="43.66793" lon="6.7282">
        <ele>520.2</ele>
        <time>2010-01-02T14:26:42Z</time>
      </trkpt>
      <trkpt lat="43.66792" lon="6.72805">
        <ele>520.1</ele>
        <time>2010-01-02T14:26:47Z</time>
      </trkpt>
      <trkpt lat="43.6679" lon="6.7279">
        <ele>520.7</ele>
        <time>2010-01-02T14:26:51Z</time>
      </trkpt>
      <trkpt lat="43.66791" lon="6.72774">
        <ele>520.6</ele>
        <time>2010-01-02T14:26:55Z</time>
      </trkpt>
      <trkpt lat="43.66791" lon="6.72761">
        <ele>520.7</ele>
        <time>2010-01-02T14:26:59Z</time>
      </trkpt>
      <trkpt lat="43.6679" lon="6.72747">
        <ele>523.3</ele>
        <time>2010-01-02T14:27:06Z</time>
      </trkpt>
      <trkpt lat="43.66794" lon="6.72734">
        <ele>527.1</ele>
        <time>2010-01-02T14:27:11Z</time>
      </trkpt>
      <trkpt lat="43.668" lon="6.72723">
        <ele>526.7</ele>
        <time>2010-01-02T14:27:16Z</time>
      </trkpt>
      <trkpt lat="43.66807" lon="6.7271">
        <ele>523.5</ele>
        <time>2010-01-02T14:27:20Z</time>
      </trkpt>
      <trkpt lat="43.66812" lon="6.72697">
        <ele>521.7</ele>
        <time>2010-01-02T14:27:24Z</time>
      </trkpt>
      <trkpt lat="43.66812" lon="6.72683">
        <ele>520.9</ele>
        <time>2010-01-02T14:27:27Z</time>
      </trkpt>
      <trkpt lat="43.66814" lon="6.72668">
        <ele>520.3</ele>
        <time>2010-01-02T14:27:32Z</time>
      </trkpt>
      <trkpt lat="43.66818" lon="6.72653">
        <ele>520.5</ele>
        <time>2010-01-02T14:27:36Z</time>
      </trkpt>
      <trkpt lat="43.66823" lon="6.72639">
        <ele>520.8</ele>
        <time>2010-01-02T14:27:40Z</time>
      </trkpt>
      <trkpt lat="43.66829" lon="6.72626">
        <ele>521.5</ele>
        <time>2010-01-02T14:27:44Z</time>
      </trkpt>
      <trkpt lat="43.66833" lon="6.72611">
        <ele>521.3</ele>
        <time>2010-01-02T14:27:48Z</time>
      </trkpt>
      <trkpt lat="43.66836" lon="6.72596">
        <ele>520.5</ele>
        <time>2010-01-02T14:27:52Z</time>
      </trkpt>
      <trkpt lat="43.66838" lon="6.72582">
        <ele>520</ele>
        <time>2010-01-02T14:27:55Z</time>
      </trkpt>
      <trkpt lat="43.66843" lon="6.72568">
        <ele>519.7</ele>
        <time>2010-01-02T14:27:59Z</time>
      </trkpt>
      <trkpt lat="43.66847" lon="6.72554">
        <ele>519.1</ele>
        <time>2010-01-02T14:28:03Z</time>
      </trkpt>
      <trkpt lat="43.6685" lon="6.72542">
        <ele>518.7</ele>
        <time>2010-01-02T14:28:06Z</time>
      </trkpt>
      <trkpt lat="43.66853" lon="6.72527">
        <ele>518.6</ele>
        <time>2010-01-02T14:28:10Z</time>
      </trkpt>
      <trkpt lat="43.66853" lon="6.72512">
        <ele>518.4</ele>
        <time>2010-01-02T14:28:14Z</time>
      </trkpt>
      <trkpt lat="43.66853" lon="6.72498">
        <ele>519</ele>
        <time>2010-01-02T14:28:18Z</time>
      </trkpt>
      <trkpt lat="43.66853" lon="6.72485">
        <ele>519.1</ele>
        <time>2010-01-02T14:28:22Z</time>
      </trkpt>
      <trkpt lat="43.6685" lon="6.72472">
        <ele>519.4</ele>
        <time>2010-01-02T14:28:26Z</time>
      </trkpt>
      <trkpt lat="43.66846" lon="6.72458">
        <ele>519.5</ele>
        <time>2010-01-02T14:28:31Z</time>
      </trkpt>
      <trkpt lat="43.66842" lon="6.72445">
        <ele>520.7</ele>
        <time>2010-01-02T14:28:36Z</time>
      </trkpt>
      <trkpt lat="43.66837" lon="6.72431">
        <ele>520.5</ele>
        <time>2010-01-02T14:28:41Z</time>
      </trkpt>
      <trkpt lat="43.6683" lon="6.72419">
        <ele>520.2</ele>
        <time>2010-01-02T14:28:46Z</time>
      </trkpt>
      <trkpt lat="43.66825" lon="6.72406">
        <ele>520.6</ele>
        <time>2010-01-02T14:28:50Z</time>
      </trkpt>
      <trkpt lat="43.66826" lon="6.72391">
        <ele>522.8</ele>
        <time>2010-01-02T14:28:55Z</time>
      </trkpt>
      <trkpt lat="43.66829" lon="6.72378">
        <ele>523.1</ele>
        <time>2010-01-02T14:28:59Z</time>
      </trkpt>
      <trkpt lat="43.66829" lon="6.72362">
        <ele>522.6</ele>
        <time>2010-01-02T14:29:03Z</time>
      </trkpt>
      <trkpt lat="43.66827" lon="6.72349">
        <ele>522.7</ele>
        <time>2010-01-02T14:29:07Z</time>
      </trkpt>
      <trkpt lat="43.66829" lon="6.72334">
        <ele>523.1</ele>
        <time>2010-01-02T14:29:12Z</time>
      </trkpt>
      <trkpt lat="43.66831" lon="6.72319">
        <ele>523.8</ele>
        <time>2010-01-02T14:29:16Z</time>
      </trkpt>
      <trkpt lat="43.66836" lon="6.72308">
        <ele>524.3</ele>
        <time>2010-01-02T14:29:20Z</time>
      </trkpt>
      <trkpt lat="43.66845" lon="6.72297">
        <ele>524.3</ele>
        <time>2010-01-02T14:29:24Z</time>
      </trkpt>
      <trkpt lat="43.66852" lon="6.72288">
        <ele>523.6</ele>
        <time>2010-01-02T14:29:27Z</time>
      </trkpt>
      <trkpt lat="43.66859" lon="6.72277">
        <ele>523.7</ele>
        <time>2010-01-02T14:29:31Z</time>
      </trkpt>
      <trkpt lat="43.66866" lon="6.72267">
        <ele>524.1</ele>
        <time>2010-01-02T14:29:35Z</time>
      </trkpt>
      <trkpt lat="43.66872" lon="6.72257">
        <ele>523.7</ele>
        <time>2010-01-02T14:29:39Z</time>
      </trkpt>
      <trkpt lat="43.66879" lon="6.72247">
        <ele>524</ele>
        <time>2010-01-02T14:29:43Z</time>
      </trkpt>
      <trkpt lat="43.66886" lon="6.72238">
        <ele>524.3</ele>
        <time>2010-01-02T14:29:47Z</time>
      </trkpt>
      <trkpt lat="43.66896" lon="6.72233">
        <ele>525.2</ele>
        <time>2010-01-02T14:29:51Z</time>
      </trkpt>
      <trkpt lat="43.66908" lon="6.72232">
        <ele>525.7</ele>
        <time>2010-01-02T14:29:55Z</time>
      </trkpt>
      <trkpt lat="43.66918" lon="6.72231">
        <ele>525.9</ele>
        <time>2010-01-02T14:29:58Z</time>
      </trkpt>
      <trkpt lat="43.66927" lon="6.72228">
        <ele>526.4</ele>
        <time>2010-01-02T14:30:01Z</time>
      </trkpt>
      <trkpt lat="43.66938" lon="6.72224">
        <ele>528</ele>
        <time>2010-01-02T14:30:05Z</time>
      </trkpt>
      <trkpt lat="43.66949" lon="6.72221">
        <ele>528.5</ele>
        <time>2010-01-02T14:30:08Z</time>
      </trkpt>
      <trkpt lat="43.66957" lon="6.7221">
        <ele>528.9</ele>
        <time>2010-01-02T14:30:12Z</time>
      </trkpt>
      <trkpt lat="43.6696" lon="6.72198">
        <ele>529.6</ele>
        <time>2010-01-02T14:30:16Z</time>
      </trkpt>
      <trkpt lat="43.66961" lon="6.72185">
        <ele>530.5</ele>
        <time>2010-01-02T14:30:20Z</time>
      </trkpt>
      <trkpt lat="43.66964" lon="6.72172">
        <ele>529.9</ele>
        <time>2010-01-02T14:30:24Z</time>
      </trkpt>
      <trkpt lat="43.66965" lon="6.72157">
        <ele>529.1</ele>
        <time>2010-01-02T14:30:28Z</time>
      </trkpt>
      <trkpt lat="43.66967" lon="6.72143">
        <ele>528.7</ele>
        <time>2010-01-02T14:30:31Z</time>
      </trkpt>
      <trkpt lat="43.66968" lon="6.72128">
        <ele>527.8</ele>
        <time>2010-01-02T14:30:34Z</time>
      </trkpt>
      <trkpt lat="43.66972" lon="6.72115">
        <ele>527.2</ele>
        <time>2010-01-02T14:30:36Z</time>
      </trkpt>
      <trkpt lat="43.66974" lon="6.721">
        <ele>523.7</ele>
        <time>2010-01-02T14:30:38Z</time>
      </trkpt>
      <trkpt lat="43.66972" lon="6.72085">
        <ele>523.2</ele>
        <time>2010-01-02T14:30:42Z</time>
      </trkpt>
      <trkpt lat="43.6697" lon="6.72071">
        <ele>525.3</ele>
        <time>2010-01-02T14:30:46Z</time>
      </trkpt>
      <trkpt lat="43.66972" lon="6.72058">
        <ele>527.2</ele>
        <time>2010-01-02T14:30:49Z</time>
      </trkpt>
      <trkpt lat="43.6697" lon="6.72046">
        <ele>528.4</ele>
        <time>2010-01-02T14:30:53Z</time>
      </trkpt>
      <trkpt lat="43.66968" lon="6.72033">
        <ele>524.7</ele>
        <time>2010-01-02T14:30:58Z</time>
      </trkpt>
      <trkpt lat="43.66969" lon="6.72016">
        <ele>524.4</ele>
        <time>2010-01-02T14:31:31Z</time>
      </trkpt>
      <trkpt lat="43.66977" lon="6.72009">
        <ele>523.1</ele>
        <time>2010-01-02T14:31:39Z</time>
      </trkpt>
      <trkpt lat="43.66985" lon="6.72014">
        <ele>522.4</ele>
        <time>2010-01-02T14:31:44Z</time>
      </trkpt>
      <trkpt lat="43.66993" lon="6.72024">
        <ele>523.6</ele>
        <time>2010-01-02T14:31:49Z</time>
      </trkpt>
      <trkpt lat="43.67001" lon="6.72033">
        <ele>524.1</ele>
        <time>2010-01-02T14:31:53Z</time>
      </trkpt>
      <trkpt lat="43.67009" lon="6.7204">
        <ele>524.7</ele>
        <time>2010-01-02T14:31:57Z</time>
      </trkpt>
      <trkpt lat="43.67019" lon="6.72046">
        <ele>523.7</ele>
        <time>2010-01-02T14:32:01Z</time>
      </trkpt>
      <trkpt lat="43.67028" lon="6.72051">
        <ele>524.7</ele>
        <time>2010-01-02T14:32:05Z</time>
      </trkpt>
      <trkpt lat="43.67037" lon="6.72061">
        <ele>525.9</ele>
        <time>2010-01-02T14:32:09Z</time>
      </trkpt>
      <trkpt lat="43.67045" lon="6.72069">
        <ele>528.2</ele>
        <time>2010-01-02T14:32:14Z</time>
      </trkpt>
      <trkpt lat="43.67053" lon="6.72075">
        <ele>532.5</ele>
        <time>2010-01-02T14:32:24Z</time>
      </trkpt>
      <trkpt lat="43.67063" lon="6.72075">
        <ele>536</ele>
        <time>2010-01-02T14:32:37Z</time>
      </trkpt>
      <trkpt lat="43.67072" lon="6.72077">
        <ele>540.4</ele>
        <time>2010-01-02T14:32:44Z</time>
      </trkpt>
      <trkpt lat="43.671" lon="6.72091">
        <ele>529.8</ele>
        <time>2010-01-02T14:33:20Z</time>
      </trkpt>
      <trkpt lat="43.67092" lon="6.72083">
        <ele>528.4</ele>
        <time>2010-01-02T14:34:20Z</time>
      </trkpt>
      <trkpt lat="43.67083" lon="6.72083">
        <ele>529.5</ele>
        <time>2010-01-02T14:36:16Z</time>
      </trkpt>
      <trkpt lat="43.66985" lon="6.72032">
        <ele>530.5</ele>
        <time>2010-01-02T14:37:16Z</time>
      </trkpt>
      <trkpt lat="43.66985" lon="6.72048">
        <ele>529.8</ele>
        <time>2010-01-02T14:37:21Z</time>
      </trkpt>
      <trkpt lat="43.66987" lon="6.72062">
        <ele>530.7</ele>
        <time>2010-01-02T14:37:25Z</time>
      </trkpt>
      <trkpt lat="43.66992" lon="6.72076">
        <ele>531.8</ele>
        <time>2010-01-02T14:37:29Z</time>
      </trkpt>
      <trkpt lat="43.66995" lon="6.72088">
        <ele>534.1</ele>
        <time>2010-01-02T14:37:33Z</time>
      </trkpt>
      <trkpt lat="43.66997" lon="6.721">
        <ele>535.9</ele>
        <time>2010-01-02T14:37:37Z</time>
      </trkpt>
      <trkpt lat="43.66997" lon="6.72115">
        <ele>535.9</ele>
        <time>2010-01-02T14:37:41Z</time>
      </trkpt>
      <trkpt lat="43.66995" lon="6.7213">
        <ele>534.2</ele>
        <time>2010-01-02T14:37:45Z</time>
      </trkpt>
      <trkpt lat="43.66993" lon="6.72144">
        <ele>534.5</ele>
        <time>2010-01-02T14:37:49Z</time>
      </trkpt>
      <trkpt lat="43.6699" lon="6.72157">
        <ele>533.5</ele>
        <time>2010-01-02T14:37:53Z</time>
      </trkpt>
      <trkpt lat="43.66987" lon="6.72169">
        <ele>534.3</ele>
        <time>2010-01-02T14:37:57Z</time>
      </trkpt>
      <trkpt lat="43.66985" lon="6.72183">
        <ele>534.9</ele>
        <time>2010-01-02T14:38:02Z</time>
      </trkpt>
      <trkpt lat="43.6698" lon="6.72195">
        <ele>534</ele>
        <time>2010-01-02T14:38:06Z</time>
      </trkpt>
      <trkpt lat="43.66969" lon="6.72203">
        <ele>530.6</ele>
        <time>2010-01-02T14:38:09Z</time>
      </trkpt>
      <trkpt lat="43.66842" lon="6.72284">
        <ele>524.7</ele>
        <time>2010-01-02T14:39:14Z</time>
      </trkpt>
      <trkpt lat="43.66846" lon="6.72272">
        <ele>524.8</ele>
        <time>2010-01-02T14:39:20Z</time>
      </trkpt>
      <trkpt lat="43.6685" lon="6.72259">
        <ele>525.5</ele>
        <time>2010-01-02T14:39:26Z</time>
      </trkpt>
      <trkpt lat="43.66855" lon="6.72247">
        <ele>526.7</ele>
        <time>2010-01-02T14:39:32Z</time>
      </trkpt>
      <trkpt lat="43.6686" lon="6.72235">
        <ele>528.1</ele>
        <time>2010-01-02T14:39:39Z</time>
      </trkpt>
      <trkpt lat="43.66865" lon="6.72224">
        <ele>527.8</ele>
        <time>2010-01-02T14:39:45Z</time>
      </trkpt>
      <trkpt lat="43.66871" lon="6.72212">
        <ele>528.8</ele>
        <time>2010-01-02T14:39:52Z</time>
      </trkpt>
      <trkpt lat="43.66878" lon="6.72203">
        <ele>530.6</ele>
        <time>2010-01-02T14:39:58Z</time>
      </trkpt>
      <trkpt lat="43.66885" lon="6.72194">
        <ele>532</ele>
        <time>2010-01-02T14:40:04Z</time>
      </trkpt>
      <trkpt lat="43.66891" lon="6.72185">
        <ele>534</ele>
        <time>2010-01-02T14:40:10Z</time>
      </trkpt>
      <trkpt lat="43.66898" lon="6.72175">
        <ele>536.5</ele>
        <time>2010-01-02T14:40:17Z</time>
      </trkpt>
      <trkpt lat="43.66906" lon="6.72166">
        <ele>537.7</ele>
        <time>2010-01-02T14:40:23Z</time>
      </trkpt>
      <trkpt lat="43.66913" lon="6.72156">
        <ele>539.2</ele>
        <time>2010-01-02T14:40:30Z</time>
      </trkpt>
      <trkpt lat="43.6692" lon="6.72146">
        <ele>538.4</ele>
        <time>2010-01-02T14:40:37Z</time>
      </trkpt>
      <trkpt lat="43.66925" lon="6.72134">
        <ele>540</ele>
        <time>2010-01-02T14:40:43Z</time>
      </trkpt>
      <trkpt lat="43.66928" lon="6.72122">
        <ele>542.3</ele>
        <time>2010-01-02T14:40:50Z</time>
      </trkpt>
      <trkpt lat="43.6693" lon="6.72109">
        <ele>542.1</ele>
        <time>2010-01-02T14:40:55Z</time>
      </trkpt>
      <trkpt lat="43.66931" lon="6.72095">
        <ele>541.1</ele>
        <time>2010-01-02T14:41:00Z</time>
      </trkpt>
      <trkpt lat="43.6693" lon="6.7208">
        <ele>539.9</ele>
        <time>2010-01-02T14:41:05Z</time>
      </trkpt>
      <trkpt lat="43.6693" lon="6.72067">
        <ele>538.9</ele>
        <time>2010-01-02T14:41:10Z</time>
      </trkpt>
      <trkpt lat="43.66929" lon="6.72053">
        <ele>538.3</ele>
        <time>2010-01-02T14:41:15Z</time>
      </trkpt>
      <trkpt lat="43.6693" lon="6.72037">
        <ele>537.8</ele>
        <time>2010-01-02T14:41:19Z</time>
      </trkpt>
      <trkpt lat="43.66931" lon="6.72025">
        <ele>537.2</ele>
        <time>2010-01-02T14:41:22Z</time>
      </trkpt>
      <trkpt lat="43.66931" lon="6.7201">
        <ele>536.4</ele>
        <time>2010-01-02T14:41:26Z</time>
      </trkpt>
      <trkpt lat="43.66932" lon="6.71997">
        <ele>535.6</ele>
        <time>2010-01-02T14:41:30Z</time>
      </trkpt>
      <trkpt lat="43.66932" lon="6.71983">
        <ele>535.3</ele>
        <time>2010-01-02T14:41:34Z</time>
      </trkpt>
      <trkpt lat="43.66932" lon="6.7197">
        <ele>534.9</ele>
        <time>2010-01-02T14:41:38Z</time>
      </trkpt>
      <trkpt lat="43.6693" lon="6.71955">
        <ele>535.1</ele>
        <time>2010-01-02T14:41:43Z</time>
      </trkpt>
      <trkpt lat="43.66928" lon="6.7194">
        <ele>535.5</ele>
        <time>2010-01-02T14:41:48Z</time>
      </trkpt>
      <trkpt lat="43.66924" lon="6.71928">
        <ele>536.1</ele>
        <time>2010-01-02T14:41:53Z</time>
      </trkpt>
      <trkpt lat="43.66922" lon="6.71913">
        <ele>536.2</ele>
        <time>2010-01-02T14:41:58Z</time>
      </trkpt>
      <trkpt lat="43.6692" lon="6.71899">
        <ele>536.7</ele>
        <time>2010-01-02T14:42:02Z</time>
      </trkpt>
      <trkpt lat="43.66917" lon="6.71886">
        <ele>537.7</ele>
        <time>2010-01-02T14:42:06Z</time>
      </trkpt>
      <trkpt lat="43.66913" lon="6.71873">
        <ele>538.1</ele>
        <time>2010-01-02T14:42:10Z</time>
      </trkpt>
      <trkpt lat="43.6691" lon="6.71861">
        <ele>538.6</ele>
        <time>2010-01-02T14:42:14Z</time>
      </trkpt>
      <trkpt lat="43.66902" lon="6.71849">
        <ele>539</ele>
        <time>2010-01-02T14:42:19Z</time>
      </trkpt>
      <trkpt lat="43.66895" lon="6.7184">
        <ele>539.3</ele>
        <time>2010-01-02T14:42:23Z</time>
      </trkpt>
      <trkpt lat="43.66887" lon="6.71831">
        <ele>539.4</ele>
        <time>2010-01-02T14:42:27Z</time>
      </trkpt>
      <trkpt lat="43.66879" lon="6.71824">
        <ele>539.9</ele>
        <time>2010-01-02T14:42:31Z</time>
      </trkpt>
      <trkpt lat="43.66871" lon="6.71817">
        <ele>540.2</ele>
        <time>2010-01-02T14:42:35Z</time>
      </trkpt>
      <trkpt lat="43.66862" lon="6.71812">
        <ele>540.9</ele>
        <time>2010-01-02T14:42:39Z</time>
      </trkpt>
      <trkpt lat="43.66853" lon="6.71805">
        <ele>541.7</ele>
        <time>2010-01-02T14:42:44Z</time>
      </trkpt>
      <trkpt lat="43.66844" lon="6.718">
        <ele>542.2</ele>
        <time>2010-01-02T14:42:49Z</time>
      </trkpt>
      <trkpt lat="43.66834" lon="6.71794">
        <ele>542.6</ele>
        <time>2010-01-02T14:42:54Z</time>
      </trkpt>
      <trkpt lat="43.66824" lon="6.71788">
        <ele>543.1</ele>
        <time>2010-01-02T14:42:59Z</time>
      </trkpt>
      <trkpt lat="43.66814" lon="6.71783">
        <ele>543.9</ele>
        <time>2010-01-02T14:43:04Z</time>
      </trkpt>
      <trkpt lat="43.66804" lon="6.71778">
        <ele>544.7</ele>
        <time>2010-01-02T14:43:09Z</time>
      </trkpt>
      <trkpt lat="43.66794" lon="6.71775">
        <ele>545.3</ele>
        <time>2010-01-02T14:43:14Z</time>
      </trkpt>
      <trkpt lat="43.66785" lon="6.71776">
        <ele>545.3</ele>
        <time>2010-01-02T14:43:19Z</time>
      </trkpt>
      <trkpt lat="43.66774" lon="6.71776">
        <ele>545.4</ele>
        <time>2010-01-02T14:43:25Z</time>
      </trkpt>
      <trkpt lat="43.66764" lon="6.71773">
        <ele>546.1</ele>
        <time>2010-01-02T14:43:31Z</time>
      </trkpt>
      <trkpt lat="43.66755" lon="6.71768">
        <ele>546.8</ele>
        <time>2010-01-02T14:43:36Z</time>
      </trkpt>
      <trkpt lat="43.66746" lon="6.71766">
        <ele>548</ele>
        <time>2010-01-02T14:43:42Z</time>
      </trkpt>
      <trkpt lat="43.66737" lon="6.71763">
        <ele>549.9</ele>
        <time>2010-01-02T14:43:49Z</time>
      </trkpt>
      <trkpt lat="43.66728" lon="6.7176">
        <ele>550.6</ele>
        <time>2010-01-02T14:43:55Z</time>
      </trkpt>
      <trkpt lat="43.66718" lon="6.71756">
        <ele>551.4</ele>
        <time>2010-01-02T14:44:01Z</time>
      </trkpt>
      <trkpt lat="43.66708" lon="6.71755">
        <ele>552.3</ele>
        <time>2010-01-02T14:44:07Z</time>
      </trkpt>
      <trkpt lat="43.667" lon="6.71748">
        <ele>553.6</ele>
        <time>2010-01-02T14:44:12Z</time>
      </trkpt>
      <trkpt lat="43.66691" lon="6.71742">
        <ele>554.8</ele>
        <time>2010-01-02T14:44:17Z</time>
      </trkpt>
      <trkpt lat="43.66683" lon="6.71735">
        <ele>555.8</ele>
        <time>2010-01-02T14:44:22Z</time>
      </trkpt>
      <trkpt lat="43.66677" lon="6.71725">
        <ele>555.6</ele>
        <time>2010-01-02T14:44:28Z</time>
      </trkpt>
      <trkpt lat="43.66668" lon="6.71719">
        <ele>553.9</ele>
        <time>2010-01-02T14:44:47Z</time>
      </trkpt>
      <trkpt lat="43.6666" lon="6.71711">
        <ele>553.9</ele>
        <time>2010-01-02T14:44:54Z</time>
      </trkpt>
      <trkpt lat="43.66655" lon="6.717">
        <ele>553.5</ele>
        <time>2010-01-02T14:45:00Z</time>
      </trkpt>
      <trkpt lat="43.6665" lon="6.71689">
        <ele>553.3</ele>
        <time>2010-01-02T14:45:06Z</time>
      </trkpt>
      <trkpt lat="43.66647" lon="6.71674">
        <ele>553.7</ele>
        <time>2010-01-02T14:45:12Z</time>
      </trkpt>
      <trkpt lat="43.66642" lon="6.71663">
        <ele>554.9</ele>
        <time>2010-01-02T14:45:17Z</time>
      </trkpt>
      <trkpt lat="43.66641" lon="6.71649">
        <ele>556</ele>
        <time>2010-01-02T14:45:22Z</time>
      </trkpt>
      <trkpt lat="43.66636" lon="6.71637">
        <ele>556.7</ele>
        <time>2010-01-02T14:45:27Z</time>
      </trkpt>
      <trkpt lat="43.66626" lon="6.71629">
        <ele>556.6</ele>
        <time>2010-01-02T14:45:32Z</time>
      </trkpt>
      <trkpt lat="43.66618" lon="6.71623">
        <ele>557.1</ele>
        <time>2010-01-02T14:45:36Z</time>
      </trkpt>
      <trkpt lat="43.66608" lon="6.71617">
        <ele>557.3</ele>
        <time>2010-01-02T14:45:40Z</time>
      </trkpt>
      <trkpt lat="43.666" lon="6.71612">
        <ele>558</ele>
        <time>2010-01-02T14:45:44Z</time>
      </trkpt>
      <trkpt lat="43.66591" lon="6.71606">
        <ele>558.3</ele>
        <time>2010-01-02T14:45:48Z</time>
      </trkpt>
      <trkpt lat="43.66581" lon="6.71601">
        <ele>558.6</ele>
        <time>2010-01-02T14:45:52Z</time>
      </trkpt>
      <trkpt lat="43.66572" lon="6.71595">
        <ele>558.6</ele>
        <time>2010-01-02T14:45:56Z</time>
      </trkpt>
      <trkpt lat="43.66562" lon="6.7159">
        <ele>558.6</ele>
        <time>2010-01-02T14:46:00Z</time>
      </trkpt>
      <trkpt lat="43.66553" lon="6.71584">
        <ele>558.8</ele>
        <time>2010-01-02T14:46:04Z</time>
      </trkpt>
      <trkpt lat="43.66543" lon="6.7158">
        <ele>558.8</ele>
        <time>2010-01-02T14:46:08Z</time>
      </trkpt>
      <trkpt lat="43.66533" lon="6.71576">
        <ele>558.8</ele>
        <time>2010-01-02T14:46:12Z</time>
      </trkpt>
      <trkpt lat="43.66524" lon="6.71574">
        <ele>558.5</ele>
        <time>2010-01-02T14:46:16Z</time>
      </trkpt>
      <trkpt lat="43.66515" lon="6.71568">
        <ele>557.8</ele>
        <time>2010-01-02T14:46:20Z</time>
      </trkpt>
      <trkpt lat="43.66504" lon="6.71562">
        <ele>557.3</ele>
        <time>2010-01-02T14:46:24Z</time>
      </trkpt>
      <trkpt lat="43.66492" lon="6.71561">
        <ele>556.7</ele>
        <time>2010-01-02T14:46:27Z</time>
      </trkpt>
      <trkpt lat="43.66483" lon="6.71559">
        <ele>556.3</ele>
        <time>2010-01-02T14:46:29Z</time>
      </trkpt>
      <trkpt lat="43.66472" lon="6.71557">
        <ele>556.9</ele>
        <time>2010-01-02T14:46:32Z</time>
      </trkpt>
      <trkpt lat="43.66458" lon="6.71552">
        <ele>557.2</ele>
        <time>2010-01-02T14:46:35Z</time>
      </trkpt>
      <trkpt lat="43.66449" lon="6.71551">
        <ele>557.2</ele>
        <time>2010-01-02T14:46:37Z</time>
      </trkpt>
      <trkpt lat="43.6644" lon="6.71549">
        <ele>557.4</ele>
        <time>2010-01-02T14:46:39Z</time>
      </trkpt>
      <trkpt lat="43.66427" lon="6.71546">
        <ele>557.4</ele>
        <time>2010-01-02T14:46:42Z</time>
      </trkpt>
      <trkpt lat="43.66416" lon="6.71543">
        <ele>557.1</ele>
        <time>2010-01-02T14:46:45Z</time>
      </trkpt>
      <trkpt lat="43.66405" lon="6.71541">
        <ele>557.2</ele>
        <time>2010-01-02T14:46:49Z</time>
      </trkpt>
      <trkpt lat="43.66395" lon="6.71541">
        <ele>556.7</ele>
        <time>2010-01-02T14:46:55Z</time>
      </trkpt>
      <trkpt lat="43.66384" lon="6.71538">
        <ele>556</ele>
        <time>2010-01-02T14:47:00Z</time>
      </trkpt>
      <trkpt lat="43.66372" lon="6.71536">
        <ele>555.4</ele>
        <time>2010-01-02T14:47:03Z</time>
      </trkpt>
      <trkpt lat="43.66361" lon="6.71532">
        <ele>555.7</ele>
        <time>2010-01-02T14:47:06Z</time>
      </trkpt>
      <trkpt lat="43.66351" lon="6.7153">
        <ele>555</ele>
        <time>2010-01-02T14:47:09Z</time>
      </trkpt>
      <trkpt lat="43.66342" lon="6.71527">
        <ele>554.7</ele>
        <time>2010-01-02T14:47:12Z</time>
      </trkpt>
      <trkpt lat="43.66332" lon="6.71525">
        <ele>555</ele>
        <time>2010-01-02T14:47:16Z</time>
      </trkpt>
      <trkpt lat="43.66322" lon="6.71523">
        <ele>554.9</ele>
        <time>2010-01-02T14:47:20Z</time>
      </trkpt>
      <trkpt lat="43.66312" lon="6.71521">
        <ele>555.5</ele>
        <time>2010-01-02T14:47:24Z</time>
      </trkpt>
      <trkpt lat="43.66303" lon="6.7152">
        <ele>556.3</ele>
        <time>2010-01-02T14:47:28Z</time>
      </trkpt>
      <trkpt lat="43.66292" lon="6.71518">
        <ele>556.3</ele>
        <time>2010-01-02T14:47:32Z</time>
      </trkpt>
      <trkpt lat="43.66281" lon="6.71516">
        <ele>557</ele>
        <time>2010-01-02T14:47:36Z</time>
      </trkpt>
      <trkpt lat="43.66271" lon="6.71514">
        <ele>556.6</ele>
        <time>2010-01-02T14:47:40Z</time>
      </trkpt>
      <trkpt lat="43.66261" lon="6.71511">
        <ele>556.5</ele>
        <time>2010-01-02T14:47:44Z</time>
      </trkpt>
      <trkpt lat="43.66251" lon="6.71507">
        <ele>556.2</ele>
        <time>2010-01-02T14:47:48Z</time>
      </trkpt>
      <trkpt lat="43.66242" lon="6.71503">
        <ele>556.4</ele>
        <time>2010-01-02T14:47:52Z</time>
      </trkpt>
      <trkpt lat="43.66233" lon="6.71497">
        <ele>556.6</ele>
        <time>2010-01-02T14:47:57Z</time>
      </trkpt>
      <trkpt lat="43.66225" lon="6.71489">
        <ele>557.1</ele>
        <time>2010-01-02T14:48:02Z</time>
      </trkpt>
      <trkpt lat="43.66216" lon="6.71481">
        <ele>558.5</ele>
        <time>2010-01-02T14:48:08Z</time>
      </trkpt>
      <trkpt lat="43.66207" lon="6.71472">
        <ele>560.2</ele>
        <time>2010-01-02T14:48:14Z</time>
      </trkpt>
      <trkpt lat="43.66198" lon="6.71465">
        <ele>561.6</ele>
        <time>2010-01-02T14:48:20Z</time>
      </trkpt>
      <trkpt lat="43.66191" lon="6.71456">
        <ele>563.9</ele>
        <time>2010-01-02T14:48:27Z</time>
      </trkpt>
      <trkpt lat="43.66182" lon="6.71447">
        <ele>563</ele>
        <time>2010-01-02T14:48:33Z</time>
      </trkpt>
      <trkpt lat="43.66176" lon="6.71438">
        <ele>562.4</ele>
        <time>2010-01-02T14:48:38Z</time>
      </trkpt>
      <trkpt lat="43.66169" lon="6.71428">
        <ele>562.4</ele>
        <time>2010-01-02T14:48:43Z</time>
      </trkpt>
      <trkpt lat="43.66163" lon="6.71418">
        <ele>562.2</ele>
        <time>2010-01-02T14:48:48Z</time>
      </trkpt>
      <trkpt lat="43.66158" lon="6.71407">
        <ele>561.3</ele>
        <time>2010-01-02T14:48:54Z</time>
      </trkpt>
      <trkpt lat="43.6615" lon="6.71398">
        <ele>561.9</ele>
        <time>2010-01-02T14:49:00Z</time>
      </trkpt>
      <trkpt lat="43.66143" lon="6.71389">
        <ele>562.9</ele>
        <time>2010-01-02T14:49:06Z</time>
      </trkpt>
      <trkpt lat="43.66138" lon="6.71379">
        <ele>564.3</ele>
        <time>2010-01-02T14:49:12Z</time>
      </trkpt>
      <trkpt lat="43.66131" lon="6.7137">
        <ele>566.5</ele>
        <time>2010-01-02T14:49:18Z</time>
      </trkpt>
      <trkpt lat="43.66124" lon="6.71359">
        <ele>569.8</ele>
        <time>2010-01-02T14:49:25Z</time>
      </trkpt>
      <trkpt lat="43.66116" lon="6.71352">
        <ele>572.7</ele>
        <time>2010-01-02T14:49:31Z</time>
      </trkpt>
      <trkpt lat="43.66109" lon="6.71344">
        <ele>574.7</ele>
        <time>2010-01-02T14:49:37Z</time>
      </trkpt>
      <trkpt lat="43.661" lon="6.71337">
        <ele>576.2</ele>
        <time>2010-01-02T14:49:43Z</time>
      </trkpt>
      <trkpt lat="43.66093" lon="6.7133">
        <ele>578.5</ele>
        <time>2010-01-02T14:49:49Z</time>
      </trkpt>
      <trkpt lat="43.66086" lon="6.71321">
        <ele>580.6</ele>
        <time>2010-01-02T14:49:55Z</time>
      </trkpt>
      <trkpt lat="43.66078" lon="6.71314">
        <ele>581.8</ele>
        <time>2010-01-02T14:50:01Z</time>
      </trkpt>
      <trkpt lat="43.66068" lon="6.71307">
        <ele>582.1</ele>
        <time>2010-01-02T14:50:07Z</time>
      </trkpt>
      <trkpt lat="43.6606" lon="6.713">
        <ele>583.5</ele>
        <time>2010-01-02T14:50:13Z</time>
      </trkpt>
      <trkpt lat="43.66052" lon="6.71292">
        <ele>584.1</ele>
        <time>2010-01-02T14:50:19Z</time>
      </trkpt>
      <trkpt lat="43.66044" lon="6.71285">
        <ele>585</ele>
        <time>2010-01-02T14:50:25Z</time>
      </trkpt>
      <trkpt lat="43.66035" lon="6.71279">
        <ele>585.4</ele>
        <time>2010-01-02T14:50:31Z</time>
      </trkpt>
      <trkpt lat="43.66025" lon="6.71273">
        <ele>586</ele>
        <time>2010-01-02T14:50:37Z</time>
      </trkpt>
      <trkpt lat="43.66015" lon="6.71272">
        <ele>585.6</ele>
        <time>2010-01-02T14:50:42Z</time>
      </trkpt>
      <trkpt lat="43.66004" lon="6.71273">
        <ele>584</ele>
        <time>2010-01-02T14:50:47Z</time>
      </trkpt>
      <trkpt lat="43.65995" lon="6.71272">
        <ele>584.3</ele>
        <time>2010-01-02T14:50:52Z</time>
      </trkpt>
      <trkpt lat="43.65985" lon="6.71271">
        <ele>584.4</ele>
        <time>2010-01-02T14:50:57Z</time>
      </trkpt>
      <trkpt lat="43.65976" lon="6.7127">
        <ele>584.9</ele>
        <time>2010-01-02T14:51:02Z</time>
      </trkpt>
      <trkpt lat="43.65966" lon="6.71267">
        <ele>585.1</ele>
        <time>2010-01-02T14:51:07Z</time>
      </trkpt>
      <trkpt lat="43.65957" lon="6.71259">
        <ele>584.5</ele>
        <time>2010-01-02T14:51:11Z</time>
      </trkpt>
      <trkpt lat="43.6595" lon="6.71247">
        <ele>583.8</ele>
        <time>2010-01-02T14:51:14Z</time>
      </trkpt>
      <trkpt lat="43.65945" lon="6.71236">
        <ele>583</ele>
        <time>2010-01-02T14:51:16Z</time>
      </trkpt>
      <trkpt lat="43.65939" lon="6.71225">
        <ele>582.1</ele>
        <time>2010-01-02T14:51:18Z</time>
      </trkpt>
      <trkpt lat="43.65934" lon="6.71212">
        <ele>581.3</ele>
        <time>2010-01-02T14:51:20Z</time>
      </trkpt>
      <trkpt lat="43.65931" lon="6.71198">
        <ele>580.9</ele>
        <time>2010-01-02T14:51:22Z</time>
      </trkpt>
      <trkpt lat="43.65924" lon="6.71188">
        <ele>580.7</ele>
        <time>2010-01-02T14:51:25Z</time>
      </trkpt>
      <trkpt lat="43.6591" lon="6.71194">
        <ele>579.2</ele>
        <time>2010-01-02T14:51:28Z</time>
      </trkpt>
      <trkpt lat="43.65901" lon="6.71202">
        <ele>577.7</ele>
        <time>2010-01-02T14:51:30Z</time>
      </trkpt>
      <trkpt lat="43.65891" lon="6.7121">
        <ele>576.2</ele>
        <time>2010-01-02T14:51:32Z</time>
      </trkpt>
      <trkpt lat="43.65882" lon="6.71218">
        <ele>575.5</ele>
        <time>2010-01-02T14:51:34Z</time>
      </trkpt>
      <trkpt lat="43.65872" lon="6.71226">
        <ele>575.2</ele>
        <time>2010-01-02T14:51:36Z</time>
      </trkpt>
      <trkpt lat="43.65863" lon="6.71235">
        <ele>575.1</ele>
        <time>2010-01-02T14:51:38Z</time>
      </trkpt>
      <trkpt lat="43.65855" lon="6.71242">
        <ele>575.4</ele>
        <time>2010-01-02T14:51:40Z</time>
      </trkpt>
      <trkpt lat="43.65845" lon="6.71251">
        <ele>575.9</ele>
        <time>2010-01-02T14:51:43Z</time>
      </trkpt>
      <trkpt lat="43.65835" lon="6.71261">
        <ele>575.7</ele>
        <time>2010-01-02T14:51:46Z</time>
      </trkpt>
      <trkpt lat="43.65826" lon="6.71269">
        <ele>576.2</ele>
        <time>2010-01-02T14:51:49Z</time>
      </trkpt>
      <trkpt lat="43.65818" lon="6.71276">
        <ele>577.1</ele>
        <time>2010-01-02T14:51:53Z</time>
      </trkpt>
      <trkpt lat="43.6581" lon="6.71283">
        <ele>578.7</ele>
        <time>2010-01-02T14:51:57Z</time>
      </trkpt>
      <trkpt lat="43.65802" lon="6.71291">
        <ele>579.2</ele>
        <time>2010-01-02T14:52:01Z</time>
      </trkpt>
      <trkpt lat="43.65793" lon="6.713">
        <ele>578.3</ele>
        <time>2010-01-02T14:52:04Z</time>
      </trkpt>
      <trkpt lat="43.65786" lon="6.71309">
        <ele>576.8</ele>
        <time>2010-01-02T14:52:06Z</time>
      </trkpt>
      <trkpt lat="43.65778" lon="6.71319">
        <ele>574.8</ele>
        <time>2010-01-02T14:52:08Z</time>
      </trkpt>
      <trkpt lat="43.6577" lon="6.7133">
        <ele>572.7</ele>
        <time>2010-01-02T14:52:10Z</time>
      </trkpt>
      <trkpt lat="43.65764" lon="6.71339">
        <ele>570.9</ele>
        <time>2010-01-02T14:52:12Z</time>
      </trkpt>
      <trkpt lat="43.65756" lon="6.7135">
        <ele>568.7</ele>
        <time>2010-01-02T14:52:15Z</time>
      </trkpt>
      <trkpt lat="43.65747" lon="6.71362">
        <ele>566.5</ele>
        <time>2010-01-02T14:52:18Z</time>
      </trkpt>
      <trkpt lat="43.65739" lon="6.71372">
        <ele>564.8</ele>
        <time>2010-01-02T14:52:20Z</time>
      </trkpt>
      <trkpt lat="43.65732" lon="6.71384">
        <ele>563.3</ele>
        <time>2010-01-02T14:52:22Z</time>
      </trkpt>
      <trkpt lat="43.65724" lon="6.71395">
        <ele>561.9</ele>
        <time>2010-01-02T14:52:24Z</time>
      </trkpt>
      <trkpt lat="43.65716" lon="6.71405">
        <ele>560.7</ele>
        <time>2010-01-02T14:52:26Z</time>
      </trkpt>
      <trkpt lat="43.65707" lon="6.71413">
        <ele>559.9</ele>
        <time>2010-01-02T14:52:28Z</time>
      </trkpt>
      <trkpt lat="43.65699" lon="6.71418">
        <ele>559.2</ele>
        <time>2010-01-02T14:52:30Z</time>
      </trkpt>
      <trkpt lat="43.6569" lon="6.71411">
        <ele>557.2</ele>
        <time>2010-01-02T14:52:33Z</time>
      </trkpt>
      <trkpt lat="43.65683" lon="6.71402">
        <ele>556</ele>
        <time>2010-01-02T14:52:38Z</time>
      </trkpt>
      <trkpt lat="43.65674" lon="6.71392">
        <ele>556</ele>
        <time>2010-01-02T14:52:44Z</time>
      </trkpt>
      <trkpt lat="43.65666" lon="6.71379">
        <ele>556.7</ele>
        <time>2010-01-02T14:52:48Z</time>
      </trkpt>
      <trkpt lat="43.65657" lon="6.7137">
        <ele>557</ele>
        <time>2010-01-02T14:52:51Z</time>
      </trkpt>
      <trkpt lat="43.65648" lon="6.71365">
        <ele>556.4</ele>
        <time>2010-01-02T14:52:53Z</time>
      </trkpt>
      <trkpt lat="43.65638" lon="6.71358">
        <ele>554.9</ele>
        <time>2010-01-02T14:52:56Z</time>
      </trkpt>
      <trkpt lat="43.6563" lon="6.7135">
        <ele>552.7</ele>
        <time>2010-01-02T14:53:01Z</time>
      </trkpt>
      <trkpt lat="43.65626" lon="6.71338">
        <ele>552</ele>
        <time>2010-01-02T14:53:05Z</time>
      </trkpt>
      <trkpt lat="43.65621" lon="6.71324">
        <ele>551</ele>
        <time>2010-01-02T14:53:10Z</time>
      </trkpt>
      <trkpt lat="43.65613" lon="6.71312">
        <ele>550.4</ele>
        <time>2010-01-02T14:53:13Z</time>
      </trkpt>
      <trkpt lat="43.65604" lon="6.71298">
        <ele>549.8</ele>
        <time>2010-01-02T14:53:16Z</time>
      </trkpt>
      <trkpt lat="43.65597" lon="6.71287">
        <ele>548.8</ele>
        <time>2010-01-02T14:53:18Z</time>
      </trkpt>
      <trkpt lat="43.65591" lon="6.71275">
        <ele>548.8</ele>
        <time>2010-01-02T14:53:20Z</time>
      </trkpt>
      <trkpt lat="43.65584" lon="6.71262">
        <ele>547.9</ele>
        <time>2010-01-02T14:53:22Z</time>
      </trkpt>
      <trkpt lat="43.65578" lon="6.71248">
        <ele>547.8</ele>
        <time>2010-01-02T14:53:24Z</time>
      </trkpt>
      <trkpt lat="43.65571" lon="6.71234">
        <ele>547.6</ele>
        <time>2010-01-02T14:53:26Z</time>
      </trkpt>
      <trkpt lat="43.65563" lon="6.71223">
        <ele>546.8</ele>
        <time>2010-01-02T14:53:28Z</time>
      </trkpt>
      <trkpt lat="43.65556" lon="6.71212">
        <ele>545.8</ele>
        <time>2010-01-02T14:53:30Z</time>
      </trkpt>
      <trkpt lat="43.65548" lon="6.71202">
        <ele>544.1</ele>
        <time>2010-01-02T14:53:32Z</time>
      </trkpt>
      <trkpt lat="43.65541" lon="6.71191">
        <ele>542.8</ele>
        <time>2010-01-02T14:53:34Z</time>
      </trkpt>
      <trkpt lat="43.65535" lon="6.71181">
        <ele>541.4</ele>
        <time>2010-01-02T14:53:36Z</time>
      </trkpt>
      <trkpt lat="43.65529" lon="6.71169">
        <ele>539.9</ele>
        <time>2010-01-02T14:53:38Z</time>
      </trkpt>
      <trkpt lat="43.65524" lon="6.71158">
        <ele>538.3</ele>
        <time>2010-01-02T14:53:40Z</time>
      </trkpt>
      <trkpt lat="43.65519" lon="6.71145">
        <ele>536.7</ele>
        <time>2010-01-02T14:53:42Z</time>
      </trkpt>
      <trkpt lat="43.65514" lon="6.71131">
        <ele>535</ele>
        <time>2010-01-02T14:53:44Z</time>
      </trkpt>
      <trkpt lat="43.6551" lon="6.71119">
        <ele>533.2</ele>
        <time>2010-01-02T14:53:46Z</time>
      </trkpt>
      <trkpt lat="43.65505" lon="6.71106">
        <ele>531.8</ele>
        <time>2010-01-02T14:53:48Z</time>
      </trkpt>
      <trkpt lat="43.655" lon="6.71094">
        <ele>530.6</ele>
        <time>2010-01-02T14:53:50Z</time>
      </trkpt>
      <trkpt lat="43.65494" lon="6.71079">
        <ele>529.5</ele>
        <time>2010-01-02T14:53:53Z</time>
      </trkpt>
      <trkpt lat="43.6549" lon="6.71067">
        <ele>528.6</ele>
        <time>2010-01-02T14:53:57Z</time>
      </trkpt>
      <trkpt lat="43.65484" lon="6.71054">
        <ele>527.4</ele>
        <time>2010-01-02T14:54:01Z</time>
      </trkpt>
      <trkpt lat="43.65476" lon="6.71039">
        <ele>525.1</ele>
        <time>2010-01-02T14:54:04Z</time>
      </trkpt>
      <trkpt lat="43.65469" lon="6.71027">
        <ele>522.9</ele>
        <time>2010-01-02T14:54:06Z</time>
      </trkpt>
      <trkpt lat="43.65461" lon="6.71014">
        <ele>521.2</ele>
        <time>2010-01-02T14:54:08Z</time>
      </trkpt>
      <trkpt lat="43.65453" lon="6.71001">
        <ele>520.2</ele>
        <time>2010-01-02T14:54:10Z</time>
      </trkpt>
      <trkpt lat="43.65447" lon="6.70988">
        <ele>519.1</ele>
        <time>2010-01-02T14:54:12Z</time>
      </trkpt>
      <trkpt lat="43.65441" lon="6.70976">
        <ele>518.4</ele>
        <time>2010-01-02T14:54:14Z</time>
      </trkpt>
      <trkpt lat="43.65433" lon="6.70965">
        <ele>517.4</ele>
        <time>2010-01-02T14:54:16Z</time>
      </trkpt>
      <trkpt lat="43.65424" lon="6.70954">
        <ele>516.5</ele>
        <time>2010-01-02T14:54:18Z</time>
      </trkpt>
      <trkpt lat="43.65413" lon="6.70944">
        <ele>515.7</ele>
        <time>2010-01-02T14:54:20Z</time>
      </trkpt>
      <trkpt lat="43.65402" lon="6.70937">
        <ele>515.3</ele>
        <time>2010-01-02T14:54:22Z</time>
      </trkpt>
      <trkpt lat="43.65392" lon="6.70938">
        <ele>515.1</ele>
        <time>2010-01-02T14:54:25Z</time>
      </trkpt>
      <trkpt lat="43.65381" lon="6.70937">
        <ele>515.4</ele>
        <time>2010-01-02T14:54:29Z</time>
      </trkpt>
      <trkpt lat="43.65372" lon="6.70933">
        <ele>515.5</ele>
        <time>2010-01-02T14:54:33Z</time>
      </trkpt>
      <trkpt lat="43.65361" lon="6.70933">
        <ele>515.1</ele>
        <time>2010-01-02T14:54:37Z</time>
      </trkpt>
      <trkpt lat="43.65351" lon="6.70927">
        <ele>513.6</ele>
        <time>2010-01-02T14:54:40Z</time>
      </trkpt>
      <trkpt lat="43.65339" lon="6.70928">
        <ele>511.6</ele>
        <time>2010-01-02T14:54:44Z</time>
      </trkpt>
      <trkpt lat="43.6533" lon="6.70924">
        <ele>509.6</ele>
        <time>2010-01-02T14:54:46Z</time>
      </trkpt>
      <trkpt lat="43.65317" lon="6.70918">
        <ele>506.4</ele>
        <time>2010-01-02T14:54:49Z</time>
      </trkpt>
      <trkpt lat="43.65307" lon="6.70917">
        <ele>504.5</ele>
        <time>2010-01-02T14:54:51Z</time>
      </trkpt>
      <trkpt lat="43.65297" lon="6.70915">
        <ele>503.1</ele>
        <time>2010-01-02T14:54:53Z</time>
      </trkpt>
      <trkpt lat="43.65288" lon="6.70913">
        <ele>501.4</ele>
        <time>2010-01-02T14:54:56Z</time>
      </trkpt>
      <trkpt lat="43.6528" lon="6.70906">
        <ele>499.7</ele>
        <time>2010-01-02T14:54:59Z</time>
      </trkpt>
      <trkpt lat="43.65271" lon="6.70902">
        <ele>498.7</ele>
        <time>2010-01-02T14:55:01Z</time>
      </trkpt>
      <trkpt lat="43.6526" lon="6.70899">
        <ele>497.2</ele>
        <time>2010-01-02T14:55:03Z</time>
      </trkpt>
      <trkpt lat="43.65249" lon="6.70893">
        <ele>496</ele>
        <time>2010-01-02T14:55:05Z</time>
      </trkpt>
      <trkpt lat="43.6524" lon="6.70887">
        <ele>495.3</ele>
        <time>2010-01-02T14:55:07Z</time>
      </trkpt>
      <trkpt lat="43.65232" lon="6.70877">
        <ele>493.9</ele>
        <time>2010-01-02T14:55:11Z</time>
      </trkpt>
      <trkpt lat="43.65226" lon="6.70866">
        <ele>493.8</ele>
        <time>2010-01-02T14:55:16Z</time>
      </trkpt>
      <trkpt lat="43.65219" lon="6.70855">
        <ele>492.1</ele>
        <time>2010-01-02T14:55:20Z</time>
      </trkpt>
      <trkpt lat="43.65211" lon="6.70846">
        <ele>491.7</ele>
        <time>2010-01-02T14:55:24Z</time>
      </trkpt>
      <trkpt lat="43.652" lon="6.70847">
        <ele>491.3</ele>
        <time>2010-01-02T14:55:28Z</time>
      </trkpt>
      <trkpt lat="43.65191" lon="6.70853">
        <ele>490.8</ele>
        <time>2010-01-02T14:55:31Z</time>
      </trkpt>
      <trkpt lat="43.65182" lon="6.70855">
        <ele>490.2</ele>
        <time>2010-01-02T14:55:33Z</time>
      </trkpt>
      <trkpt lat="43.65171" lon="6.7086">
        <ele>489.5</ele>
        <time>2010-01-02T14:55:35Z</time>
      </trkpt>
      <trkpt lat="43.65164" lon="6.70875">
        <ele>488.5</ele>
        <time>2010-01-02T14:55:38Z</time>
      </trkpt>
      <trkpt lat="43.65168" lon="6.70889">
        <ele>488.8</ele>
        <time>2010-01-02T14:55:41Z</time>
      </trkpt>
      <trkpt lat="43.65173" lon="6.70902">
        <ele>489</ele>
        <time>2010-01-02T14:55:45Z</time>
      </trkpt>
      <trkpt lat="43.65175" lon="6.70917">
        <ele>489.8</ele>
        <time>2010-01-02T14:55:50Z</time>
      </trkpt>
      <trkpt lat="43.65176" lon="6.7093">
        <ele>490.5</ele>
        <time>2010-01-02T14:55:54Z</time>
      </trkpt>
      <trkpt lat="43.65177" lon="6.70943">
        <ele>490.7</ele>
        <time>2010-01-02T14:55:59Z</time>
      </trkpt>
      <trkpt lat="43.65178" lon="6.70956">
        <ele>490.8</ele>
        <time>2010-01-02T14:56:04Z</time>
      </trkpt>
      <trkpt lat="43.65179" lon="6.70968">
        <ele>490.9</ele>
        <time>2010-01-02T14:56:10Z</time>
      </trkpt>
      <trkpt lat="43.65182" lon="6.70983">
        <ele>491.3</ele>
        <time>2010-01-02T14:56:16Z</time>
      </trkpt>
      <trkpt lat="43.65185" lon="6.70996">
        <ele>492.8</ele>
        <time>2010-01-02T14:56:22Z</time>
      </trkpt>
      <trkpt lat="43.65167" lon="6.70941">
        <ele>488.3</ele>
        <time>2010-01-02T14:56:40Z</time>
      </trkpt>
      <trkpt lat="43.65162" lon="6.70929">
        <ele>487.4</ele>
        <time>2010-01-02T14:56:42Z</time>
      </trkpt>
      <trkpt lat="43.65152" lon="6.70918">
        <ele>486.1</ele>
        <time>2010-01-02T14:56:44Z</time>
      </trkpt>
      <trkpt lat="43.6514" lon="6.70909">
        <ele>484.7</ele>
        <time>2010-01-02T14:56:46Z</time>
      </trkpt>
      <trkpt lat="43.65125" lon="6.70904">
        <ele>483.4</ele>
        <time>2010-01-02T14:56:48Z</time>
      </trkpt>
      <trkpt lat="43.6511" lon="6.709">
        <ele>482.8</ele>
        <time>2010-01-02T14:56:50Z</time>
      </trkpt>
      <trkpt lat="43.65096" lon="6.70896">
        <ele>481.9</ele>
        <time>2010-01-02T14:56:52Z</time>
      </trkpt>
      <trkpt lat="43.65082" lon="6.70892">
        <ele>481.3</ele>
        <time>2010-01-02T14:56:54Z</time>
      </trkpt>
      <trkpt lat="43.65069" lon="6.70888">
        <ele>481</ele>
        <time>2010-01-02T14:56:56Z</time>
      </trkpt>
      <trkpt lat="43.65057" lon="6.70882">
        <ele>480.9</ele>
        <time>2010-01-02T14:56:58Z</time>
      </trkpt>
      <trkpt lat="43.65046" lon="6.70878">
        <ele>480.6</ele>
        <time>2010-01-02T14:57:00Z</time>
      </trkpt>
      <trkpt lat="43.65035" lon="6.70875">
        <ele>480.9</ele>
        <time>2010-01-02T14:57:02Z</time>
      </trkpt>
      <trkpt lat="43.65025" lon="6.70872">
        <ele>480.8</ele>
        <time>2010-01-02T14:57:04Z</time>
      </trkpt>
      <trkpt lat="43.65015" lon="6.70869">
        <ele>480.6</ele>
        <time>2010-01-02T14:57:06Z</time>
      </trkpt>
      <trkpt lat="43.65005" lon="6.70864">
        <ele>478.1</ele>
        <time>2010-01-02T14:57:47Z</time>
      </trkpt>
      <trkpt lat="43.64996" lon="6.70862">
        <ele>477.7</ele>
        <time>2010-01-02T14:57:51Z</time>
      </trkpt>
      <trkpt lat="43.64985" lon="6.70862">
        <ele>476.9</ele>
        <time>2010-01-02T14:57:54Z</time>
      </trkpt>
      <trkpt lat="43.64974" lon="6.70863">
        <ele>475.9</ele>
        <time>2010-01-02T14:57:56Z</time>
      </trkpt>
      <trkpt lat="43.64959" lon="6.70864">
        <ele>474.5</ele>
        <time>2010-01-02T14:57:58Z</time>
      </trkpt>
      <trkpt lat="43.64943" lon="6.70866">
        <ele>473.3</ele>
        <time>2010-01-02T14:58:00Z</time>
      </trkpt>
      <trkpt lat="43.64927" lon="6.70874">
        <ele>471.5</ele>
        <time>2010-01-02T14:58:02Z</time>
      </trkpt>
      <trkpt lat="43.64919" lon="6.70881">
        <ele>470.8</ele>
        <time>2010-01-02T14:58:03Z</time>
      </trkpt>
      <trkpt lat="43.64912" lon="6.70889">
        <ele>469.8</ele>
        <time>2010-01-02T14:58:04Z</time>
      </trkpt>
      <trkpt lat="43.64904" lon="6.70899">
        <ele>468.9</ele>
        <time>2010-01-02T14:58:05Z</time>
      </trkpt>
      <trkpt lat="43.64897" lon="6.7091">
        <ele>467.9</ele>
        <time>2010-01-02T14:58:06Z</time>
      </trkpt>
      <trkpt lat="43.64889" lon="6.7092">
        <ele>466.6</ele>
        <time>2010-01-02T14:58:07Z</time>
      </trkpt>
      <trkpt lat="43.64882" lon="6.70931">
        <ele>465.6</ele>
        <time>2010-01-02T14:58:08Z</time>
      </trkpt>
      <trkpt lat="43.64875" lon="6.70942">
        <ele>464.5</ele>
        <time>2010-01-02T14:58:09Z</time>
      </trkpt>
      <trkpt lat="43.64868" lon="6.70952">
        <ele>463.5</ele>
        <time>2010-01-02T14:58:10Z</time>
      </trkpt>
      <trkpt lat="43.6486" lon="6.70962">
        <ele>462.6</ele>
        <time>2010-01-02T14:58:11Z</time>
      </trkpt>
      <trkpt lat="43.64853" lon="6.70971">
        <ele>461.8</ele>
        <time>2010-01-02T14:58:12Z</time>
      </trkpt>
      <trkpt lat="43.64845" lon="6.70979">
        <ele>460.9</ele>
        <time>2010-01-02T14:58:13Z</time>
      </trkpt>
      <trkpt lat="43.64836" lon="6.70987">
        <ele>459.9</ele>
        <time>2010-01-02T14:58:14Z</time>
      </trkpt>
      <trkpt lat="43.64828" lon="6.70995">
        <ele>459</ele>
        <time>2010-01-02T14:58:15Z</time>
      </trkpt>
      <trkpt lat="43.64819" lon="6.71003">
        <ele>457.8</ele>
        <time>2010-01-02T14:58:16Z</time>
      </trkpt>
      <trkpt lat="43.6481" lon="6.71011">
        <ele>456.5</ele>
        <time>2010-01-02T14:58:17Z</time>
      </trkpt>
      <trkpt lat="43.64802" lon="6.71019">
        <ele>455.1</ele>
        <time>2010-01-02T14:58:18Z</time>
      </trkpt>
      <trkpt lat="43.64793" lon="6.71027">
        <ele>454</ele>
        <time>2010-01-02T14:58:19Z</time>
      </trkpt>
      <trkpt lat="43.64783" lon="6.71034">
        <ele>453.1</ele>
        <time>2010-01-02T14:58:20Z</time>
      </trkpt>
      <trkpt lat="43.64773" lon="6.7104">
        <ele>452.4</ele>
        <time>2010-01-02T14:58:21Z</time>
      </trkpt>
      <trkpt lat="43.64763" lon="6.71044">
        <ele>451.6</ele>
        <time>2010-01-02T14:58:22Z</time>
      </trkpt>
      <trkpt lat="43.64753" lon="6.71049">
        <ele>450.8</ele>
        <time>2010-01-02T14:58:23Z</time>
      </trkpt>
      <trkpt lat="43.64744" lon="6.71054">
        <ele>449.8</ele>
        <time>2010-01-02T14:58:24Z</time>
      </trkpt>
      <trkpt lat="43.64734" lon="6.7106">
        <ele>448.9</ele>
        <time>2010-01-02T14:58:25Z</time>
      </trkpt>
      <trkpt lat="43.64723" lon="6.71065">
        <ele>447.9</ele>
        <time>2010-01-02T14:58:26Z</time>
      </trkpt>
      <trkpt lat="43.64713" lon="6.71069">
        <ele>446.5</ele>
        <time>2010-01-02T14:58:27Z</time>
      </trkpt>
      <trkpt lat="43.64702" lon="6.71074">
        <ele>445.3</ele>
        <time>2010-01-02T14:58:28Z</time>
      </trkpt>
      <trkpt lat="43.64691" lon="6.71078">
        <ele>444.3</ele>
        <time>2010-01-02T14:58:29Z</time>
      </trkpt>
      <trkpt lat="43.6468" lon="6.71082">
        <ele>443.2</ele>
        <time>2010-01-02T14:58:30Z</time>
      </trkpt>
      <trkpt lat="43.64669" lon="6.71086">
        <ele>441.9</ele>
        <time>2010-01-02T14:58:31Z</time>
      </trkpt>
      <trkpt lat="43.64657" lon="6.71089">
        <ele>440.7</ele>
        <time>2010-01-02T14:58:32Z</time>
      </trkpt>
      <trkpt lat="43.64646" lon="6.71092">
        <ele>439.2</ele>
        <time>2010-01-02T14:58:33Z</time>
      </trkpt>
      <trkpt lat="43.64635" lon="6.71095">
        <ele>437.8</ele>
        <time>2010-01-02T14:58:34Z</time>
      </trkpt>
      <trkpt lat="43.64625" lon="6.71097">
        <ele>436.9</ele>
        <time>2010-01-02T14:58:35Z</time>
      </trkpt>
      <trkpt lat="43.64616" lon="6.71099">
        <ele>435.8</ele>
        <time>2010-01-02T14:58:36Z</time>
      </trkpt>
      <trkpt lat="43.64602" lon="6.711">
        <ele>433.7</ele>
        <time>2010-01-02T14:58:38Z</time>
      </trkpt>
      <trkpt lat="43.64596" lon="6.71115">
        <ele>439.8</ele>
        <time>2010-01-02T14:59:41Z</time>
      </trkpt>
      <trkpt lat="43.64595" lon="6.71132">
        <ele>437.5</ele>
        <time>2010-01-02T14:59:44Z</time>
      </trkpt>
      <trkpt lat="43.64599" lon="6.71148">
        <ele>435.8</ele>
        <time>2010-01-02T14:59:47Z</time>
      </trkpt>
      <trkpt lat="43.64599" lon="6.71161">
        <ele>435.9</ele>
        <time>2010-01-02T14:59:52Z</time>
      </trkpt>
      <trkpt lat="43.64604" lon="6.71171">
        <ele>438</ele>
        <time>2010-01-02T15:00:20Z</time>
      </trkpt>
      <trkpt lat="43.64606" lon="6.71185">
        <ele>436.5</ele>
        <time>2010-01-02T15:00:25Z</time>
      </trkpt>
      <trkpt lat="43.64605" lon="6.71199">
        <ele>436</ele>
        <time>2010-01-02T15:00:28Z</time>
      </trkpt>
      <trkpt lat="43.646" lon="6.71213">
        <ele>434.3</ele>
        <time>2010-01-02T15:00:31Z</time>
      </trkpt>
      <trkpt lat="43.64594" lon="6.71223">
        <ele>433.6</ele>
        <time>2010-01-02T15:00:33Z</time>
      </trkpt>
      <trkpt lat="43.64589" lon="6.71234">
        <ele>432.4</ele>
        <time>2010-01-02T15:00:35Z</time>
      </trkpt>
      <trkpt lat="43.64585" lon="6.71246">
        <ele>431.9</ele>
        <time>2010-01-02T15:00:37Z</time>
      </trkpt>
      <trkpt lat="43.64578" lon="6.7126">
        <ele>431.1</ele>
        <time>2010-01-02T15:00:40Z</time>
      </trkpt>
      <trkpt lat="43.64564" lon="6.71264">
        <ele>429.9</ele>
        <time>2010-01-02T15:00:43Z</time>
      </trkpt>
      <trkpt lat="43.64554" lon="6.71267">
        <ele>429.4</ele>
        <time>2010-01-02T15:00:45Z</time>
      </trkpt>
      <trkpt lat="43.64544" lon="6.71272">
        <ele>428.4</ele>
        <time>2010-01-02T15:00:47Z</time>
      </trkpt>
      <trkpt lat="43.64534" lon="6.7128">
        <ele>427.3</ele>
        <time>2010-01-02T15:00:49Z</time>
      </trkpt>
      <trkpt lat="43.64524" lon="6.71289">
        <ele>426</ele>
        <time>2010-01-02T15:00:51Z</time>
      </trkpt>
      <trkpt lat="43.64516" lon="6.71299">
        <ele>423.8</ele>
        <time>2010-01-02T15:00:53Z</time>
      </trkpt>
      <trkpt lat="43.64511" lon="6.71309">
        <ele>422.7</ele>
        <time>2010-01-02T15:00:55Z</time>
      </trkpt>
      <trkpt lat="43.64509" lon="6.71327">
        <ele>423</ele>
        <time>2010-01-02T15:00:58Z</time>
      </trkpt>
      <trkpt lat="43.64503" lon="6.71338">
        <ele>422.8</ele>
        <time>2010-01-02T15:01:00Z</time>
      </trkpt>
      <trkpt lat="43.64496" lon="6.7135">
        <ele>422.3</ele>
        <time>2010-01-02T15:01:02Z</time>
      </trkpt>
      <trkpt lat="43.64491" lon="6.71365">
        <ele>422.1</ele>
        <time>2010-01-02T15:01:04Z</time>
      </trkpt>
      <trkpt lat="43.64487" lon="6.71379">
        <ele>421.6</ele>
        <time>2010-01-02T15:01:06Z</time>
      </trkpt>
      <trkpt lat="43.64481" lon="6.71392">
        <ele>421.8</ele>
        <time>2010-01-02T15:01:08Z</time>
      </trkpt>
      <trkpt lat="43.64473" lon="6.71403">
        <ele>421.2</ele>
        <time>2010-01-02T15:01:10Z</time>
      </trkpt>
      <trkpt lat="43.64463" lon="6.71413">
        <ele>419.8</ele>
        <time>2010-01-02T15:01:12Z</time>
      </trkpt>
      <trkpt lat="43.64454" lon="6.71422">
        <ele>418.5</ele>
        <time>2010-01-02T15:01:14Z</time>
      </trkpt>
      <trkpt lat="43.64446" lon="6.7143">
        <ele>418.7</ele>
        <time>2010-01-02T15:01:17Z</time>
      </trkpt>
      <trkpt lat="43.64453" lon="6.71439">
        <ele>419.3</ele>
        <time>2010-01-02T15:01:21Z</time>
      </trkpt>
      <trkpt lat="43.64461" lon="6.7145">
        <ele>419.1</ele>
        <time>2010-01-02T15:01:25Z</time>
      </trkpt>
      <trkpt lat="43.64467" lon="6.71463">
        <ele>418.8</ele>
        <time>2010-01-02T15:01:29Z</time>
      </trkpt>
      <trkpt lat="43.64472" lon="6.71477">
        <ele>419.9</ele>
        <time>2010-01-02T15:01:34Z</time>
      </trkpt>
      <trkpt lat="43.64478" lon="6.71488">
        <ele>420.2</ele>
        <time>2010-01-02T15:01:38Z</time>
      </trkpt>
      <trkpt lat="43.64483" lon="6.715">
        <ele>421</ele>
        <time>2010-01-02T15:01:44Z</time>
      </trkpt>
      <trkpt lat="43.64489" lon="6.7151">
        <ele>422.4</ele>
        <time>2010-01-02T15:01:51Z</time>
      </trkpt>
      <trkpt lat="43.64494" lon="6.71521">
        <ele>422.5</ele>
        <time>2010-01-02T15:01:56Z</time>
      </trkpt>
      <trkpt lat="43.64499" lon="6.71534">
        <ele>422.1</ele>
        <time>2010-01-02T15:02:01Z</time>
      </trkpt>
      <trkpt lat="43.64505" lon="6.71545">
        <ele>421.9</ele>
        <time>2010-01-02T15:02:05Z</time>
      </trkpt>
      <trkpt lat="43.64512" lon="6.71555">
        <ele>422.1</ele>
        <time>2010-01-02T15:02:09Z</time>
      </trkpt>
      <trkpt lat="43.64519" lon="6.71565">
        <ele>422.2</ele>
        <time>2010-01-02T15:02:13Z</time>
      </trkpt>
      <trkpt lat="43.64525" lon="6.71577">
        <ele>424.1</ele>
        <time>2010-01-02T15:02:19Z</time>
      </trkpt>
      <trkpt lat="43.64534" lon="6.71587">
        <ele>423.7</ele>
        <time>2010-01-02T15:02:23Z</time>
      </trkpt>
      <trkpt lat="43.64541" lon="6.71595">
        <ele>423.8</ele>
        <time>2010-01-02T15:02:27Z</time>
      </trkpt>
      <trkpt lat="43.64547" lon="6.71606">
        <ele>424.2</ele>
        <time>2010-01-02T15:02:32Z</time>
      </trkpt>
      <trkpt lat="43.64556" lon="6.71613">
        <ele>425.7</ele>
        <time>2010-01-02T15:02:37Z</time>
      </trkpt>
      <trkpt lat="43.64566" lon="6.71617">
        <ele>428.7</ele>
        <time>2010-01-02T15:02:42Z</time>
      </trkpt>
      <trkpt lat="43.64577" lon="6.71616">
        <ele>428.7</ele>
        <time>2010-01-02T15:02:46Z</time>
      </trkpt>
      <trkpt lat="43.64586" lon="6.71612">
        <ele>428.9</ele>
        <time>2010-01-02T15:02:49Z</time>
      </trkpt>
      <trkpt lat="43.64594" lon="6.71607">
        <ele>429.8</ele>
        <time>2010-01-02T15:02:52Z</time>
      </trkpt>
      <trkpt lat="43.64604" lon="6.71603">
        <ele>429.7</ele>
        <time>2010-01-02T15:02:57Z</time>
      </trkpt>
      <trkpt lat="43.64618" lon="6.71612">
        <ele>420.3</ele>
        <time>2010-01-02T15:03:10Z</time>
      </trkpt>
      <trkpt lat="43.64625" lon="6.71623">
        <ele>419.4</ele>
        <time>2010-01-02T15:03:18Z</time>
      </trkpt>
      <trkpt lat="43.64637" lon="6.71646">
        <ele>424</ele>
        <time>2010-01-02T15:04:17Z</time>
      </trkpt>
      <trkpt lat="43.64642" lon="6.71657">
        <ele>424.4</ele>
        <time>2010-01-02T15:04:27Z</time>
      </trkpt>
      <trkpt lat="43.64648" lon="6.71668">
        <ele>425.5</ele>
        <time>2010-01-02T15:04:35Z</time>
      </trkpt>
      <trkpt lat="43.64652" lon="6.71679">
        <ele>423.2</ele>
        <time>2010-01-02T15:04:49Z</time>
      </trkpt>
      <trkpt lat="43.64657" lon="6.71691">
        <ele>423.5</ele>
        <time>2010-01-02T15:05:26Z</time>
      </trkpt>
      <trkpt lat="43.6466" lon="6.71704">
        <ele>427.3</ele>
        <time>2010-01-02T15:05:31Z</time>
      </trkpt>
      <trkpt lat="43.64667" lon="6.71716">
        <ele>428.8</ele>
        <time>2010-01-02T15:05:35Z</time>
      </trkpt>
      <trkpt lat="43.64677" lon="6.71728">
        <ele>430.4</ele>
        <time>2010-01-02T15:05:39Z</time>
      </trkpt>
      <trkpt lat="43.64683" lon="6.71741">
        <ele>430.3</ele>
        <time>2010-01-02T15:05:42Z</time>
      </trkpt>
      <trkpt lat="43.6469" lon="6.71755">
        <ele>429.9</ele>
        <time>2010-01-02T15:05:45Z</time>
      </trkpt>
      <trkpt lat="43.64697" lon="6.7177">
        <ele>430.6</ele>
        <time>2010-01-02T15:05:48Z</time>
      </trkpt>
      <trkpt lat="43.64702" lon="6.71783">
        <ele>431.3</ele>
        <time>2010-01-02T15:05:51Z</time>
      </trkpt>
      <trkpt lat="43.64704" lon="6.71799">
        <ele>431.9</ele>
        <time>2010-01-02T15:05:54Z</time>
      </trkpt>
      <trkpt lat="43.64708" lon="6.71816">
        <ele>432.9</ele>
        <time>2010-01-02T15:05:57Z</time>
      </trkpt>
      <trkpt lat="43.6471" lon="6.71832">
        <ele>434</ele>
        <time>2010-01-02T15:06:00Z</time>
      </trkpt>
      <trkpt lat="43.64713" lon="6.71847">
        <ele>434.5</ele>
        <time>2010-01-02T15:06:03Z</time>
      </trkpt>
      <trkpt lat="43.64715" lon="6.7186">
        <ele>435.2</ele>
        <time>2010-01-02T15:06:06Z</time>
      </trkpt>
      <trkpt lat="43.6472" lon="6.71871">
        <ele>435.3</ele>
        <time>2010-01-02T15:06:09Z</time>
      </trkpt>
      <trkpt lat="43.64728" lon="6.71884">
        <ele>434.8</ele>
        <time>2010-01-02T15:06:12Z</time>
      </trkpt>
      <trkpt lat="43.64735" lon="6.71894">
        <ele>434.4</ele>
        <time>2010-01-02T15:06:14Z</time>
      </trkpt>
      <trkpt lat="43.64739" lon="6.71905">
        <ele>434</ele>
        <time>2010-01-02T15:06:16Z</time>
      </trkpt>
      <trkpt lat="43.64742" lon="6.71917">
        <ele>433.4</ele>
        <time>2010-01-02T15:06:18Z</time>
      </trkpt>
      <trkpt lat="43.64742" lon="6.71931">
        <ele>434.1</ele>
        <time>2010-01-02T15:06:21Z</time>
      </trkpt>
      <trkpt lat="43.64739" lon="6.71945">
        <ele>434.3</ele>
        <time>2010-01-02T15:06:24Z</time>
      </trkpt>
      <trkpt lat="43.64735" lon="6.71959">
        <ele>434.4</ele>
        <time>2010-01-02T15:06:27Z</time>
      </trkpt>
      <trkpt lat="43.64732" lon="6.71974">
        <ele>435</ele>
        <time>2010-01-02T15:06:30Z</time>
      </trkpt>
      <trkpt lat="43.64731" lon="6.7199">
        <ele>434.2</ele>
        <time>2010-01-02T15:06:33Z</time>
      </trkpt>
      <trkpt lat="43.64733" lon="6.72006">
        <ele>434</ele>
        <time>2010-01-02T15:06:36Z</time>
      </trkpt>
      <trkpt lat="43.64736" lon="6.72023">
        <ele>433.5</ele>
        <time>2010-01-02T15:06:39Z</time>
      </trkpt>
      <trkpt lat="43.64738" lon="6.7204">
        <ele>433.7</ele>
        <time>2010-01-02T15:06:42Z</time>
      </trkpt>
      <trkpt lat="43.64742" lon="6.72057">
        <ele>433.3</ele>
        <time>2010-01-02T15:06:45Z</time>
      </trkpt>
      <trkpt lat="43.64746" lon="6.72072">
        <ele>433.8</ele>
        <time>2010-01-02T15:06:48Z</time>
      </trkpt>
      <trkpt lat="43.64751" lon="6.72088">
        <ele>432.5</ele>
        <time>2010-01-02T15:06:51Z</time>
      </trkpt>
      <trkpt lat="43.64756" lon="6.72103">
        <ele>432.1</ele>
        <time>2010-01-02T15:06:54Z</time>
      </trkpt>
      <trkpt lat="43.64764" lon="6.72116">
        <ele>432</ele>
        <time>2010-01-02T15:06:57Z</time>
      </trkpt>
      <trkpt lat="43.64772" lon="6.72128">
        <ele>432.5</ele>
        <time>2010-01-02T15:07:00Z</time>
      </trkpt>
      <trkpt lat="43.64779" lon="6.72137">
        <ele>431.6</ele>
        <time>2010-01-02T15:07:02Z</time>
      </trkpt>
      <trkpt lat="43.64791" lon="6.72145">
        <ele>431.2</ele>
        <time>2010-01-02T15:07:05Z</time>
      </trkpt>
      <trkpt lat="43.648" lon="6.72149">
        <ele>430.5</ele>
        <time>2010-01-02T15:07:07Z</time>
      </trkpt>
      <trkpt lat="43.64808" lon="6.72158">
        <ele>428</ele>
        <time>2010-01-02T15:07:09Z</time>
      </trkpt>
      <trkpt lat="43.64817" lon="6.7217">
        <ele>426.1</ele>
        <time>2010-01-02T15:07:11Z</time>
      </trkpt>
      <trkpt lat="43.64827" lon="6.72185">
        <ele>424.9</ele>
        <time>2010-01-02T15:07:13Z</time>
      </trkpt>
      <trkpt lat="43.64836" lon="6.72197">
        <ele>424.1</ele>
        <time>2010-01-02T15:07:15Z</time>
      </trkpt>
      <trkpt lat="43.64841" lon="6.72207">
        <ele>425.6</ele>
        <time>2010-01-02T15:07:20Z</time>
      </trkpt>
      <trkpt lat="43.64848" lon="6.72218">
        <ele>426.9</ele>
        <time>2010-01-02T15:07:26Z</time>
      </trkpt>
      <trkpt lat="43.64854" lon="6.72228">
        <ele>429.8</ele>
        <time>2010-01-02T15:07:32Z</time>
      </trkpt>
      <trkpt lat="43.6486" lon="6.72238">
        <ele>431.2</ele>
        <time>2010-01-02T15:07:44Z</time>
      </trkpt>
      <trkpt lat="43.64867" lon="6.72246">
        <ele>431.1</ele>
        <time>2010-01-02T15:07:48Z</time>
      </trkpt>
      <trkpt lat="43.64877" lon="6.72258">
        <ele>429.8</ele>
        <time>2010-01-02T15:07:52Z</time>
      </trkpt>
      <trkpt lat="43.64884" lon="6.72266">
        <ele>429.2</ele>
        <time>2010-01-02T15:07:55Z</time>
      </trkpt>
      <trkpt lat="43.64892" lon="6.72273">
        <ele>429.1</ele>
        <time>2010-01-02T15:07:58Z</time>
      </trkpt>
      <trkpt lat="43.64899" lon="6.72283">
        <ele>429.2</ele>
        <time>2010-01-02T15:08:01Z</time>
      </trkpt>
      <trkpt lat="43.64904" lon="6.72294">
        <ele>429.1</ele>
        <time>2010-01-02T15:08:04Z</time>
      </trkpt>
      <trkpt lat="43.64909" lon="6.72306">
        <ele>429.6</ele>
        <time>2010-01-02T15:08:07Z</time>
      </trkpt>
      <trkpt lat="43.64912" lon="6.72321">
        <ele>429.5</ele>
        <time>2010-01-02T15:08:10Z</time>
      </trkpt>
      <trkpt lat="43.64915" lon="6.72335">
        <ele>430.1</ele>
        <time>2010-01-02T15:08:13Z</time>
      </trkpt>
      <trkpt lat="43.64919" lon="6.72349">
        <ele>431.2</ele>
        <time>2010-01-02T15:08:16Z</time>
      </trkpt>
      <trkpt lat="43.64923" lon="6.72362">
        <ele>432.2</ele>
        <time>2010-01-02T15:08:19Z</time>
      </trkpt>
      <trkpt lat="43.64929" lon="6.72373">
        <ele>432.6</ele>
        <time>2010-01-02T15:08:22Z</time>
      </trkpt>
      <trkpt lat="43.64937" lon="6.72384">
        <ele>432.3</ele>
        <time>2010-01-02T15:08:25Z</time>
      </trkpt>
      <trkpt lat="43.64944" lon="6.72393">
        <ele>432.3</ele>
        <time>2010-01-02T15:08:28Z</time>
      </trkpt>
      <trkpt lat="43.64948" lon="6.72404">
        <ele>432.2</ele>
        <time>2010-01-02T15:08:31Z</time>
      </trkpt>
      <trkpt lat="43.6495" lon="6.72419">
        <ele>431.3</ele>
        <time>2010-01-02T15:08:34Z</time>
      </trkpt>
      <trkpt lat="43.64952" lon="6.72434">
        <ele>431.2</ele>
        <time>2010-01-02T15:08:37Z</time>
      </trkpt>
      <trkpt lat="43.64954" lon="6.72449">
        <ele>431.4</ele>
        <time>2010-01-02T15:08:40Z</time>
      </trkpt>
      <trkpt lat="43.64957" lon="6.72464">
        <ele>431.4</ele>
        <time>2010-01-02T15:08:43Z</time>
      </trkpt>
      <trkpt lat="43.6496" lon="6.72478">
        <ele>431.9</ele>
        <time>2010-01-02T15:08:46Z</time>
      </trkpt>
      <trkpt lat="43.64962" lon="6.72495">
        <ele>431.1</ele>
        <time>2010-01-02T15:08:49Z</time>
      </trkpt>
      <trkpt lat="43.64963" lon="6.72511">
        <ele>430.8</ele>
        <time>2010-01-02T15:08:52Z</time>
      </trkpt>
      <trkpt lat="43.64964" lon="6.72528">
        <ele>430.9</ele>
        <time>2010-01-02T15:08:55Z</time>
      </trkpt>
      <trkpt lat="43.64965" lon="6.72545">
        <ele>431.8</ele>
        <time>2010-01-02T15:08:58Z</time>
      </trkpt>
      <trkpt lat="43.64965" lon="6.72562">
        <ele>432.3</ele>
        <time>2010-01-02T15:09:01Z</time>
      </trkpt>
      <trkpt lat="43.6496" lon="6.72579">
        <ele>432.3</ele>
        <time>2010-01-02T15:09:04Z</time>
      </trkpt>
      <trkpt lat="43.64957" lon="6.72596">
        <ele>432.8</ele>
        <time>2010-01-02T15:09:07Z</time>
      </trkpt>
      <trkpt lat="43.64955" lon="6.72613">
        <ele>433</ele>
        <time>2010-01-02T15:09:10Z</time>
      </trkpt>
      <trkpt lat="43.64952" lon="6.7263">
        <ele>433.1</ele>
        <time>2010-01-02T15:09:13Z</time>
      </trkpt>
      <trkpt lat="43.64951" lon="6.72647">
        <ele>432.8</ele>
        <time>2010-01-02T15:09:16Z</time>
      </trkpt>
      <trkpt lat="43.6495" lon="6.72663">
        <ele>432.6</ele>
        <time>2010-01-02T15:09:19Z</time>
      </trkpt>
      <trkpt lat="43.6495" lon="6.72678">
        <ele>431.9</ele>
        <time>2010-01-02T15:09:22Z</time>
      </trkpt>
      <trkpt lat="43.64949" lon="6.72694">
        <ele>431.4</ele>
        <time>2010-01-02T15:09:25Z</time>
      </trkpt>
      <trkpt lat="43.64947" lon="6.7271">
        <ele>431</ele>
        <time>2010-01-02T15:09:28Z</time>
      </trkpt>
      <trkpt lat="43.64945" lon="6.72726">
        <ele>430.9</ele>
        <time>2010-01-02T15:09:31Z</time>
      </trkpt>
      <trkpt lat="43.64945" lon="6.72742">
        <ele>430.9</ele>
        <time>2010-01-02T15:09:34Z</time>
      </trkpt>
      <trkpt lat="43.64946" lon="6.72758">
        <ele>430.8</ele>
        <time>2010-01-02T15:09:37Z</time>
      </trkpt>
      <trkpt lat="43.64949" lon="6.72775">
        <ele>430.9</ele>
        <time>2010-01-02T15:09:40Z</time>
      </trkpt>
      <trkpt lat="43.64951" lon="6.72792">
        <ele>430.7</ele>
        <time>2010-01-02T15:09:43Z</time>
      </trkpt>
      <trkpt lat="43.64955" lon="6.72808">
        <ele>431</ele>
        <time>2010-01-02T15:09:46Z</time>
      </trkpt>
      <trkpt lat="43.64959" lon="6.72823">
        <ele>431</ele>
        <time>2010-01-02T15:09:49Z</time>
      </trkpt>
      <trkpt lat="43.64964" lon="6.72836">
        <ele>431.2</ele>
        <time>2010-01-02T15:09:52Z</time>
      </trkpt>
      <trkpt lat="43.64969" lon="6.72849">
        <ele>431.5</ele>
        <time>2010-01-02T15:09:55Z</time>
      </trkpt>
      <trkpt lat="43.64977" lon="6.72859">
        <ele>431.9</ele>
        <time>2010-01-02T15:09:58Z</time>
      </trkpt>
      <trkpt lat="43.64983" lon="6.72868">
        <ele>431.7</ele>
        <time>2010-01-02T15:10:01Z</time>
      </trkpt>
      <trkpt lat="43.64991" lon="6.72877">
        <ele>431.1</ele>
        <time>2010-01-02T15:10:04Z</time>
      </trkpt>
      <trkpt lat="43.64995" lon="6.72888">
        <ele>430.8</ele>
        <time>2010-01-02T15:10:08Z</time>
      </trkpt>
      <trkpt lat="43.64996" lon="6.72901">
        <ele>432.3</ele>
        <time>2010-01-02T15:10:13Z</time>
      </trkpt>
      <trkpt lat="43.64999" lon="6.72914">
        <ele>434.6</ele>
        <time>2010-01-02T15:10:33Z</time>
      </trkpt>
      <trkpt lat="43.65" lon="6.72928">
        <ele>436.3</ele>
        <time>2010-01-02T15:10:41Z</time>
      </trkpt>
      <trkpt lat="43.65002" lon="6.72941">
        <ele>434.3</ele>
        <time>2010-01-02T15:10:53Z</time>
      </trkpt>
      <trkpt lat="43.65004" lon="6.72953">
        <ele>434.9</ele>
        <time>2010-01-02T15:11:00Z</time>
      </trkpt>
      <trkpt lat="43.65005" lon="6.72966">
        <ele>436.5</ele>
        <time>2010-01-02T15:11:06Z</time>
      </trkpt>
      <trkpt lat="43.65007" lon="6.7298">
        <ele>438.9</ele>
        <time>2010-01-02T15:11:13Z</time>
      </trkpt>
      <trkpt lat="43.6501" lon="6.72992">
        <ele>440.3</ele>
        <time>2010-01-02T15:11:21Z</time>
      </trkpt>
      <trkpt lat="43.65011" lon="6.73005">
        <ele>444.8</ele>
        <time>2010-01-02T15:11:29Z</time>
      </trkpt>
      <trkpt lat="43.65013" lon="6.73018">
        <ele>448.4</ele>
        <time>2010-01-02T15:11:47Z</time>
      </trkpt>
      <trkpt lat="43.65013" lon="6.7303">
        <ele>448.5</ele>
        <time>2010-01-02T15:11:59Z</time>
      </trkpt>
      <trkpt lat="43.65015" lon="6.73044">
        <ele>450.3</ele>
        <time>2010-01-02T15:12:12Z</time>
      </trkpt>
      <trkpt lat="43.65016" lon="6.73057">
        <ele>452.7</ele>
        <time>2010-01-02T15:12:24Z</time>
      </trkpt>
      <trkpt lat="43.65019" lon="6.73161">
        <ele>465.7</ele>
        <time>2010-01-02T15:14:17Z</time>
      </trkpt>
      <trkpt lat="43.65022" lon="6.73175">
        <ele>463.5</ele>
        <time>2010-01-02T15:14:22Z</time>
      </trkpt>
      <trkpt lat="43.65022" lon="6.7319">
        <ele>460.2</ele>
        <time>2010-01-02T15:14:59Z</time>
      </trkpt>
      <trkpt lat="43.65023" lon="6.73204">
        <ele>458.4</ele>
        <time>2010-01-02T15:15:41Z</time>
      </trkpt>
      <trkpt lat="43.65017" lon="6.73214">
        <ele>467.3</ele>
        <time>2010-01-02T15:19:14Z</time>
      </trkpt>
      <trkpt lat="43.65009" lon="6.73221">
        <ele>455.5</ele>
        <time>2010-01-02T15:35:38Z</time>
      </trkpt>
      <trkpt lat="43.64999" lon="6.7322">
        <ele>453.9</ele>
        <time>2010-01-02T15:35:42Z</time>
      </trkpt>
      <trkpt lat="43.6499" lon="6.7322">
        <ele>451.9</ele>
        <time>2010-01-02T15:35:46Z</time>
      </trkpt>
      <trkpt lat="43.64978" lon="6.73221">
        <ele>450.9</ele>
        <time>2010-01-02T15:35:50Z</time>
      </trkpt>
      <trkpt lat="43.64967" lon="6.73221">
        <ele>449.8</ele>
        <time>2010-01-02T15:35:54Z</time>
      </trkpt>
      <trkpt lat="43.64956" lon="6.73224">
        <ele>448.6</ele>
        <time>2010-01-02T15:35:58Z</time>
      </trkpt>
      <trkpt lat="43.64946" lon="6.73227">
        <ele>447.2</ele>
        <time>2010-01-02T15:36:01Z</time>
      </trkpt>
      <trkpt lat="43.64936" lon="6.73229">
        <ele>446.3</ele>
        <time>2010-01-02T15:36:03Z</time>
      </trkpt>
      <trkpt lat="43.64926" lon="6.7323">
        <ele>445.7</ele>
        <time>2010-01-02T15:36:05Z</time>
      </trkpt>
      <trkpt lat="43.64917" lon="6.73231">
        <ele>444.5</ele>
        <time>2010-01-02T15:36:07Z</time>
      </trkpt>
      <trkpt lat="43.64907" lon="6.73233">
        <ele>443.6</ele>
        <time>2010-01-02T15:36:09Z</time>
      </trkpt>
      <trkpt lat="43.64898" lon="6.73236">
        <ele>442.6</ele>
        <time>2010-01-02T15:36:11Z</time>
      </trkpt>
      <trkpt lat="43.64886" lon="6.7324">
        <ele>441</ele>
        <time>2010-01-02T15:36:14Z</time>
      </trkpt>
      <trkpt lat="43.64877" lon="6.73248">
        <ele>439.4</ele>
        <time>2010-01-02T15:36:17Z</time>
      </trkpt>
      <trkpt lat="43.64867" lon="6.73255">
        <ele>438.1</ele>
        <time>2010-01-02T15:36:20Z</time>
      </trkpt>
      <trkpt lat="43.64858" lon="6.73261">
        <ele>438</ele>
        <time>2010-01-02T15:36:23Z</time>
      </trkpt>
      <trkpt lat="43.64847" lon="6.7327">
        <ele>435.3</ele>
        <time>2010-01-02T15:36:27Z</time>
      </trkpt>
      <trkpt lat="43.64838" lon="6.73272">
        <ele>434.2</ele>
        <time>2010-01-02T15:36:30Z</time>
      </trkpt>
      <trkpt lat="43.64827" lon="6.73277">
        <ele>432.8</ele>
        <time>2010-01-02T15:36:33Z</time>
      </trkpt>
      <trkpt lat="43.64816" lon="6.73282">
        <ele>432.5</ele>
        <time>2010-01-02T15:36:36Z</time>
      </trkpt>
      <trkpt lat="43.64806" lon="6.73284">
        <ele>433</ele>
        <time>2010-01-02T15:36:40Z</time>
      </trkpt>
      <trkpt lat="43.64797" lon="6.73287">
        <ele>434.3</ele>
        <time>2010-01-02T15:36:46Z</time>
      </trkpt>
      <trkpt lat="43.64788" lon="6.73293">
        <ele>436.2</ele>
        <time>2010-01-02T15:36:59Z</time>
      </trkpt>
      <trkpt lat="43.64778" lon="6.73294">
        <ele>435.5</ele>
        <time>2010-01-02T15:37:05Z</time>
      </trkpt>
      <trkpt lat="43.64768" lon="6.73296">
        <ele>434.9</ele>
        <time>2010-01-02T15:37:09Z</time>
      </trkpt>
      <trkpt lat="43.64757" lon="6.73298">
        <ele>433.9</ele>
        <time>2010-01-02T15:37:12Z</time>
      </trkpt>
      <trkpt lat="43.64743" lon="6.733">
        <ele>433.2</ele>
        <time>2010-01-02T15:37:15Z</time>
      </trkpt>
      <trkpt lat="43.64734" lon="6.73302">
        <ele>432.8</ele>
        <time>2010-01-02T15:37:17Z</time>
      </trkpt>
      <trkpt lat="43.64724" lon="6.73303">
        <ele>431.9</ele>
        <time>2010-01-02T15:37:19Z</time>
      </trkpt>
      <trkpt lat="43.64714" lon="6.73305">
        <ele>431.3</ele>
        <time>2010-01-02T15:37:21Z</time>
      </trkpt>
      <trkpt lat="43.64704" lon="6.73307">
        <ele>431.1</ele>
        <time>2010-01-02T15:37:23Z</time>
      </trkpt>
      <trkpt lat="43.64693" lon="6.7331">
        <ele>430.8</ele>
        <time>2010-01-02T15:37:25Z</time>
      </trkpt>
      <trkpt lat="43.64682" lon="6.73312">
        <ele>430</ele>
        <time>2010-01-02T15:37:27Z</time>
      </trkpt>
      <trkpt lat="43.64671" lon="6.73314">
        <ele>429.8</ele>
        <time>2010-01-02T15:37:29Z</time>
      </trkpt>
      <trkpt lat="43.6466" lon="6.73317">
        <ele>429.7</ele>
        <time>2010-01-02T15:37:31Z</time>
      </trkpt>
      <trkpt lat="43.64648" lon="6.73321">
        <ele>429.3</ele>
        <time>2010-01-02T15:37:33Z</time>
      </trkpt>
      <trkpt lat="43.64636" lon="6.73326">
        <ele>429.2</ele>
        <time>2010-01-02T15:37:35Z</time>
      </trkpt>
      <trkpt lat="43.64624" lon="6.73329">
        <ele>428.9</ele>
        <time>2010-01-02T15:37:37Z</time>
      </trkpt>
      <trkpt lat="43.64612" lon="6.73331">
        <ele>428.7</ele>
        <time>2010-01-02T15:37:39Z</time>
      </trkpt>
      <trkpt lat="43.64601" lon="6.73333">
        <ele>428.2</ele>
        <time>2010-01-02T15:37:41Z</time>
      </trkpt>
      <trkpt lat="43.6459" lon="6.73334">
        <ele>428.1</ele>
        <time>2010-01-02T15:37:43Z</time>
      </trkpt>
      <trkpt lat="43.64579" lon="6.73335">
        <ele>427.7</ele>
        <time>2010-01-02T15:37:45Z</time>
      </trkpt>
      <trkpt lat="43.64568" lon="6.73336">
        <ele>427.1</ele>
        <time>2010-01-02T15:37:47Z</time>
      </trkpt>
      <trkpt lat="43.64557" lon="6.73335">
        <ele>426.9</ele>
        <time>2010-01-02T15:37:49Z</time>
      </trkpt>
      <trkpt lat="43.64547" lon="6.73337">
        <ele>425.7</ele>
        <time>2010-01-02T15:37:51Z</time>
      </trkpt>
      <trkpt lat="43.64536" lon="6.73338">
        <ele>424.8</ele>
        <time>2010-01-02T15:37:53Z</time>
      </trkpt>
      <trkpt lat="43.64523" lon="6.73339">
        <ele>423.7</ele>
        <time>2010-01-02T15:37:55Z</time>
      </trkpt>
      <trkpt lat="43.6451" lon="6.73338">
        <ele>422.7</ele>
        <time>2010-01-02T15:37:57Z</time>
      </trkpt>
      <trkpt lat="43.64498" lon="6.73336">
        <ele>422.2</ele>
        <time>2010-01-02T15:37:59Z</time>
      </trkpt>
      <trkpt lat="43.64486" lon="6.73334">
        <ele>421.5</ele>
        <time>2010-01-02T15:38:01Z</time>
      </trkpt>
      <trkpt lat="43.64475" lon="6.73333">
        <ele>421.1</ele>
        <time>2010-01-02T15:38:03Z</time>
      </trkpt>
      <trkpt lat="43.64464" lon="6.73333">
        <ele>420.5</ele>
        <time>2010-01-02T15:38:05Z</time>
      </trkpt>
      <trkpt lat="43.64452" lon="6.73337">
        <ele>420.5</ele>
        <time>2010-01-02T15:38:08Z</time>
      </trkpt>
      <trkpt lat="43.64443" lon="6.73342">
        <ele>420.7</ele>
        <time>2010-01-02T15:38:13Z</time>
      </trkpt>
      <trkpt lat="43.64434" lon="6.73347">
        <ele>420.2</ele>
        <time>2010-01-02T15:38:18Z</time>
      </trkpt>
      <trkpt lat="43.64423" lon="6.73354">
        <ele>420.4</ele>
        <time>2010-01-02T15:38:21Z</time>
      </trkpt>
      <trkpt lat="43.64413" lon="6.73359">
        <ele>420.4</ele>
        <time>2010-01-02T15:38:24Z</time>
      </trkpt>
      <trkpt lat="43.64403" lon="6.73367">
        <ele>419.4</ele>
        <time>2010-01-02T15:38:28Z</time>
      </trkpt>
      <trkpt lat="43.64394" lon="6.73372">
        <ele>418.6</ele>
        <time>2010-01-02T15:38:31Z</time>
      </trkpt>
      <trkpt lat="43.64386" lon="6.73377">
        <ele>418</ele>
        <time>2010-01-02T15:38:34Z</time>
      </trkpt>
      <trkpt lat="43.64377" lon="6.73384">
        <ele>417.4</ele>
        <time>2010-01-02T15:38:37Z</time>
      </trkpt>
      <trkpt lat="43.64367" lon="6.73387">
        <ele>417.3</ele>
        <time>2010-01-02T15:38:40Z</time>
      </trkpt>
      <trkpt lat="43.64355" lon="6.73389">
        <ele>416.7</ele>
        <time>2010-01-02T15:38:43Z</time>
      </trkpt>
      <trkpt lat="43.64342" lon="6.7339">
        <ele>416.7</ele>
        <time>2010-01-02T15:38:46Z</time>
      </trkpt>
      <trkpt lat="43.64333" lon="6.73391">
        <ele>416.7</ele>
        <time>2010-01-02T15:38:48Z</time>
      </trkpt>
      <trkpt lat="43.64319" lon="6.73394">
        <ele>416.4</ele>
        <time>2010-01-02T15:38:51Z</time>
      </trkpt>
      <trkpt lat="43.6431" lon="6.73397">
        <ele>416</ele>
        <time>2010-01-02T15:38:53Z</time>
      </trkpt>
      <trkpt lat="43.643" lon="6.73399">
        <ele>415.3</ele>
        <time>2010-01-02T15:38:56Z</time>
      </trkpt>
      <trkpt lat="43.64277" lon="6.734">
        <ele>417.9</ele>
        <time>2010-01-02T15:39:34Z</time>
      </trkpt>
      <trkpt lat="43.64266" lon="6.73402">
        <ele>417.8</ele>
        <time>2010-01-02T15:39:42Z</time>
      </trkpt>
      <trkpt lat="43.64256" lon="6.734">
        <ele>416.4</ele>
        <time>2010-01-02T15:39:46Z</time>
      </trkpt>
      <trkpt lat="43.64244" lon="6.73397">
        <ele>415.8</ele>
        <time>2010-01-02T15:39:50Z</time>
      </trkpt>
      <trkpt lat="43.64234" lon="6.73397">
        <ele>414.7</ele>
        <time>2010-01-02T15:39:53Z</time>
      </trkpt>
      <trkpt lat="43.64223" lon="6.73403">
        <ele>414.2</ele>
        <time>2010-01-02T15:39:56Z</time>
      </trkpt>
      <trkpt lat="43.64214" lon="6.73407">
        <ele>413.6</ele>
        <time>2010-01-02T15:39:58Z</time>
      </trkpt>
      <trkpt lat="43.64203" lon="6.73413">
        <ele>412.5</ele>
        <time>2010-01-02T15:40:00Z</time>
      </trkpt>
      <trkpt lat="43.64191" lon="6.73421">
        <ele>411.4</ele>
        <time>2010-01-02T15:40:02Z</time>
      </trkpt>
      <trkpt lat="43.64178" lon="6.73429">
        <ele>410.1</ele>
        <time>2010-01-02T15:40:04Z</time>
      </trkpt>
      <trkpt lat="43.64164" lon="6.73437">
        <ele>408.3</ele>
        <time>2010-01-02T15:40:06Z</time>
      </trkpt>
      <trkpt lat="43.64149" lon="6.73442">
        <ele>406.5</ele>
        <time>2010-01-02T15:40:08Z</time>
      </trkpt>
      <trkpt lat="43.64135" lon="6.73447">
        <ele>404.7</ele>
        <time>2010-01-02T15:40:10Z</time>
      </trkpt>
      <trkpt lat="43.64122" lon="6.73451">
        <ele>403.2</ele>
        <time>2010-01-02T15:40:12Z</time>
      </trkpt>
      <trkpt lat="43.64109" lon="6.73456">
        <ele>400.8</ele>
        <time>2010-01-02T15:40:14Z</time>
      </trkpt>
      <trkpt lat="43.64096" lon="6.73461">
        <ele>398.4</ele>
        <time>2010-01-02T15:40:16Z</time>
      </trkpt>
      <trkpt lat="43.64082" lon="6.73466">
        <ele>395.8</ele>
        <time>2010-01-02T15:40:18Z</time>
      </trkpt>
      <trkpt lat="43.64066" lon="6.73471">
        <ele>393.1</ele>
        <time>2010-01-02T15:40:20Z</time>
      </trkpt>
      <trkpt lat="43.64049" lon="6.73478">
        <ele>391</ele>
        <time>2010-01-02T15:40:22Z</time>
      </trkpt>
      <trkpt lat="43.6404" lon="6.73481">
        <ele>390.1</ele>
        <time>2010-01-02T15:40:23Z</time>
      </trkpt>
      <trkpt lat="43.64032" lon="6.73485">
        <ele>389</ele>
        <time>2010-01-02T15:40:24Z</time>
      </trkpt>
      <trkpt lat="43.64023" lon="6.73488">
        <ele>388.3</ele>
        <time>2010-01-02T15:40:25Z</time>
      </trkpt>
      <trkpt lat="43.64006" lon="6.73493">
        <ele>386.9</ele>
        <time>2010-01-02T15:40:27Z</time>
      </trkpt>
      <trkpt lat="43.63997" lon="6.73496">
        <ele>386.2</ele>
        <time>2010-01-02T15:40:28Z</time>
      </trkpt>
      <trkpt lat="43.63988" lon="6.73498">
        <ele>385.6</ele>
        <time>2010-01-02T15:40:29Z</time>
      </trkpt>
      <trkpt lat="43.63971" lon="6.73505">
        <ele>384</ele>
        <time>2010-01-02T15:40:31Z</time>
      </trkpt>
      <trkpt lat="43.63955" lon="6.73511">
        <ele>382.8</ele>
        <time>2010-01-02T15:40:33Z</time>
      </trkpt>
      <trkpt lat="43.6394" lon="6.73517">
        <ele>382.1</ele>
        <time>2010-01-02T15:40:35Z</time>
      </trkpt>
      <trkpt lat="43.63927" lon="6.73522">
        <ele>381.6</ele>
        <time>2010-01-02T15:40:37Z</time>
      </trkpt>
      <trkpt lat="43.63916" lon="6.73526">
        <ele>381</ele>
        <time>2010-01-02T15:40:39Z</time>
      </trkpt>
      <trkpt lat="43.63908" lon="6.73532">
        <ele>379.9</ele>
        <time>2010-01-02T15:40:41Z</time>
      </trkpt>
      <trkpt lat="43.63896" lon="6.73541">
        <ele>379.4</ele>
        <time>2010-01-02T15:40:44Z</time>
      </trkpt>
      <trkpt lat="43.63889" lon="6.73548">
        <ele>379.2</ele>
        <time>2010-01-02T15:40:46Z</time>
      </trkpt>
      <trkpt lat="43.63878" lon="6.73557">
        <ele>378.5</ele>
        <time>2010-01-02T15:40:49Z</time>
      </trkpt>
      <trkpt lat="43.63867" lon="6.73567">
        <ele>378.1</ele>
        <time>2010-01-02T15:40:52Z</time>
      </trkpt>
      <trkpt lat="43.6386" lon="6.73575">
        <ele>377.9</ele>
        <time>2010-01-02T15:40:54Z</time>
      </trkpt>
      <trkpt lat="43.63851" lon="6.73582">
        <ele>377.8</ele>
        <time>2010-01-02T15:40:56Z</time>
      </trkpt>
      <trkpt lat="43.6384" lon="6.73591">
        <ele>377.3</ele>
        <time>2010-01-02T15:40:59Z</time>
      </trkpt>
      <trkpt lat="43.63831" lon="6.73597">
        <ele>376.7</ele>
        <time>2010-01-02T15:41:02Z</time>
      </trkpt>
      <trkpt lat="43.63822" lon="6.73608">
        <ele>376.9</ele>
        <time>2010-01-02T15:41:06Z</time>
      </trkpt>
      <trkpt lat="43.63813" lon="6.73614">
        <ele>376.2</ele>
        <time>2010-01-02T15:41:11Z</time>
      </trkpt>
      <trkpt lat="43.63807" lon="6.73624">
        <ele>375.2</ele>
        <time>2010-01-02T15:41:14Z</time>
      </trkpt>
      <trkpt lat="43.63807" lon="6.73643">
        <ele>372.8</ele>
        <time>2010-01-02T15:41:17Z</time>
      </trkpt>
      <trkpt lat="43.63807" lon="6.73657">
        <ele>372</ele>
        <time>2010-01-02T15:41:19Z</time>
      </trkpt>
      <trkpt lat="43.63807" lon="6.7367">
        <ele>372</ele>
        <time>2010-01-02T15:41:21Z</time>
      </trkpt>
      <trkpt lat="43.63806" lon="6.73688">
        <ele>372.1</ele>
        <time>2010-01-02T15:41:24Z</time>
      </trkpt>
      <trkpt lat="43.63803" lon="6.73705">
        <ele>372.4</ele>
        <time>2010-01-02T15:41:27Z</time>
      </trkpt>
      <trkpt lat="43.63796" lon="6.7372">
        <ele>372.8</ele>
        <time>2010-01-02T15:41:30Z</time>
      </trkpt>
      <trkpt lat="43.63791" lon="6.73732">
        <ele>373.8</ele>
        <time>2010-01-02T15:41:33Z</time>
      </trkpt>
      <trkpt lat="43.63786" lon="6.73745">
        <ele>375.1</ele>
        <time>2010-01-02T15:41:37Z</time>
      </trkpt>
      <trkpt lat="43.63782" lon="6.73759">
        <ele>376.6</ele>
        <time>2010-01-02T15:41:41Z</time>
      </trkpt>
      <trkpt lat="43.63777" lon="6.73774">
        <ele>378.5</ele>
        <time>2010-01-02T15:41:45Z</time>
      </trkpt>
      <trkpt lat="43.63772" lon="6.73789">
        <ele>380.3</ele>
        <time>2010-01-02T15:41:49Z</time>
      </trkpt>
      <trkpt lat="43.63769" lon="6.73804">
        <ele>382.2</ele>
        <time>2010-01-02T15:41:52Z</time>
      </trkpt>
      <trkpt lat="43.63769" lon="6.73819">
        <ele>382.8</ele>
        <time>2010-01-02T15:41:55Z</time>
      </trkpt>
      <trkpt lat="43.63769" lon="6.73831">
        <ele>383.3</ele>
        <time>2010-01-02T15:41:58Z</time>
      </trkpt>
      <trkpt lat="43.63772" lon="6.73847">
        <ele>383.3</ele>
        <time>2010-01-02T15:42:01Z</time>
      </trkpt>
      <trkpt lat="43.63773" lon="6.73862">
        <ele>384.5</ele>
        <time>2010-01-02T15:42:04Z</time>
      </trkpt>
      <trkpt lat="43.63773" lon="6.73878">
        <ele>385.6</ele>
        <time>2010-01-02T15:42:08Z</time>
      </trkpt>
      <trkpt lat="43.63782" lon="6.73882">
        <ele>386.9</ele>
        <time>2010-01-02T15:42:16Z</time>
      </trkpt>
      <trkpt lat="43.63791" lon="6.73887">
        <ele>388.4</ele>
        <time>2010-01-02T15:42:23Z</time>
      </trkpt>
      <trkpt lat="43.63788" lon="6.739">
        <ele>383.5</ele>
        <time>2010-01-02T15:42:32Z</time>
      </trkpt>
      <trkpt lat="43.63779" lon="6.73911">
        <ele>383.4</ele>
        <time>2010-01-02T15:42:37Z</time>
      </trkpt>
      <trkpt lat="43.63773" lon="6.73923">
        <ele>384.4</ele>
        <time>2010-01-02T15:42:41Z</time>
      </trkpt>
      <trkpt lat="43.6377" lon="6.73936">
        <ele>386.2</ele>
        <time>2010-01-02T15:42:44Z</time>
      </trkpt>
      <trkpt lat="43.63771" lon="6.73949">
        <ele>387.3</ele>
        <time>2010-01-02T15:42:47Z</time>
      </trkpt>
      <trkpt lat="43.63773" lon="6.73961">
        <ele>387.6</ele>
        <time>2010-01-02T15:42:50Z</time>
      </trkpt>
      <trkpt lat="43.63773" lon="6.73975">
        <ele>388.2</ele>
        <time>2010-01-02T15:42:53Z</time>
      </trkpt>
      <trkpt lat="43.63767" lon="6.73986">
        <ele>388.5</ele>
        <time>2010-01-02T15:42:56Z</time>
      </trkpt>
      <trkpt lat="43.63763" lon="6.73999">
        <ele>389.2</ele>
        <time>2010-01-02T15:42:59Z</time>
      </trkpt>
      <trkpt lat="43.6376" lon="6.74012">
        <ele>389.8</ele>
        <time>2010-01-02T15:43:02Z</time>
      </trkpt>
      <trkpt lat="43.63755" lon="6.74022">
        <ele>390.1</ele>
        <time>2010-01-02T15:43:05Z</time>
      </trkpt>
      <trkpt lat="43.63749" lon="6.74035">
        <ele>390.6</ele>
        <time>2010-01-02T15:43:08Z</time>
      </trkpt>
      <trkpt lat="43.63744" lon="6.74047">
        <ele>391.3</ele>
        <time>2010-01-02T15:43:11Z</time>
      </trkpt>
      <trkpt lat="43.63738" lon="6.7406">
        <ele>391.4</ele>
        <time>2010-01-02T15:43:14Z</time>
      </trkpt>
      <trkpt lat="43.63732" lon="6.74074">
        <ele>391</ele>
        <time>2010-01-02T15:43:17Z</time>
      </trkpt>
      <trkpt lat="43.63725" lon="6.74089">
        <ele>390.4</ele>
        <time>2010-01-02T15:43:20Z</time>
      </trkpt>
      <trkpt lat="43.63718" lon="6.74101">
        <ele>387.4</ele>
        <time>2010-01-02T15:43:22Z</time>
      </trkpt>
      <trkpt lat="43.63711" lon="6.74111">
        <ele>386.9</ele>
        <time>2010-01-02T15:43:24Z</time>
      </trkpt>
      <trkpt lat="43.63711" lon="6.74124">
        <ele>386</ele>
        <time>2010-01-02T15:43:27Z</time>
      </trkpt>
      <trkpt lat="43.63711" lon="6.74137">
        <ele>385.2</ele>
        <time>2010-01-02T15:43:30Z</time>
      </trkpt>
      <trkpt lat="43.63703" lon="6.74153">
        <ele>383.6</ele>
        <time>2010-01-02T15:43:33Z</time>
      </trkpt>
      <trkpt lat="43.63701" lon="6.74168">
        <ele>382.3</ele>
        <time>2010-01-02T15:43:36Z</time>
      </trkpt>
      <trkpt lat="43.63692" lon="6.7418">
        <ele>387.6</ele>
        <time>2010-01-02T15:48:30Z</time>
      </trkpt>
      <trkpt lat="43.63699" lon="6.74191">
        <ele>375.6</ele>
        <time>2010-01-02T15:49:40Z</time>
      </trkpt>
      <trkpt lat="43.63702" lon="6.74204">
        <ele>374.8</ele>
        <time>2010-01-02T15:49:46Z</time>
      </trkpt>
      <trkpt lat="43.63701" lon="6.74217">
        <ele>375.1</ele>
        <time>2010-01-02T15:49:51Z</time>
      </trkpt>
      <trkpt lat="43.63701" lon="6.74231">
        <ele>376.6</ele>
        <time>2010-01-02T15:49:57Z</time>
      </trkpt>
      <trkpt lat="43.637" lon="6.74244">
        <ele>376.5</ele>
        <time>2010-01-02T15:50:01Z</time>
      </trkpt>
      <trkpt lat="43.63697" lon="6.74258">
        <ele>375.1</ele>
        <time>2010-01-02T15:50:06Z</time>
      </trkpt>
      <trkpt lat="43.6369" lon="6.74268">
        <ele>376</ele>
        <time>2010-01-02T15:50:10Z</time>
      </trkpt>
      <trkpt lat="43.63683" lon="6.74278">
        <ele>377.4</ele>
        <time>2010-01-02T15:50:15Z</time>
      </trkpt>
      <trkpt lat="43.63674" lon="6.74278">
        <ele>374.1</ele>
        <time>2010-01-02T15:50:22Z</time>
      </trkpt>
      <trkpt lat="43.6367" lon="6.74289">
        <ele>376.5</ele>
        <time>2010-01-02T15:50:42Z</time>
      </trkpt>
      <trkpt lat="43.63666" lon="6.74304">
        <ele>377</ele>
        <time>2010-01-02T15:50:48Z</time>
      </trkpt>
      <trkpt lat="43.63659" lon="6.74314">
        <ele>377.9</ele>
        <time>2010-01-02T15:50:53Z</time>
      </trkpt>
      <trkpt lat="43.63652" lon="6.74325">
        <ele>379.6</ele>
        <time>2010-01-02T15:50:58Z</time>
      </trkpt>
      <trkpt lat="43.63649" lon="6.74337">
        <ele>380.6</ele>
        <time>2010-01-02T15:51:02Z</time>
      </trkpt>
      <trkpt lat="43.63646" lon="6.74351">
        <ele>382.1</ele>
        <time>2010-01-02T15:51:07Z</time>
      </trkpt>
      <trkpt lat="43.63644" lon="6.74368">
        <ele>386.1</ele>
        <time>2010-01-02T15:51:25Z</time>
      </trkpt>
      <trkpt lat="43.63648" lon="6.74382">
        <ele>385.8</ele>
        <time>2010-01-02T15:51:30Z</time>
      </trkpt>
      <trkpt lat="43.63653" lon="6.74395">
        <ele>386</ele>
        <time>2010-01-02T15:51:35Z</time>
      </trkpt>
      <trkpt lat="43.63656" lon="6.74411">
        <ele>384.6</ele>
        <time>2010-01-02T15:51:40Z</time>
      </trkpt>
      <trkpt lat="43.63659" lon="6.74424">
        <ele>383</ele>
        <time>2010-01-02T15:51:44Z</time>
      </trkpt>
      <trkpt lat="43.63662" lon="6.74439">
        <ele>382.1</ele>
        <time>2010-01-02T15:51:48Z</time>
      </trkpt>
      <trkpt lat="43.63663" lon="6.74452">
        <ele>382.9</ele>
        <time>2010-01-02T15:51:52Z</time>
      </trkpt>
      <trkpt lat="43.63661" lon="6.74464">
        <ele>383.1</ele>
        <time>2010-01-02T15:51:57Z</time>
      </trkpt>
      <trkpt lat="43.6366" lon="6.74478">
        <ele>387.4</ele>
        <time>2010-01-02T15:52:07Z</time>
      </trkpt>
      <trkpt lat="43.63659" lon="6.74491">
        <ele>388.4</ele>
        <time>2010-01-02T15:52:12Z</time>
      </trkpt>
      <trkpt lat="43.63659" lon="6.74504">
        <ele>388</ele>
        <time>2010-01-02T15:52:16Z</time>
      </trkpt>
      <trkpt lat="43.63656" lon="6.74518">
        <ele>386.9</ele>
        <time>2010-01-02T15:52:20Z</time>
      </trkpt>
      <trkpt lat="43.63654" lon="6.74532">
        <ele>386.5</ele>
        <time>2010-01-02T15:52:24Z</time>
      </trkpt>
      <trkpt lat="43.63652" lon="6.74547">
        <ele>385.9</ele>
        <time>2010-01-02T15:52:28Z</time>
      </trkpt>
      <trkpt lat="43.63653" lon="6.74563">
        <ele>385.4</ele>
        <time>2010-01-02T15:52:32Z</time>
      </trkpt>
      <trkpt lat="43.63658" lon="6.74577">
        <ele>384.9</ele>
        <time>2010-01-02T15:52:36Z</time>
      </trkpt>
      <trkpt lat="43.63664" lon="6.74591">
        <ele>384.9</ele>
        <time>2010-01-02T15:52:40Z</time>
      </trkpt>
      <trkpt lat="43.63666" lon="6.74605">
        <ele>384.1</ele>
        <time>2010-01-02T15:52:44Z</time>
      </trkpt>
      <trkpt lat="43.63669" lon="6.7462">
        <ele>383.5</ele>
        <time>2010-01-02T15:52:48Z</time>
      </trkpt>
      <trkpt lat="43.63667" lon="6.74633">
        <ele>385.3</ele>
        <time>2010-01-02T15:52:52Z</time>
      </trkpt>
      <trkpt lat="43.63659" lon="6.7464">
        <ele>383.8</ele>
        <time>2010-01-02T15:52:57Z</time>
      </trkpt>
      <trkpt lat="43.63655" lon="6.74651">
        <ele>385.4</ele>
        <time>2010-01-02T15:53:02Z</time>
      </trkpt>
      <trkpt lat="43.63646" lon="6.74661">
        <ele>387.1</ele>
        <time>2010-01-02T15:53:07Z</time>
      </trkpt>
      <trkpt lat="43.63641" lon="6.74671">
        <ele>388.2</ele>
        <time>2010-01-02T15:53:12Z</time>
      </trkpt>
      <trkpt lat="43.63639" lon="6.74685">
        <ele>388.8</ele>
        <time>2010-01-02T15:53:17Z</time>
      </trkpt>
      <trkpt lat="43.63636" lon="6.74698">
        <ele>388.7</ele>
        <time>2010-01-02T15:53:21Z</time>
      </trkpt>
      <trkpt lat="43.63633" lon="6.74712">
        <ele>389</ele>
        <time>2010-01-02T15:53:25Z</time>
      </trkpt>
      <trkpt lat="43.6363" lon="6.74724">
        <ele>389.6</ele>
        <time>2010-01-02T15:53:29Z</time>
      </trkpt>
      <trkpt lat="43.63627" lon="6.74736">
        <ele>389.4</ele>
        <time>2010-01-02T15:53:33Z</time>
      </trkpt>
      <trkpt lat="43.63617" lon="6.74743">
        <ele>390.5</ele>
        <time>2010-01-02T15:53:37Z</time>
      </trkpt>
      <trkpt lat="43.63609" lon="6.74748">
        <ele>391</ele>
        <time>2010-01-02T15:53:40Z</time>
      </trkpt>
      <trkpt lat="43.63598" lon="6.74756">
        <ele>390.1</ele>
        <time>2010-01-02T15:53:44Z</time>
      </trkpt>
      <trkpt lat="43.6359" lon="6.74765">
        <ele>391.1</ele>
        <time>2010-01-02T15:53:48Z</time>
      </trkpt>
      <trkpt lat="43.63583" lon="6.74776">
        <ele>392.5</ele>
        <time>2010-01-02T15:53:52Z</time>
      </trkpt>
      <trkpt lat="43.63594" lon="6.74812">
        <ele>393.5</ele>
        <time>2010-01-02T15:54:13Z</time>
      </trkpt>
      <trkpt lat="43.63586" lon="6.74821">
        <ele>392.7</ele>
        <time>2010-01-02T15:54:19Z</time>
      </trkpt>
      <trkpt lat="43.63576" lon="6.74826">
        <ele>392</ele>
        <time>2010-01-02T15:54:24Z</time>
      </trkpt>
      <trkpt lat="43.63566" lon="6.7483">
        <ele>390.1</ele>
        <time>2010-01-02T15:54:29Z</time>
      </trkpt>
      <trkpt lat="43.63557" lon="6.74834">
        <ele>388.4</ele>
        <time>2010-01-02T15:54:33Z</time>
      </trkpt>
      <trkpt lat="43.63547" lon="6.74839">
        <ele>387.9</ele>
        <time>2010-01-02T15:54:37Z</time>
      </trkpt>
      <trkpt lat="43.63537" lon="6.74845">
        <ele>388.4</ele>
        <time>2010-01-02T15:54:41Z</time>
      </trkpt>
      <trkpt lat="43.63528" lon="6.74851">
        <ele>387.4</ele>
        <time>2010-01-02T15:54:45Z</time>
      </trkpt>
      <trkpt lat="43.63519" lon="6.74856">
        <ele>387.4</ele>
        <time>2010-01-02T15:54:49Z</time>
      </trkpt>
      <trkpt lat="43.63509" lon="6.74862">
        <ele>387</ele>
        <time>2010-01-02T15:54:53Z</time>
      </trkpt>
      <trkpt lat="43.635" lon="6.74867">
        <ele>386.9</ele>
        <time>2010-01-02T15:54:56Z</time>
      </trkpt>
      <trkpt lat="43.63491" lon="6.74872">
        <ele>387.6</ele>
        <time>2010-01-02T15:54:59Z</time>
      </trkpt>
      <trkpt lat="43.63481" lon="6.74877">
        <ele>388</ele>
        <time>2010-01-02T15:55:02Z</time>
      </trkpt>
      <trkpt lat="43.6347" lon="6.74882">
        <ele>388.4</ele>
        <time>2010-01-02T15:55:05Z</time>
      </trkpt>
      <trkpt lat="43.63459" lon="6.74887">
        <ele>388.3</ele>
        <time>2010-01-02T15:55:08Z</time>
      </trkpt>
      <trkpt lat="43.62399" lon="6.77528">
        <ele>381.2</ele>
        <time>2010-01-02T16:04:10Z</time>
      </trkpt>
      <trkpt lat="43.62195" lon="6.77723">
        <ele>390.6</ele>
        <time>2010-01-02T16:06:17Z</time>
      </trkpt>
      <trkpt lat="43.6219" lon="6.77711">
        <ele>391.8</ele>
        <time>2010-01-02T16:06:23Z</time>
      </trkpt>
      <trkpt lat="43.62184" lon="6.777">
        <ele>393</ele>
        <time>2010-01-02T16:06:29Z</time>
      </trkpt>
      <trkpt lat="43.62177" lon="6.7769">
        <ele>394.1</ele>
        <time>2010-01-02T16:06:35Z</time>
      </trkpt>
      <trkpt lat="43.62169" lon="6.77681">
        <ele>394.8</ele>
        <time>2010-01-02T16:06:41Z</time>
      </trkpt>
      <trkpt lat="43.6216" lon="6.77672">
        <ele>395.2</ele>
        <time>2010-01-02T16:06:47Z</time>
      </trkpt>
      <trkpt lat="43.62152" lon="6.77662">
        <ele>395.5</ele>
        <time>2010-01-02T16:06:52Z</time>
      </trkpt>
      <trkpt lat="43.62144" lon="6.77654">
        <ele>396.1</ele>
        <time>2010-01-02T16:06:57Z</time>
      </trkpt>
      <trkpt lat="43.62135" lon="6.77645">
        <ele>396.2</ele>
        <time>2010-01-02T16:07:02Z</time>
      </trkpt>
      <trkpt lat="43.62128" lon="6.77637">
        <ele>396.7</ele>
        <time>2010-01-02T16:07:06Z</time>
      </trkpt>
      <trkpt lat="43.6212" lon="6.77629">
        <ele>396.9</ele>
        <time>2010-01-02T16:07:10Z</time>
      </trkpt>
      <trkpt lat="43.62112" lon="6.77622">
        <ele>397.2</ele>
        <time>2010-01-02T16:07:14Z</time>
      </trkpt>
      <trkpt lat="43.62104" lon="6.77612">
        <ele>397.2</ele>
        <time>2010-01-02T16:07:18Z</time>
      </trkpt>
      <trkpt lat="43.62097" lon="6.776">
        <ele>397</ele>
        <time>2010-01-02T16:07:22Z</time>
      </trkpt>
      <trkpt lat="43.62091" lon="6.77587">
        <ele>396.8</ele>
        <time>2010-01-02T16:07:26Z</time>
      </trkpt>
      <trkpt lat="43.62088" lon="6.77574">
        <ele>396.8</ele>
        <time>2010-01-02T16:07:30Z</time>
      </trkpt>
      <trkpt lat="43.62083" lon="6.77563">
        <ele>396.7</ele>
        <time>2010-01-02T16:07:34Z</time>
      </trkpt>
      <trkpt lat="43.6208" lon="6.7755">
        <ele>396.7</ele>
        <time>2010-01-02T16:07:38Z</time>
      </trkpt>
      <trkpt lat="43.62086" lon="6.77536">
        <ele>396.7</ele>
        <time>2010-01-02T16:07:42Z</time>
      </trkpt>
      <trkpt lat="43.62091" lon="6.77522">
        <ele>396.6</ele>
        <time>2010-01-02T16:07:46Z</time>
      </trkpt>
      <trkpt lat="43.62096" lon="6.77509">
        <ele>396.5</ele>
        <time>2010-01-02T16:07:50Z</time>
      </trkpt>
      <trkpt lat="43.62101" lon="6.77496">
        <ele>395.8</ele>
        <time>2010-01-02T16:07:53Z</time>
      </trkpt>
      <trkpt lat="43.62108" lon="6.7748">
        <ele>394.9</ele>
        <time>2010-01-02T16:07:56Z</time>
      </trkpt>
      <trkpt lat="43.62113" lon="6.77469">
        <ele>394.4</ele>
        <time>2010-01-02T16:07:58Z</time>
      </trkpt>
      <trkpt lat="43.62119" lon="6.77457">
        <ele>394.2</ele>
        <time>2010-01-02T16:08:00Z</time>
      </trkpt>
      <trkpt lat="43.62126" lon="6.77446">
        <ele>393.6</ele>
        <time>2010-01-02T16:08:02Z</time>
      </trkpt>
      <trkpt lat="43.62135" lon="6.77437">
        <ele>393.1</ele>
        <time>2010-01-02T16:08:04Z</time>
      </trkpt>
      <trkpt lat="43.62146" lon="6.77431">
        <ele>392.7</ele>
        <time>2010-01-02T16:08:06Z</time>
      </trkpt>
      <trkpt lat="43.62156" lon="6.77427">
        <ele>391.8</ele>
        <time>2010-01-02T16:08:08Z</time>
      </trkpt>
      <trkpt lat="43.62165" lon="6.77438">
        <ele>391.4</ele>
        <time>2010-01-02T16:08:11Z</time>
      </trkpt>
      <trkpt lat="43.62165" lon="6.77453">
        <ele>391.8</ele>
        <time>2010-01-02T16:08:14Z</time>
      </trkpt>
      <trkpt lat="43.62161" lon="6.77467">
        <ele>392.1</ele>
        <time>2010-01-02T16:08:18Z</time>
      </trkpt>
      <trkpt lat="43.6215" lon="6.77473">
        <ele>392.5</ele>
        <time>2010-01-02T16:08:22Z</time>
      </trkpt>
      <trkpt lat="43.62141" lon="6.77475">
        <ele>393.1</ele>
        <time>2010-01-02T16:08:26Z</time>
      </trkpt>
      <trkpt lat="43.62136" lon="6.77464">
        <ele>393.1</ele>
        <time>2010-01-02T16:08:31Z</time>
      </trkpt>
      <trkpt lat="43.62142" lon="6.77453">
        <ele>393.1</ele>
        <time>2010-01-02T16:08:37Z</time>
      </trkpt>
    </trkseg>
  </trk>
</gpx>